[[{"header":{"parameterUnit":"m.s-1","parameterCategory":1,"la1":30.6,"la2":29.2853,"lo1":-89.7004,"lo2":-87.6739,"dy":0.0162,"dx":0.0183,"nx":112,"ny":82,"refTime":"2026-05-04T00:00:00:Z","depth":0,"parameterNumber":2,"parameterNumberName":"U-component_of_WINDS"},"data":[0.0,0.0,0.0,0.0,0.0,0.0,0.0,0.0,0.0,0.0,0.0,0.0,0.0,0.0,0.0,0.0,0.0,0.0,0.0,0.0,0.0,0.0,0.0,0.0,0.0,0.0,0.0,0.0,0.0,0.0,0.0,0.0,0.0,0.0,0.0,0.0,0.0,0.0,0.0,0.0,0.0,0.0,0.0,0.0,0.0,0.0,0.0,0.0,0.0,0.0,0.0,0.0,0.0,0.0,0.0,0.0,0.0,0.0,0.0,0.0,0.0,0.0,0.0,0.0,0.0,0.0,0.0,0.0,0.0,0.0,0.0,0.0,0.0,0.0,0.0,0.0,0.0,0.0,0.0,0.0,0.0,0.0,0.0,0.0,0.0,0.0,0.0,0.0,0.0,0.0,-5.1471,-5.1289,-5.3933,-5.5434,-5.4741,-5.4318,-5.2818,-4.9779,0.0,0.0,0.0,0.0,0.0,0.0,0.0,0.0,0.0,0.0,0.0,0.0,0.0,0.0,0.0,0.0,0.0,0.0,0.0,0.0,0.0,0.0,0.0,0.0,0.0,0.0,0.0,0.0,0.0,0.0,0.0,0.0,0.0,0.0,0.0,0.0,0.0,0.0,0.0,0.0,0.0,0.0,0.0,0.0,0.0,0.0,0.0,0.0,0.0,0.0,0.0,0.0,0.0,0.0,0.0,0.0,0.0,0.0,0.0,0.0,0.0,0.0,0.0,0.0,0.0,0.0,0.0,0.0,0.0,0.0,0.0,0.0,0.0,0.0,0.0,0.0,0.0,0.0,0.0,0.0,0.0,0.0,0.0,0.0,0.0,0.0,0.0,0.0,0.0,0.0,0.0,0.0,0.0,0.0,0.0,0.0,0.0,0.0,0.0,0.0,0.0,0.0,0.0,0.0,-5.0856,-5.3626,-5.4972,-5.5665,-5.5511,-5.3549,-5.1779,-5.0596,0.0,0.0,0.0,0.0,0.0,0.0,0.0,0.0,0.0,0.0,0.0,0.0,0.0,0.0,0.0,0.0,0.0,0.0,0.0,0.0,0.0,0.0,0.0,0.0,0.0,0.0,0.0,0.0,0.0,0.0,0.0,0.0,0.0,0.0,0.0,0.0,0.0,0.0,0.0,0.0,0.0,0.0,0.0,0.0,0.0,0.0,0.0,0.0,0.0,0.0,0.0,0.0,0.0,0.0,0.0,0.0,0.0,0.0,0.0,0.0,0.0,0.0,0.0,0.0,0.0,0.0,0.0,0.0,0.0,0.0,0.0,0.0,0.0,0.0,0.0,0.0,0.0,0.0,0.0,0.0,0.0,0.0,0.0,0.0,0.0,0.0,0.0,0.0,0.0,0.0,0.0,0.0,0.0,0.0,0.0,0.0,0.0,0.0,0.0,0.0,0.0,0.0,0.0,-5.0202,-5.1395,-5.478,-5.5472,-5.5703,-5.5703,-5.3818,-5.2049,-5.0789,-4.9433,0.0,0.0,0.0,0.0,0.0,0.0,0.0,0.0,0.0,0.0,0.0,0.0,0.0,0.0,0.0,0.0,0.0,0.0,0.0,0.0,0.0,0.0,0.0,0.0,0.0,0.0,0.0,0.0,0.0,0.0,0.0,0.0,0.0,0.0,0.0,0.0,0.0,0.0,0.0,0.0,0.0,0.0,0.0,0.0,0.0,0.0,0.0,0.0,0.0,0.0,0.0,0.0,0.0,0.0,0.0,0.0,0.0,0.0,0.0,0.0,0.0,0.0,0.0,0.0,0.0,0.0,0.0,0.0,0.0,0.0,0.0,0.0,0.0,0.0,0.0,0.0,0.0,0.0,0.0,0.0,0.0,0.0,0.0,0.0,0.0,0.0,0.0,0.0,0.0,0.0,0.0,0.0,0.0,0.0,0.0,0.0,0.0,0.0,0.0,0.0,0.0,0.0,-5.201,-5.2664,-5.5395,-5.5703,-5.5703,-5.5703,-5.3972,-5.2279,-5.0789,-4.8894,0.0,0.0,0.0,0.0,0.0,0.0,0.0,0.0,0.0,0.0,0.0,0.0,0.0,0.0,0.0,0.0,0.0,0.0,0.0,0.0,0.0,0.0,0.0,0.0,0.0,0.0,0.0,0.0,0.0,0.0,0.0,0.0,0.0,0.0,0.0,0.0,0.0,0.0,0.0,0.0,0.0,0.0,0.0,0.0,0.0,0.0,0.0,0.0,0.0,0.0,0.0,0.0,0.0,0.0,0.0,0.0,0.0,0.0,0.0,0.0,0.0,0.0,0.0,0.0,0.0,0.0,0.0,0.0,0.0,0.0,0.0,0.0,0.0,0.0,0.0,0.0,0.0,0.0,0.0,0.0,0.0,0.0,0.0,0.0,0.0,0.0,0.0,0.0,0.0,0.0,0.0,0.0,0.0,0.0,0.0,0.0,0.0,0.0,0.0,0.0,0.0,0.0,-5.2818,-5.4626,-5.5588,-5.5703,-5.5703,-5.5703,-5.3433,-5.1625,-5.075,-4.8355,0.0,0.0,0.0,0.0,0.0,0.0,0.0,0.0,0.0,0.0,0.0,0.0,0.0,0.0,0.0,0.0,0.0,0.0,0.0,0.0,0.0,0.0,0.0,0.0,0.0,0.0,0.0,0.0,0.0,0.0,0.0,0.0,0.0,0.0,0.0,0.0,0.0,0.0,0.0,0.0,0.0,0.0,0.0,0.0,0.0,0.0,0.0,0.0,0.0,0.0,0.0,0.0,0.0,0.0,0.0,0.0,0.0,0.0,0.0,0.0,0.0,0.0,0.0,0.0,0.0,0.0,0.0,0.0,0.0,0.0,0.0,0.0,0.0,0.0,0.0,0.0,0.0,0.0,0.0,0.0,0.0,0.0,0.0,0.0,0.0,0.0,0.0,0.0,0.0,0.0,0.0,0.0,0.0,0.0,0.0,0.0,0.0,0.0,0.0,0.0,0.0,0.0,-5.2433,-5.4203,-5.5549,-5.5703,-5.5511,-5.4972,-5.3587,-5.1895,-5.001,0.0,0.0,0.0,0.0,0.0,0.0,0.0,0.0,0.0,0.0,0.0,0.0,0.0,0.0,0.0,0.0,0.0,0.0,0.0,0.0,0.0,0.0,0.0,0.0,0.0,0.0,0.0,0.0,0.0,0.0,0.0,0.0,0.0,0.0,0.0,0.0,0.0,0.0,0.0,0.0,0.0,0.0,0.0,0.0,0.0,0.0,0.0,0.0,0.0,0.0,0.0,0.0,0.0,0.0,0.0,0.0,0.0,0.0,0.0,0.0,0.0,0.0,0.0,0.0,0.0,0.0,0.0,0.0,0.0,0.0,0.0,0.0,0.0,0.0,0.0,0.0,0.0,0.0,0.0,0.0,0.0,0.0,0.0,0.0,0.0,0.0,0.0,0.0,0.0,0.0,0.0,0.0,0.0,0.0,0.0,0.0,0.0,0.0,0.0,0.0,0.0,0.0,-5.0404,-5.2395,-5.4241,-5.5934,-5.5857,-5.5588,-5.5318,-5.3741,-5.1818,-4.9548,0.0,0.0,0.0,0.0,0.0,0.0,0.0,0.0,0.0,0.0,0.0,0.0,0.0,0.0,0.0,0.0,0.0,0.0,0.0,0.0,0.0,0.0,0.0,0.0,0.0,0.0,0.0,0.0,0.0,0.0,0.0,0.0,0.0,0.0,0.0,0.0,0.0,0.0,0.0,0.0,0.0,0.0,0.0,0.0,0.0,0.0,0.0,0.0,0.0,0.0,0.0,0.0,0.0,0.0,0.0,0.0,0.0,0.0,0.0,0.0,0.0,0.0,0.0,0.0,0.0,0.0,0.0,0.0,0.0,0.0,0.0,0.0,0.0,0.0,0.0,0.0,0.0,0.0,0.0,0.0,0.0,0.0,0.0,0.0,0.0,0.0,0.0,0.0,0.0,0.0,0.0,0.0,0.0,0.0,0.0,0.0,0.0,0.0,0.0,0.0,0.0,0.0,-5.0481,-5.2933,-5.5164,-5.683,-5.6252,-5.6049,-5.6907,-5.3857,-5.1192,0.0,0.0,0.0,0.0,0.0,0.0,0.0,0.0,0.0,0.0,0.0,0.0,0.0,0.0,0.0,0.0,0.0,0.0,0.0,0.0,0.0,0.0,0.0,0.0,0.0,0.0,0.0,0.0,0.0,0.0,0.0,0.0,0.0,0.0,0.0,0.0,0.0,0.0,0.0,0.0,0.0,0.0,0.0,0.0,0.0,0.0,0.0,0.0,0.0,0.0,0.0,0.0,0.0,0.0,0.0,0.0,0.0,0.0,0.0,0.0,0.0,0.0,0.0,0.0,0.0,0.0,0.0,0.0,0.0,0.0,0.0,0.0,0.0,0.0,0.0,0.0,0.0,0.0,0.0,0.0,0.0,0.0,0.0,0.0,0.0,0.0,0.0,0.0,0.0,0.0,0.0,0.0,0.0,0.0,0.0,0.0,0.0,0.0,0.0,0.0,0.0,0.0,0.0,-5.1202,-5.4318,-5.6445,-5.6945,-5.6791,-5.6252,-5.5318,-5.3741,-5.1318,-4.7855,0.0,0.0,0.0,0.0,0.0,0.0,0.0,0.0,0.0,0.0,0.0,0.0,0.0,0.0,0.0,0.0,0.0,0.0,0.0,0.0,0.0,0.0,0.0,0.0,0.0,0.0,0.0,0.0,0.0,0.0,0.0,0.0,0.0,0.0,0.0,0.0,0.0,0.0,0.0,0.0,0.0,0.0,0.0,0.0,0.0,0.0,0.0,0.0,0.0,0.0,0.0,0.0,0.0,0.0,0.0,0.0,0.0,0.0,0.0,0.0,0.0,0.0,0.0,0.0,0.0,0.0,0.0,0.0,0.0,0.0,0.0,0.0,0.0,0.0,0.0,0.0,0.0,0.0,0.0,0.0,0.0,0.0,0.0,0.0,0.0,0.0,0.0,0.0,0.0,0.0,0.0,0.0,0.0,0.0,0.0,0.0,0.0,0.0,0.0,0.0,0.0,0.0,-5.101,-5.4087,-5.6395,-5.7396,-5.6907,-5.6214,-5.5549,-5.4087,-5.1548,-4.7625,0.0,0.0,0.0,0.0,0.0,0.0,0.0,0.0,0.0,0.0,0.0,0.0,0.0,0.0,0.0,0.0,0.0,0.0,0.0,0.0,0.0,0.0,0.0,0.0,0.0,0.0,0.0,0.0,0.0,0.0,0.0,0.0,0.0,0.0,0.0,0.0,0.0,0.0,0.0,0.0,0.0,0.0,0.0,0.0,0.0,0.0,0.0,0.0,0.0,0.0,0.0,0.0,0.0,0.0,0.0,0.0,0.0,0.0,0.0,0.0,0.0,0.0,0.0,0.0,0.0,0.0,0.0,0.0,0.0,0.0,0.0,0.0,0.0,0.0,0.0,0.0,0.0,0.0,0.0,0.0,0.0,0.0,0.0,0.0,0.0,0.0,0.0,0.0,0.0,0.0,0.0,0.0,0.0,0.0,0.0,0.0,0.0,0.0,0.0,0.0,0.0,0.0,-5.0394,-5.3128,-5.564,-5.7972,-5.6778,-5.6123,-5.6718,-5.459,-5.1732,-4.8202,0.0,0.0,0.0,0.0,0.0,0.0,0.0,0.0,0.0,0.0,0.0,0.0,0.0,0.0,0.0,0.0,0.0,0.0,0.0,0.0,0.0,0.0,0.0,0.0,0.0,0.0,0.0,0.0,0.0,0.0,0.0,0.0,0.0,0.0,0.0,0.0,0.0,0.0,0.0,0.0,0.0,0.0,0.0,0.0,0.0,0.0,0.0,0.0,0.0,0.0,0.0,0.0,0.0,0.0,0.0,0.0,0.0,0.0,0.0,0.0,-5.0827,-4.8586,0.0,0.0,0.0,0.0,0.0,0.0,0.0,0.0,0.0,0.0,0.0,0.0,0.0,0.0,0.0,0.0,0.0,0.0,0.0,0.0,0.0,0.0,0.0,0.0,0.0,0.0,0.0,0.0,0.0,0.0,0.0,0.0,0.0,0.0,0.0,0.0,0.0,0.0,0.0,0.0,-5.1362,-5.4619,-5.6884,-5.7501,-5.7249,-5.6534,-5.5294,-5.4047,-5.1576,-4.7403,-4.4778,0.0,0.0,0.0,0.0,0.0,0.0,0.0,0.0,0.0,0.0,0.0,0.0,0.0,0.0,0.0,0.0,0.0,0.0,0.0,0.0,0.0,0.0,0.0,0.0,0.0,0.0,0.0,0.0,0.0,0.0,0.0,0.0,0.0,0.0,0.0,0.0,0.0,0.0,0.0,0.0,0.0,0.0,0.0,0.0,0.0,0.0,0.0,0.0,0.0,0.0,0.0,0.0,0.0,0.0,0.0,0.0,0.0,0.0,0.0,-5.328,-5.1779,0.0,0.0,0.0,0.0,0.0,0.0,0.0,0.0,0.0,0.0,0.0,0.0,0.0,0.0,0.0,0.0,0.0,0.0,0.0,0.0,0.0,0.0,0.0,0.0,0.0,0.0,0.0,0.0,0.0,0.0,0.0,0.0,0.0,0.0,0.0,0.0,0.0,0.0,0.0,0.0,-5.1237,-5.4589,-5.6874,-5.7342,-5.7042,-5.6275,-5.4906,-5.4013,-5.1845,-4.7907,-4.5237,0.0,0.0,0.0,0.0,0.0,0.0,0.0,0.0,0.0,0.0,0.0,0.0,0.0,0.0,0.0,0.0,0.0,0.0,0.0,0.0,0.0,0.0,0.0,0.0,0.0,0.0,0.0,0.0,0.0,0.0,0.0,0.0,0.0,0.0,0.0,0.0,0.0,0.0,0.0,0.0,0.0,0.0,0.0,0.0,0.0,0.0,0.0,0.0,0.0,0.0,0.0,0.0,0.0,-5.6242,-5.6434,-5.5011,-5.6395,-5.6742,-5.6242,-5.6088,-5.5434,-5.4357,-5.2356,0.0,0.0,0.0,0.0,0.0,0.0,0.0,0.0,0.0,0.0,0.0,0.0,0.0,0.0,0.0,0.0,0.0,0.0,0.0,0.0,0.0,0.0,-4.9356,-4.9933,-5.0625,-5.0125,-4.6432,0.0,0.0,0.0,0.0,0.0,0.0,0.0,0.0,0.0,0.0,0.0,-5.0806,-5.4008,-5.6271,-5.6952,-5.645,-5.5628,-5.4587,-5.3808,-5.2052,-4.8919,-4.623,-4.3413,0.0,0.0,0.0,0.0,0.0,0.0,0.0,0.0,0.0,0.0,0.0,0.0,0.0,0.0,0.0,0.0,0.0,0.0,0.0,0.0,0.0,0.0,0.0,0.0,0.0,0.0,0.0,0.0,0.0,0.0,0.0,0.0,-4.8625,-4.7855,0.0,0.0,0.0,0.0,0.0,0.0,0.0,0.0,0.0,0.0,0.0,0.0,0.0,-5.4126,-5.4318,-5.8088,-5.9165,-5.7665,-6.1589,-6.2897,-6.1973,-6.2204,-6.2666,-6.3243,-6.2474,0.0,-5.4511,-5.4895,0.0,0.0,0.0,0.0,0.0,0.0,0.0,0.0,0.0,0.0,0.0,0.0,0.0,0.0,0.0,0.0,0.0,0.0,0.0,0.0,0.0,0.0,-5.3472,-5.2856,-5.2779,-5.251,-5.1192,-4.8769,-4.6086,-4.3316,-4.2931,-4.2256,0.0,0.0,0.0,0.0,0.0,0.0,-5.0915,-5.3607,-5.5343,-5.554,-5.5465,-5.4713,-5.2952,-5.2713,-5.1788,-4.975,-4.7207,-4.5257,-4.4059,-4.0136,0.0,0.0,0.0,0.0,0.0,0.0,0.0,0.0,0.0,0.0,0.0,0.0,0.0,0.0,0.0,0.0,0.0,0.0,0.0,0.0,0.0,0.0,0.0,0.0,0.0,0.0,0.0,0.0,0.0,-4.8086,-4.8894,-4.7586,-4.8586,-4.8548,0.0,0.0,0.0,0.0,0.0,0.0,0.0,0.0,0.0,-5.7203,-5.6857,-5.755,-5.9435,-6.1781,-6.232,-6.1127,-6.3474,-6.4128,-6.3308,-6.3308,-6.3512,-6.382,-6.2974,-6.1166,-5.8704,-5.7627,-5.5934,-5.3895,0.0,0.0,0.0,0.0,-5.2202,-5.2318,-5.3857,-5.4318,-5.4098,-5.3126,0.0,0.0,0.0,0.0,0.0,0.0,0.0,-4.9625,-5.0702,-5.2356,-5.3895,-5.4472,-5.4626,-5.4398,-5.3626,-5.1953,-4.9641,-4.6497,-4.5965,-4.4914,-4.1466,-4.2027,0.0,0.0,0.0,-4.885,-5.1083,-5.3194,-5.4486,-5.457,-5.457,-5.4023,-5.2726,-5.2608,-5.1861,-5.0124,-4.7989,-4.641,-4.5513,-4.2202,-4.0196,0.0,0.0,0.0,0.0,0.0,0.0,0.0,0.0,0.0,0.0,0.0,0.0,0.0,0.0,0.0,0.0,0.0,0.0,0.0,0.0,0.0,0.0,0.0,0.0,0.0,0.0,0.0,0.0,-4.924,-5.001,-4.8086,-4.9933,-5.024,0.0,0.0,0.0,0.0,0.0,0.0,-5.5665,-5.5395,-5.6896,-6.0704,-6.0204,-6.1127,-6.3628,-6.4512,-6.4512,-6.3628,-6.4512,-6.4589,-6.3974,-6.3974,-6.3974,-6.3897,-6.2858,-6.2397,-6.2204,-5.9665,-5.7857,-5.6511,-5.5088,-5.4511,-5.4549,-5.4972,-5.4857,-5.4857,-5.7165,-5.7703,-5.7165,-5.6126,-5.5357,-5.4126,-5.051,0.0,0.0,0.0,0.0,-5.0818,-5.2702,-5.3522,-5.4227,-5.546,-5.5789,-5.5689,-5.5203,-5.4224,-5.2552,-4.9467,-4.8783,-4.7532,-4.3995,-4.4483,0.0,-4.4704,-4.6975,-4.9403,-5.1172,-5.2734,-5.3672,-5.3672,-5.3672,-5.332,-5.2422,-5.2383,-5.1758,-5.0273,-4.8664,-4.7403,-4.6505,-4.4114,-4.2318,-4.1266,0.0,0.0,0.0,0.0,0.0,0.0,0.0,0.0,0.0,0.0,0.0,0.0,0.0,0.0,0.0,0.0,0.0,0.0,0.0,0.0,0.0,0.0,0.0,0.0,0.0,0.0,0.0,0.0,0.0,-5.0827,-5.4136,0.0,0.0,0.0,0.0,-5.4126,-5.5011,-5.6588,-5.9127,-5.9973,-6.1627,-6.4243,-6.432,-6.4359,-6.4551,-6.5397,-6.5397,-6.4551,-6.5436,-6.582,-6.5782,-6.5782,-6.5782,-6.5667,-6.3974,-6.3243,-6.3051,-6.0473,-5.9396,-5.9204,-5.8357,-5.805,-5.7934,-5.7165,-5.7357,-5.7934,-5.728,-5.7588,-5.8357,-5.905,-5.7627,-5.528,-5.351,-5.1818,0.0,0.0,-5.1741,-5.3049,-5.3164,-5.4466,-5.5783,-5.586,-5.605,-5.6175,-5.6142,-5.4791,-5.3083,-5.1293,-5.0281,-4.9184,-4.7437,0.0,-4.7278,-4.7382,-4.8242,-4.9492,-5.1172,-5.2187,-5.2773,-5.2773,-5.2773,-5.2422,-5.1523,-5.1484,-5.1094,-5.0234,-4.9336,-4.8437,-4.7578,-4.5725,-4.3946,-4.227,-3.9636,0.0,0.0,0.0,0.0,0.0,0.0,0.0,0.0,0.0,0.0,0.0,0.0,0.0,0.0,0.0,0.0,0.0,0.0,0.0,0.0,0.0,0.0,0.0,0.0,0.0,0.0,0.0,0.0,-5.3318,-5.6395,0.0,-5.4626,-5.4857,-5.5895,-5.7588,-5.8511,-6.0089,-6.2666,-6.2551,-6.3358,-6.5359,-6.4897,-6.4859,-6.5436,-6.5743,-6.5743,-6.5436,-6.5743,-6.5897,-6.5897,-6.5897,-6.5897,-6.5782,-6.4051,-6.3308,-6.3166,-6.1166,-6.0319,-6.0319,-6.0012,-5.9896,-5.9858,-5.955,-5.9627,-5.9858,-5.955,-5.9665,-5.9781,-5.8973,-5.7742,-5.6214,-5.4549,-5.3626,-5.3166,-5.3267,-5.3688,-5.4302,-5.4978,-5.5598,-5.611,-5.611,-5.6152,-5.6217,-5.6293,-5.494,-5.3595,-5.3057,-5.1789,-5.0243,-4.8543,-4.8771,-4.902,-4.8515,-4.918,-5.0156,-5.125,-5.168,-5.1875,-5.1875,-5.1875,-5.1758,-5.1445,-5.0937,-5.0508,-5.0234,-4.8867,-4.793,-4.7617,-4.6443,-4.4995,-4.3238,-4.1688,-3.9087,0.0,0.0,0.0,0.0,0.0,0.0,0.0,0.0,0.0,0.0,0.0,0.0,0.0,0.0,0.0,0.0,0.0,0.0,0.0,0.0,0.0,0.0,0.0,0.0,0.0,-5.4511,-5.6665,-5.5895,-5.8742,-5.9896,-5.7627,-5.8215,-5.9407,-6.1089,-6.1473,-6.2627,-6.4936,-6.4205,-6.4397,-6.5859,-6.532,-6.532,-6.5897,-6.5897,-6.5897,-6.5897,-6.5897,-6.5897,-6.5897,-6.5897,-6.5897,-6.5782,-6.4051,-6.3308,-6.3166,-6.1473,-6.0781,-6.0781,-6.0781,-6.0781,-6.0781,-6.0781,-6.0781,-6.0781,-6.0781,-6.0435,-5.9781,-5.8665,-5.7703,-5.6753,-5.5318,-5.4895,-5.4919,-5.5053,-5.5118,-5.528,-5.5997,-5.6227,-5.6256,-5.6256,-5.6289,-5.6368,-5.6452,-5.5327,-5.4242,-5.4023,-5.2573,-5.0959,-4.9822,-5.0152,-5.0312,-4.9453,-5.0078,-5.0703,-5.0976,-5.1211,-5.1406,-5.1406,-5.1406,-5.1289,-5.1016,-5.0508,-4.9961,-4.9375,-4.7969,-4.7031,-4.6719,-4.5898,-4.4726,-4.3281,-4.1791,-3.9636,-3.6825,0.0,0.0,0.0,0.0,0.0,0.0,0.0,0.0,0.0,0.0,0.0,0.0,0.0,0.0,0.0,0.0,0.0,0.0,0.0,0.0,0.0,0.0,0.0,-5.4587,-5.7473,-5.9319,-5.855,-6.1358,-6.2743,-6.1127,-6.1716,-6.2858,-6.4512,-6.382,-6.4089,-6.582,-6.5089,-6.5013,-6.5859,-6.5897,-6.5897,-6.5897,-6.5897,-6.5897,-6.5897,-6.5897,-6.5897,-6.5897,-6.5897,-6.5897,-6.5743,-6.4051,-6.3269,-6.3115,-6.1473,-6.0781,-6.0781,-6.0781,-6.0781,-6.0781,-6.0781,-6.0781,-6.0742,-6.0742,-5.9665,-5.8319,-5.828,-5.7703,-5.683,-5.5983,-5.5724,-5.5738,-5.5874,-5.5939,-5.5947,-5.6169,-5.6293,-5.6394,-5.6394,-5.6511,-5.6601,-5.6601,-5.5898,-5.5,-5.4141,-5.2578,-5.1406,-5.1406,-5.1406,-5.1133,-5.0351,-5.0898,0.0,-5.0351,-5.0937,-5.1406,-5.1367,-5.1367,-5.1055,-5.0234,-5.0117,-4.9375,-4.7656,-4.6758,-4.5898,-4.5039,-4.418,-4.332,-4.2461,-3.9922,-3.8633,-3.8594,0.0,0.0,0.0,0.0,0.0,0.0,0.0,0.0,0.0,0.0,0.0,0.0,0.0,0.0,0.0,0.0,0.0,0.0,0.0,0.0,0.0,-5.5011,-5.7049,-5.6406,-5.9254,-6.1512,-6.1897,-6.3858,-6.5013,-6.4551,-6.4128,-6.4359,-6.5474,-6.4743,-6.4743,-6.582,-6.5667,-6.5628,-6.5897,-6.5897,-6.5897,-6.5897,-6.5897,-6.5897,-6.5897,-6.5897,-6.5897,-6.5897,-6.5897,-6.5551,-6.4897,-6.3782,-6.2974,-6.2358,-6.1243,-6.0781,-6.0781,-6.0781,-6.0781,-6.0781,-6.0781,-6.0396,-5.9781,-5.9204,-5.8704,-5.8204,-5.755,-5.7214,-5.6862,-5.6086,-5.587,-5.5907,-5.6173,-5.6273,-5.6301,-5.6456,-5.6514,-5.6558,-5.6558,-5.6562,-5.6601,-5.6601,-5.543,-5.4297,-5.4062,-5.2578,-5.1406,-5.1406,-5.1406,-5.1328,-5.1094,-5.125,-5.1328,-5.1094,-5.125,-5.1172,-5.0586,-5.0547,-5.0195,-4.9336,-4.8672,-4.7851,-4.6719,-4.5859,-4.5234,-4.5,-4.4766,-4.4219,-4.3359,-4.0859,-3.9219,0.0,0.0,0.0,0.0,0.0,0.0,0.0,0.0,0.0,0.0,0.0,0.0,0.0,0.0,0.0,0.0,0.0,0.0,0.0,0.0,0.0,0.0,-5.7896,-5.9973,-6.0165,-6.1897,-6.3474,-6.4282,-6.5282,-6.5897,-6.5897,-6.5436,-6.5359,-6.5859,-6.5436,-6.5359,-6.5859,-6.5897,-6.5897,-6.5897,-6.5897,-6.5897,-6.5897,-6.5897,-6.5897,-6.5897,-6.5897,-6.5897,-6.5897,-6.5897,-6.5436,-6.4551,-6.3666,-6.2858,-6.2024,-6.1166,-6.0781,-6.0781,0.0,0.0,0.0,0.0,-5.9704,-5.8934,-5.8473,-5.7819,-5.7203,-5.706,-5.6753,-5.6372,-5.6003,-5.5915,-5.5969,-5.6301,-5.6389,-5.6445,-5.6561,-5.6601,-5.6601,-5.6601,-5.6601,-5.6601,-5.6601,-5.5234,-5.3984,-5.3984,-5.2578,0.0,-5.1406,-5.1406,-5.1289,-5.0937,-5.1172,-5.1289,-5.0937,-5.1172,-5.1094,-5.0273,-5.0195,-4.9687,-4.8476,-4.7891,0.0,0.0,0.0,-4.4687,-4.3945,-4.3906,0.0,0.0,0.0,0.0,0.0,-4.0781,0.0,0.0,-4.1413,-4.1193,0.0,0.0,0.0,0.0,0.0,0.0,0.0,0.0,0.0,0.0,0.0,0.0,0.0,0.0,0.0,0.0,-6.0666,-6.2935,-6.4512,-6.4743,-6.5013,-6.5667,-6.582,-6.5859,-6.5743,-6.582,-6.5897,-6.5897,-6.5897,-6.5897,-6.5897,-6.5897,0.0,0.0,0.0,-6.5897,-6.5897,-6.5897,-6.5897,-6.5897,-6.5897,-6.5897,-6.5897,-6.5897,-6.5359,-6.4397,-6.3628,-6.2781,-6.1908,-6.1127,-6.0781,-6.0781,-6.0781,-6.0781,-6.0666,-5.9704,-5.8896,-5.828,-5.8088,0.0,0.0,-5.6631,-5.6333,-5.573,-5.5915,-5.5947,-5.6025,-5.6322,-5.6402,-5.6454,-5.6561,-5.6601,-5.6601,-5.6601,-5.6601,-5.6562,-5.6484,-5.5156,-5.3984,-5.3867,-5.2539,-5.1406,-5.1406,-5.1406,-5.1172,-5.043,-5.0937,-5.1133,-5.043,-5.0976,-5.1055,-5.0156,-5.0039,0.0,-4.7617,-4.7461,-4.707,-4.6211,-4.543,-4.4297,-4.2773,-4.2773,-4.2773,-4.2695,-4.2695,-4.3398,-4.4844,-4.4961,-4.5039,-4.5078,-4.2148,-4.1909,0.0,0.0,0.0,0.0,0.0,0.0,0.0,0.0,0.0,0.0,0.0,0.0,0.0,0.0,0.0,-5.9011,-6.2012,-6.4474,-6.5513,-6.5628,-6.5436,-6.4897,-6.5474,-6.5628,-6.4936,-6.5474,-6.5897,-6.5897,-6.5897,-6.5897,-6.5897,-6.5897,-6.5897,-6.5897,-6.5897,-6.5897,-6.5897,-6.5897,-6.5897,-6.5897,-6.5897,0.0,-6.5897,-6.5897,-6.5051,-6.3538,-6.3346,-6.2435,-6.105,-6.0858,-6.0781,-6.0781,-6.0781,-6.0781,-6.0627,-5.9088,-5.8434,-5.8088,-5.6703,-5.5972,-5.5745,-5.6027,-5.6012,-5.5932,-5.6198,-5.6301,0.0,-5.6514,-5.656,-5.6561,-5.6601,-5.6601,-5.6601,-5.6601,-5.6601,-5.6406,-5.5703,-5.4726,-5.3789,-5.3086,-5.2109,-5.1406,-5.1406,-5.1406,-5.1367,-5.1172,-5.1289,-5.1328,-5.1172,-5.1289,-5.082,-4.9297,-4.9141,-4.8437,-4.6719,-4.6562,-4.6172,-4.5312,-4.5078,-4.4844,-4.4492,-4.5156,-4.5234,-4.4492,-4.4492,-4.4336,-4.3945,-4.4648,-4.5351,-4.6055,-4.6094,-4.5976,0.0,0.0,0.0,0.0,0.0,0.0,0.0,0.0,0.0,0.0,0.0,-5.2472,-5.4203,0.0,-5.9588,-6.1704,-6.3474,-6.4897,-6.5782,-6.5897,-6.5743,-6.5282,-6.5628,-6.5743,-6.5282,-6.5628,-6.5897,-6.5897,-6.5897,-6.5897,-6.5897,-6.5897,-6.5897,-6.5897,-6.5897,-6.5897,-6.5897,-6.5897,-6.5897,-6.5897,-6.5897,-6.5897,-6.5897,-6.5436,-6.4551,-6.3281,-6.2858,-6.1973,-6.0781,-6.0781,-6.0781,-6.0781,-6.0781,-6.0781,-6.0589,-5.8934,-5.8319,-5.805,-5.628,-5.5703,-5.5686,-5.5789,-5.587,-5.5939,-5.6232,-5.6358,-5.6443,-5.656,-5.6601,-5.6601,-5.6601,-5.6601,-5.6601,-5.6601,-5.6601,-5.6367,-5.5508,-5.4609,-5.375,-5.2851,-5.1992,-5.1406,-5.1406,-5.1406,-5.1406,-5.1406,-5.1406,-5.1406,-5.1406,-5.1406,-5.0742,-4.9062,-4.8906,-4.8203,-4.6445,-4.6289,-4.6094,-4.5664,-4.5664,-4.5469,-4.5039,-4.543,-4.543,-4.5,-4.5,-4.5,-4.5,-4.5898,-4.6523,-4.6992,-4.8281,-4.8437,0.0,0.0,0.0,0.0,0.0,0.0,0.0,0.0,-4.9894,-5.1779,-5.351,-5.5588,-5.8511,-5.9819,-6.1396,-6.4166,-6.4743,-6.5089,-6.5782,-6.5897,-6.5897,-6.5897,-6.5897,-6.582,-6.5667,-6.5782,-6.5897,-6.5897,-6.5897,-6.5897,-6.5897,-6.5897,-6.5897,-6.5897,-6.5897,-6.5897,-6.5897,-6.5897,-6.5897,-6.5897,-6.5897,-6.582,-6.5628,-6.4936,-6.4051,-6.3012,-6.2204,-6.1447,-6.0781,-6.0781,-6.0781,-6.0781,-6.0781,-6.0704,-6.0358,-5.8858,-5.8319,-5.805,-5.628,-5.5703,-5.5724,-5.5788,-5.5879,-5.5984,-5.6222,-5.6365,-5.6458,-5.6561,-5.6601,-5.6601,-5.6601,-5.6484,-5.6367,-5.6367,-5.6211,-5.5859,-5.4961,-5.4258,-5.3476,-5.2617,-5.1875,-5.1406,-5.1406,-5.1406,-5.1406,-5.1406,-5.1406,-5.1406,-5.1406,-5.125,-5.0586,-4.9062,-4.875,-4.8008,-4.6445,-4.6289,-4.6289,-4.6289,-4.6289,-4.5976,-4.5273,-4.5234,-4.5234,-4.5234,-4.5234,-4.5586,-4.6289,-4.7187,-4.7695,-4.7891,-4.9453,-4.9805,-4.4816,-4.4739,-4.571,-4.7278,-4.8317,-4.9779,0.0,0.0,-5.4472,-5.6934,-5.8781,-6.0281,-6.1447,-6.2974,-6.4166,-6.4551,-6.5243,-6.5782,-6.5897,-6.5897,-6.5897,-6.5897,-6.5897,-6.559,-6.482,-6.5436,-6.5897,-6.5897,-6.5897,-6.5897,-6.5897,-6.5897,-6.5897,-6.5897,-6.5897,-6.5897,-6.5897,-6.5897,-6.5897,-6.5897,-6.5897,-6.5474,-6.4743,-6.4628,-6.3743,-6.2178,-6.132,-6.0896,-6.0781,-6.0781,-6.0781,-6.0781,-6.0781,-6.0319,-5.955,-5.8627,-5.8319,-5.805,-5.628,-5.5703,-5.5748,-5.6044,-5.6152,-5.6217,-5.6465,-5.6561,-5.6562,-5.6601,-5.6601,-5.6601,-5.6601,-5.6015,-5.5469,-5.5469,-5.4844,-5.4062,-5.3164,-5.2891,-5.2578,-5.1719,-5.1484,-5.1406,-5.1406,-5.1406,-5.1406,-5.1406,-5.1406,-5.1406,-5.1406,-5.0781,-4.9961,-4.8984,-4.8203,-4.7344,-4.6367,-4.6289,-4.6289,-4.6289,-4.6289,-4.625,-4.6172,-4.6133,-4.6133,-4.6133,-4.6133,-4.6211,-4.6289,-4.7187,-4.8008,-4.8789,-4.9766,-5.0156,-4.6086,-4.6778,-4.8202,-4.9894,-5.1356,-5.301,-5.5395,-5.5945,-5.6665,-5.9242,-6.0704,-6.1985,-6.332,-6.4551,-6.5359,-6.5359,-6.5667,-6.5897,-6.5897,-6.5897,-6.5897,-6.5897,-6.5897,-6.5743,-6.5397,-6.5705,-6.5897,-6.5897,-6.5897,-6.5897,-6.5897,-6.5897,-6.5897,-6.5897,-6.5897,-6.5897,-6.5897,-6.5897,-6.5897,-6.5897,-6.5397,-6.4936,-6.4589,-6.3589,-6.2474,-6.132,-6.0973,-6.0781,-6.0781,-6.0781,-6.0781,-6.0781,-6.0781,-6.0281,-5.9396,-5.8588,-5.7973,-5.7357,-5.6126,-5.573,-5.5852,-5.5993,-5.6181,-5.6351,-5.6454,-5.6557,-5.6601,-5.6601,-5.6601,-5.6601,-5.6601,-5.5937,-5.5312,-5.5312,-5.4648,-5.3906,-5.3555,-5.3047,-5.2578,-5.2226,-5.1758,-5.1406,-5.1406,-5.1406,-5.1406,-5.1406,-5.1406,-5.1406,-5.1406,-5.0703,-4.9687,-4.8281,-4.7344,-4.6719,-4.6328,-4.6289,-4.6289,-4.6289,-4.6289,-4.6289,-4.6289,-4.6289,-4.6289,-4.6289,-4.6289,-4.6289,-4.6289,-4.7187,-4.8047,-4.8906,-4.9805,-5.0469,-4.7231,-4.8625,-5.051,-5.2202,-5.3895,-5.5626,-5.733,-5.7868,-5.8704,-6.1012,-6.2166,-6.3243,-6.4705,-6.5474,-6.5897,-6.5897,-6.5897,-6.5897,-6.5897,-6.5705,-6.5551,-6.5551,-6.532,-6.5166,-6.5166,-6.5628,-6.5897,-6.5897,-6.5897,-6.5897,-6.5897,-6.5897,-6.5897,-6.5897,-6.5897,-6.5897,-6.5897,-6.5897,-6.5897,-6.5897,-6.5013,-6.4474,-6.4166,-6.2512,-6.1408,-6.0781,-6.0781,-6.0781,-6.0781,-6.0781,-6.0781,-6.0781,-6.0781,-6.0127,-5.9088,-5.8511,-5.7742,-5.6868,-5.6011,-5.576,-5.5849,-5.5971,-5.6136,-5.6365,-5.6445,-5.6515,-5.6601,-5.6601,-5.6445,-5.625,-5.625,-5.5586,-5.4922,-5.4922,-5.4453,-5.3984,-5.3984,-5.332,-5.2695,-5.2695,-5.1992,-5.1406,-5.1406,-5.1406,-5.1406,-5.1406,-5.1406,-5.1406,-5.1406,-5.0508,-4.918,-4.7422,-4.668,-4.6289,-4.6289,-4.6289,-4.6289,-4.6289,-4.6289,-4.6289,-4.6289,-4.6289,-4.6289,-4.6289,-4.6289,-4.6289,-4.6289,-4.7187,-4.793,-4.8555,-4.9687,-5.0508,-4.8048,-4.9885,-5.2231,-5.3972,-5.5665,-5.7368,-5.905,-6.0089,-6.1166,-6.2858,-6.3935,-6.4782,-6.5705,-6.5859,-6.5897,-6.5897,-6.5897,-6.5897,-6.5897,-6.5166,-6.4628,-6.4628,-6.3897,-6.3397,-6.3397,-6.4897,-6.5897,-6.5897,-6.5897,-6.5897,-6.5897,-6.5897,-6.5897,-6.5897,-6.5897,-6.5897,-6.5897,-6.5897,-6.5897,-6.5897,-6.5013,-6.4166,-6.3281,-6.1589,-6.0819,-6.0781,-6.0781,-6.0781,-6.0781,-6.0781,-6.0781,-6.0781,-6.0781,-5.9781,-5.8319,-5.8319,-5.7742,-5.6868,-5.6011,-5.5714,-5.5768,-5.6084,-5.6191,-5.6246,-5.6514,-5.6601,-5.6601,-5.6601,-5.5976,-5.5351,-5.5351,-5.4687,-5.4023,-5.4023,-5.4023,-5.3984,-5.3984,-5.332,-5.2695,-5.2695,-5.1992,-5.1406,-5.1406,-5.1406,-5.1406,-5.1406,-5.1406,-5.1406,-5.1406,-4.9961,-4.8281,-4.6523,-4.6328,-4.6289,-4.6289,-4.6289,-4.6289,-4.6289,-4.6289,-4.6289,-4.6289,-4.6289,-4.6289,-4.6289,-4.6289,-4.6289,-4.6289,-4.7187,-4.7617,-4.7695,-4.9414,-5.0195,-5.0308,-5.2472,-5.4857,-5.6588,-5.7857,-5.8973,-6.0089,-6.0589,-6.1127,-6.2281,-6.2281,-6.2358,-6.3217,-6.3358,-6.3551,-6.4089,-6.4666,-6.5243,-6.582,-6.5628,-6.5243,-6.4666,-6.4359,-6.4166,-6.4166,-6.4705,-6.4782,-6.4205,-6.5243,-6.5628,-6.5051,-6.559,-6.5897,-6.5897,-6.5897,-6.5897,-6.5897,-6.5897,-6.559,-6.5013,-6.3589,-6.2474,-6.1627,-6.105,-6.0781,-6.0781,-6.0781,-6.0781,-6.0781,-6.0781,-6.0781,-6.0742,-6.0165,-5.9314,-5.8346,-5.7766,-5.7041,-5.6212,-5.5843,-5.5864,-5.6044,-5.6158,-5.6301,-5.6466,-5.6562,-5.6601,-5.6601,-5.6601,-5.6406,-5.6015,-5.5469,-5.5078,-5.4726,-5.4141,-5.3984,-5.4141,-5.4726,-5.3711,-5.2851,-5.3437,-5.2383,-5.1406,-5.1406,-5.1406,-5.1406,-5.1406,-5.0937,-5.0391,-4.9805,-4.875,-4.7578,-4.6406,-4.6289,-4.6289,-4.6289,-4.6289,-4.6289,-4.6289,-4.6289,-4.6289,-4.6289,-4.6289,-4.6289,-4.6289,-4.6289,-4.6289,-4.6289,-4.6601,-4.7031,-4.7617,-4.8789,-4.9648,-5.2818,-5.4895,-5.6973,-5.8396,-5.9358,-6.0127,-6.0666,-6.105,-6.1331,-6.1601,-6.1166,-6.0858,-6.1127,-6.0935,-6.1204,-6.2627,-6.3358,-6.4205,-6.5705,-6.5628,-6.5128,-6.4243,-6.3897,-6.3589,-6.3281,-6.3512,-6.3705,-6.3782,-6.4782,-6.5205,-6.4628,-6.5436,-6.5897,-6.5897,-6.5897,-6.5897,-6.5897,-6.559,-6.4859,-6.3705,-6.2601,-6.1639,-6.0781,-6.0781,-6.0781,-6.0781,-6.0781,-6.0781,-6.0781,-6.0781,-6.0781,-6.0704,-5.9858,-5.9097,-5.8394,-5.7503,-5.6699,-5.5962,-5.5816,-5.5887,-5.6037,-5.6158,-5.634,-5.6463,-5.6561,-5.6601,-5.6601,-5.6601,-5.6133,-5.5547,-5.4961,-5.4609,-5.4219,-5.3672,-5.3789,-5.4258,-5.5117,-5.3945,-5.2969,-5.3828,-5.2578,-5.1406,-5.1406,-5.1406,-5.1406,-5.1406,-5.0469,-4.9531,-4.8984,-4.8125,-4.7266,-4.6406,-4.6289,-4.6289,-4.6289,-4.6289,-4.6289,-4.6289,-4.6289,-4.6289,-4.6289,-4.6289,-4.6289,-4.6289,-4.6289,-4.6289,-4.6289,-4.6289,-4.6601,-4.7148,-4.8359,-4.9219,-5.5395,-5.7088,-5.8627,-5.9396,-6.0204,-6.0781,-6.0781,-6.1408,-6.1716,-6.0858,-6.055,-6.0204,0.0,0.0,-5.9011,-6.1562,-6.2101,-6.3063,-6.5551,-6.5166,-6.4282,-6.3385,-6.2589,-6.1793,-6.0935,-6.1562,-6.2716,-6.4359,-6.4512,-6.4551,-6.4551,-6.5359,-6.5859,-6.5897,-6.5897,-6.5859,-6.582,-6.4936,-6.3666,-6.2101,-6.2062,-6.1601,-6.0781,-6.0781,-6.0781,-6.0781,-6.0781,-6.0781,-6.0781,-6.0781,-6.0781,-6.0704,-5.9781,-5.9068,-5.8402,-5.7481,-5.6756,-5.6186,-5.5976,-5.5852,-5.5779,-5.6097,-5.6202,-5.626,-5.6516,-5.6601,-5.6601,-5.6562,-5.5351,-5.4062,-5.3945,-5.3359,-5.2773,-5.2695,-5.3359,-5.4219,-5.5039,-5.3906,-5.293,-5.3789,-5.2578,-5.1406,-5.1406,-5.1406,-5.1406,-5.1406,-4.9961,-4.8906,-4.8906,-4.8086,-4.7226,-4.6406,-4.6289,-4.6289,-4.6289,-4.6289,-4.6289,-4.6289,-4.6289,-4.6289,-4.6289,-4.6289,-4.6289,-4.6289,-4.6289,-4.6289,-4.6289,-4.6289,-4.6289,-4.6328,-4.8086,-4.8906,-5.7165,-5.8858,-6.0204,-6.0435,-6.0627,-6.0781,-6.0781,-6.0473,-5.9935,-5.9127,-5.7434,-5.6049,0.0,-5.6088,-5.7203,-5.9742,-6.1743,0.0,-6.5628,-6.5166,0.0,-6.3385,0.0,-6.2024,-6.1793,-6.1358,-6.1589,-6.2678,-6.3281,-6.3628,-6.3628,-6.4474,-6.5243,-6.5859,-6.5897,-6.559,-6.4936,-6.3474,-6.2524,-6.2101,-6.1435,-6.1012,-6.0781,-6.0781,-6.0781,-6.0781,-6.0781,-6.0781,-6.0781,-6.0781,-6.0781,-6.0666,-5.9165,-5.8635,-5.8487,-5.6984,-5.6417,-5.6354,-5.6289,-5.6264,-5.6232,-5.6202,-5.6351,-5.6512,-5.6562,-5.6601,-5.6445,-5.582,-5.5312,-5.4687,-5.3359,-5.3359,-5.3516,-5.2851,-5.3359,-5.4062,-5.4297,-5.3476,-5.2773,-5.3008,-5.2148,-5.1406,-5.1406,-5.1406,-5.1406,-5.1406,-4.9961,-4.8906,-4.8906,-4.7578,-4.6562,-4.6328,-4.6289,-4.6289,-4.6289,-4.6289,-4.6289,-4.6289,-4.6289,-4.6289,-4.6289,-4.6289,-4.6289,-4.6289,-4.6289,-4.6289,-4.6289,-4.6289,-4.6289,-4.6328,-4.8086,-4.8906,-5.9011,-6.0358,-6.1293,-6.0896,-6.0781,-6.0512,-5.9396,-5.8742,-5.7857,-5.5895,-5.4087,-5.2702,-5.2318,-5.3241,-5.4972,0.0,0.0,0.0,-6.5551,-6.5166,-6.4282,0.0,-6.2589,0.0,-6.1562,-6.1089,-6.1012,-6.1473,-6.2281,-6.2781,-6.2781,-6.3935,-6.482,-6.532,-6.532,-6.4743,-6.3512,-6.2563,-6.1908,-6.1524,-6.1012,-6.0781,-6.0781,-6.0781,-6.0781,-6.0781,-6.0781,-6.0781,-6.0781,-6.0781,-6.0781,-6.0639,-5.9027,-5.8527,-5.8515,-5.6874,-5.6374,-5.6465,-5.6402,-5.6448,-5.646,-5.6347,-5.6386,-5.6515,-5.6562,-5.6328,-5.5937,-5.543,-5.4765,-5.3945,-5.2969,-5.2773,-5.2734,-5.2266,-5.25,-5.2969,-5.3359,-5.3047,-5.2695,-5.2695,-5.1992,-5.1406,-5.1406,-5.1406,-5.1406,-5.1406,-5.0312,-4.9453,-4.9453,-4.7617,-4.6289,-4.6289,-4.6289,-4.6289,-4.6289,-4.6289,-4.6289,-4.6289,-4.6289,-4.6289,-4.6289,-4.6289,-4.6289,-4.6289,-4.6289,-4.6289,-4.6289,-4.6289,-4.6289,-4.6328,-4.8086,-4.8906,-6.0896,-6.1666,-6.205,-6.1166,-6.0896,-6.0127,-5.7599,-5.683,-5.5742,-5.2433,0.0,-5.0164,-4.951,-5.0664,-5.2933,-5.6599,0.0,-6.1973,-6.5436,-6.5051,-6.4166,-6.3397,-6.2474,-6.1639,-6.0858,-6.0781,-6.0781,-6.0781,-6.1512,-6.1985,-6.2101,-6.3474,-6.432,-6.4436,-6.432,-6.3551,-6.2101,-6.1985,-6.155,-6.0781,-6.0781,-6.0781,-6.0781,-6.0781,-6.0781,-6.0781,-6.0781,-6.0781,-6.0781,-6.0781,-6.0781,-6.0662,-5.9108,-5.859,-5.8521,-5.6978,-5.6466,-5.6562,-5.646,-5.651,-5.6562,-5.645,-5.6397,-5.6452,-5.6561,-5.5976,-5.5273,-5.5156,-5.3945,-5.2656,-5.2578,-5.1953,-5.1445,-5.1562,-5.1562,-5.1797,-5.2695,-5.2851,-5.2851,-5.2734,-5.2109,-5.1523,-5.1406,-5.1406,-5.1406,-5.1406,-5.0703,-5.0195,-5.0195,-4.8125,-4.6601,-4.6484,-4.6484,-4.6445,-4.6328,-4.6289,-4.6289,-4.6289,-4.6289,-4.6289,-4.6289,-4.6406,-4.6484,-4.6484,-4.6601,-4.6641,-4.6641,-4.6641,-4.6641,-4.668,-4.832,-4.9062,-6.2627,-6.2974,-6.2897,-6.2101,-6.132,-6.0127,-5.7599,-5.5945,0.0,0.0,-4.9663,-4.8702,-4.9317,-5.024,-5.2472,-5.728,-5.9627,-6.1973,-6.5436,-6.4551,-6.3462,0.0,-6.1935,-6.0973,-6.0819,-6.0781,-6.0781,-6.0781,-6.0935,-6.1331,-6.2062,-6.237,-6.282,-6.3512,-6.2858,-6.2409,-6.2101,-6.1408,-6.0935,-6.0781,-6.0781,-6.0781,-6.0781,-6.0781,-6.0781,-6.0781,-6.0781,-6.0781,-6.0781,-6.0781,-6.0781,-6.0662,-5.9108,-5.859,-5.8521,-5.6978,-5.6466,-5.6601,-5.6562,-5.6562,-5.6562,-5.645,-5.6463,-5.6561,-5.6601,-5.5976,-5.5156,-5.4414,-5.3476,-5.2539,-5.1797,-5.1523,-5.1562,-5.2305,-5.2461,-5.2695,-5.3594,-5.3789,-5.3555,-5.2851,-5.2578,-5.2266,-5.1523,-5.1406,-5.1406,-5.1406,-5.0703,-5.0195,-5.0195,-4.918,-4.8164,-4.7461,-4.7383,-4.707,-4.6367,-4.6289,-4.6289,-4.6289,-4.6289,-4.6289,-4.6289,-4.6992,-4.7383,-4.7383,-4.8086,-4.8437,-4.8437,-4.8437,-4.8437,-4.8476,-4.9492,-4.9961,-6.3205,-6.3628,-6.3666,-6.2397,-6.1435,-5.9781,-5.5895,0.0,0.0,0.0,-4.7394,-4.6932,-4.7355,-4.8856,0.0,-5.3857,-5.6126,-5.8858,-6.2704,-6.2127,-6.182,-6.3115,-6.2204,-6.1281,-6.0819,-6.0781,-6.0781,-6.0781,-6.0781,-6.0973,-6.1408,-6.187,-6.2293,-6.2666,-6.2293,-6.187,-6.1435,-6.1012,-6.0781,-6.0781,-6.0781,-6.0781,-6.0781,-6.0781,-6.0781,-6.0781,-6.0781,-6.0781,-6.0781,-6.0781,-6.0845,-6.077,-5.9204,-5.8686,-5.8628,-5.7079,-5.6558,-5.6601,-5.6601,-5.6601,-5.6601,-5.6516,-5.6558,-5.6601,-5.6601,-5.5976,-5.5117,-5.4258,-5.3711,-5.3086,-5.1758,-5.207,-5.2617,-5.2148,-5.2031,-5.2266,-5.3125,-5.2969,-5.2656,-5.2695,-5.2344,-5.1875,-5.1484,-5.1406,-5.1406,-5.1406,-5.1055,-5.082,-5.082,-5.0469,-4.9726,-4.8398,-4.7851,-4.7422,-4.6992,-4.6562,-4.6484,-4.6953,-4.6992,-4.7187,-4.7617,-4.8047,-4.8281,-4.8281,-4.8672,-4.8906,-4.8906,-4.8906,-4.8906,-4.8906,-4.9805,-5.0195,-6.382,-6.4359,-6.4474,-6.2781,-6.155,-5.9473,-5.4357,-5.2395,0.0,0.0,-4.5594,-4.5671,-4.5825,0.0,-4.9317,0.0,-5.2779,-5.5742,-6.0165,-6.005,-6.0435,0.0,-6.2435,0.0,-6.0858,-6.0781,-6.0781,-6.0781,-6.0781,-6.0781,-6.0781,-6.1447,-6.1831,-6.1831,-6.1831,-6.1473,-6.0819,-6.0781,-6.0781,-6.0781,-6.0781,-6.0781,-6.0781,-6.0781,-6.0781,-6.0781,-6.0781,-6.0781,-6.0793,-6.0823,-6.0895,-6.0829,-5.9341,-5.881,-5.8697,-5.7183,-5.6601,-5.6601,-5.6601,-5.6601,-5.6601,-5.6601,-5.6601,-5.6601,-5.6601,-5.5976,-5.5156,-5.4453,-5.4141,-5.3672,-5.2305,-5.2969,-5.3633,-5.2266,-5.1953,-5.2148,-5.2812,-5.2578,-5.2344,-5.2656,-5.2305,-5.1836,-5.1445,-5.1406,-5.1406,-5.1406,-5.1406,-5.1406,-5.1406,-5.1406,-5.0898,-4.957,-4.8672,-4.8086,-4.7891,-4.7266,-4.7148,-4.7851,-4.7891,-4.8203,-4.8867,-4.9062,-4.918,-4.918,-4.9336,-4.9453,-4.9453,-4.9453,-4.9453,-4.9453,-5.0156,-5.0469,-6.5436,-6.5705,-6.5359,-6.3628,-6.1973,-5.9473,-5.4357,0.0,-4.9827,-4.6326,-4.5594,-4.5825,-4.6624,-4.6971,-4.8154,-5.1269,0.0,-5.5088,-6.0089,-6.005,-6.0435,-6.3012,0.0,0.0,-6.0819,-6.0781,-6.0781,-6.0781,-6.0781,-6.0781,-6.0781,-6.0858,-6.0935,-6.0935,-6.0935,-6.0858,-6.0781,-6.0781,-6.0781,-6.0781,-6.0781,-6.0781,-6.0781,-6.0781,-6.0781,-6.0781,-6.0781,-6.0781,-6.0804,-6.0916,-6.0979,-6.0846,-5.9455,-5.8877,-5.8697,-5.7183,-5.6601,-5.6601,-5.6601,-5.6601,-5.6601,-5.6601,-5.6601,-5.6601,-5.6601,-5.5976,-5.5273,-5.5195,-5.4609,-5.3945,-5.3789,-5.3867,-5.3945,-5.3789,-5.375,-5.3789,-5.3867,-5.4453,-5.4492,-5.3008,-5.3281,-5.3242,-5.168,-5.1406,-5.1406,-5.1406,-5.1406,-5.1406,-5.1406,-5.1406,-5.1328,-5.1172,-5.043,-4.9648,-4.8867,-4.8711,-4.8711,-4.8789,-4.8789,-4.8828,-4.8906,-4.9648,-5.0078,-5.0078,-5.0781,-5.1172,-5.1172,-5.1172,-5.1172,-5.1172,-5.125,-5.1289,-6.5243,-6.5897,-6.5474,-6.3743,-6.205,-5.9473,-5.4357,0.0,-4.975,-4.6287,-4.5594,-4.571,-4.6047,-4.6124,-4.6547,-4.7894,-4.8394,-5.0202,-5.4818,-5.6049,-5.7627,-6.0666,-6.1358,-6.1358,-6.0858,-6.0781,-6.0781,-6.0781,-6.0781,-6.0781,-6.0781,-6.0781,-6.0781,-6.0781,-6.0781,-6.0781,-6.0781,-6.0781,-6.0781,-6.0781,-6.0781,-6.0781,-6.0781,-6.0781,-6.0781,-6.0781,-6.0781,-6.0781,-6.0804,-6.0935,-6.1081,-6.1013,-5.9494,-5.8987,-5.8898,-5.7226,-5.6601,-5.6601,-5.6601,-5.6601,-5.6601,-5.6601,-5.6601,-5.6601,-5.6601,-5.6367,-5.5976,-5.5469,-5.543,-5.5312,-5.4258,-5.3594,-5.3359,-5.3867,-5.3203,-5.2422,-5.2422,-5.2695,-5.2891,-5.2734,-5.2578,-5.2383,-5.2226,-5.1758,-5.1406,-5.1406,-5.1406,-5.1406,-5.1406,-5.1406,-5.1406,-5.1406,-5.0664,-5.0078,-4.9726,-4.9219,-4.9101,-4.9648,-4.9687,-4.9883,-5.0391,-5.0742,-5.0937,-5.0937,-5.125,-5.1406,-5.1406,-5.1406,-5.1406,-5.1406,-5.1406,-5.1406,-6.4666,-6.5705,-6.5474,-6.3743,-6.1858,-5.9165,0.0,-5.1702,-4.9442,-4.6249,-4.5594,-4.5594,-4.5594,-4.5594,-4.5594,-4.5594,-4.6018,-4.774,-5.1731,-5.3356,-5.5357,-5.8742,0.0,-6.0742,-6.0127,-6.0512,-6.0781,-6.0781,-6.0781,-6.0781,-6.0781,-6.0781,-6.0781,-6.0781,-6.0781,-6.0781,-6.0781,-6.0781,-6.0781,-6.0781,-6.0781,-6.0781,-6.0781,-6.0781,-6.0781,-6.0793,-6.0845,-6.0839,-6.0871,-6.1081,-6.122,-6.1208,-5.9592,-5.9091,-5.8984,-5.7226,-5.6601,-5.6601,-5.6601,-5.6601,-5.6601,-5.6601,-5.6601,-5.6601,-5.6601,-5.6601,-5.6484,-5.5859,-5.5937,-5.5937,-5.4687,-5.3555,-5.2851,-5.3476,-5.2461,-5.1406,-5.1406,-5.1601,-5.1875,-5.2266,-5.2031,-5.1914,-5.2266,-5.1797,-5.1406,-5.1406,-5.1406,-5.1406,-5.1406,-5.1406,-5.1406,-5.1406,-5.0898,-5.0547,-5.0547,-5.0,-4.9883,-5.0508,-5.0547,-5.082,-5.1367,-5.1406,-5.1406,-5.1406,-5.1406,-5.1406,-5.1406,-5.1406,-5.1406,-5.1406,-5.1406,-5.1406,-6.3935,-6.5243,-6.5474,-6.3743,-6.1396,-5.8396,-5.4164,-5.1241,-4.8702,-4.6133,-4.5594,-4.5594,-4.5594,-4.5594,-4.5594,-4.5594,-4.6971,-4.9279,-5.2702,-5.3203,-5.4472,0.0,-5.8319,-5.8357,-5.8319,-5.9819,-6.0781,-6.0781,-6.0781,-6.0781,-6.0781,-6.0781,-6.0781,-6.0781,-6.0781,-6.0781,-6.0781,-6.0781,-6.0781,-6.0781,-6.0781,-6.0781,-6.0781,-6.0781,-6.0781,-6.0804,-6.0925,-6.0997,-6.1031,-6.1378,-6.1501,-6.1353,-5.98,-5.9219,-5.8984,-5.7226,-5.6601,-5.6601,-5.6601,-5.6601,-5.6601,-5.6601,-5.6601,-5.6601,-5.6601,-5.6601,-5.6601,-5.6601,-5.5976,-5.5312,-5.5273,-5.3984,-5.2695,-5.2695,-5.2031,-5.1406,-5.1406,-5.207,-5.2422,-5.1562,-5.2109,-5.2422,-5.1562,-5.1406,-5.1406,-5.1406,-5.1406,-5.1406,-5.1406,-5.1406,-5.1406,-5.1406,-5.1406,-5.1406,-5.1406,-5.1367,-5.1367,-5.1406,-5.1406,-5.1406,-5.1406,-5.1406,-5.1406,-5.1406,-5.1406,-5.1406,-5.1406,-5.1406,-5.1406,-5.1406,-5.1406,-5.1406,-5.8896,-6.0435,-6.0858,-5.8011,-5.6665,-5.5126,-5.1433,-4.951,-4.7971,-4.6018,-4.5594,-4.5594,-4.5594,-4.5594,-4.6172,-4.7894,-4.8625,-4.9779,-5.2,0.0,0.0,-5.6472,-5.8588,-6.0012,-6.0012,-6.0473,-6.0781,-6.0781,-6.0781,-6.0781,-6.0781,-6.0781,-6.0781,-6.0781,-6.0781,-6.0781,-6.0781,-6.0781,-6.0781,-6.0781,-6.0781,-6.0781,-6.0781,-6.0781,-6.0781,-6.0804,-6.0935,-6.0997,-6.104,-6.1344,-6.1153,-6.0534,-5.9566,-5.8828,-5.8164,-5.7031,-5.6601,-5.6601,-5.6601,-5.6601,-5.6601,-5.6601,-5.6601,-5.6601,-5.6601,-5.6601,-5.6484,-5.5898,-5.5508,-5.5156,-5.457,-5.3555,-5.2695,-5.2695,-5.2031,-5.1406,-5.1406,-5.1601,-5.1914,-5.2226,-5.2031,-5.1914,-5.2226,-5.2305,-5.2109,-5.1484,-5.1914,-5.207,-5.1484,-5.1406,-5.1406,-5.1406,-5.1406,-5.1406,-5.1406,-5.1406,-5.1406,-5.1406,-5.1406,-5.1406,-5.1406,-5.1406,-5.1406,-5.1406,-5.1406,-5.1406,-5.1406,-5.1406,-5.1406,-5.1406,-5.1406,-5.1406,0.0,-5.7511,-5.7973,-5.5549,-5.4241,-5.2818,-5.001,-4.8509,-4.7278,-4.5902,-4.5594,-4.5594,-4.5594,-4.5594,-4.6133,-4.7702,-4.8779,-4.9894,-5.1241,0.0,0.0,-5.6626,-5.855,-6.0127,-6.0742,-6.0781,-6.0781,-6.0781,-6.0781,-6.0781,-6.0781,-6.0781,-6.0781,-6.0781,-6.0781,-6.0781,-6.0781,-6.0781,-6.0781,-6.0781,-6.0781,-6.0781,-6.0781,-6.0781,-6.0781,-6.0804,-6.1027,-6.112,0.0,-6.1091,-6.0759,-6.0175,-5.9139,-5.8398,-5.7773,-5.6914,-5.6601,-5.6601,-5.6601,-5.6601,-5.6601,-5.6601,-5.6601,-5.6601,-5.6601,-5.6367,-5.6015,-5.5469,-5.4844,-5.418,-5.3633,-5.2851,-5.2226,-5.2226,-5.1797,-5.1406,-5.1406,-5.1406,-5.1562,-5.2109,-5.1758,-5.168,-5.2539,-5.2695,-5.2617,-5.2422,-5.2578,-5.25,-5.1953,-5.1601,-5.1406,-5.1406,-5.1406,-5.1406,-5.1406,-5.1406,-5.1406,-5.1406,-5.1406,-5.1406,-5.1406,-5.1406,-5.1406,-5.1406,-5.1406,-5.1406,-5.1406,-5.1406,-5.1406,-5.1406,-5.1406,-5.1406,0.0,-5.5752,-5.6214,-5.5241,-5.3241,-5.1115,-4.951,-4.7932,0.0,-4.5787,-4.5594,-4.5633,-4.5671,-4.5633,-4.5671,-4.5941,-4.8009,-4.9856,-5.0673,-5.2972,-5.5549,-5.8165,-5.8473,-5.9088,-6.0666,-6.0781,-6.0781,-6.0781,-6.0781,-6.0781,-6.0781,-6.0781,-6.0781,-6.0781,-6.0781,-6.0781,-6.0781,-6.0781,-6.0781,-6.0781,-6.0781,-6.0781,-6.0781,-6.0781,-6.0781,-6.0816,-6.1128,-6.1244,-6.1151,-6.0606,-6.0312,-6.0078,-5.8515,-5.7851,-5.7695,-5.6914,-5.6601,-5.6601,-5.6601,-5.6601,-5.6601,-5.6601,-5.6601,-5.6601,-5.6601,-5.6015,-5.539,-5.5312,-5.4101,-5.2773,-5.2734,-5.2031,-5.1406,-5.1406,-5.1406,-5.1406,-5.1406,-5.1406,-5.1406,-5.1406,-5.1406,-5.1641,-5.2461,-5.2656,-5.2969,-5.3789,-5.3281,-5.2773,-5.2773,-5.2031,-5.1484,-5.1484,-5.1445,-5.1406,-5.1406,-5.1406,-5.1406,-5.1406,-5.1406,-5.1406,-5.1406,-5.1406,-5.1406,-5.1406,-5.1406,-5.1406,-5.1406,-5.1445,-5.1484,-5.1484,-5.1562,-5.1562,-4.8625,0.0,-5.0664,-4.8519,-4.8009,-4.7817,0.0,-4.621,-4.5864,-4.5633,0.0,-4.5787,-4.6471,-4.6047,-4.6479,-4.9096,-5.051,-5.1385,-5.1587,-5.3818,-5.6588,-5.9819,-6.0204,-6.0358,-6.0742,-6.0781,-6.0781,-6.0781,-6.0781,-6.0781,-6.0781,-6.0781,-6.0781,-6.0781,-6.0781,-6.0781,-6.0781,-6.0781,-6.0781,-6.0781,-6.0781,-6.0781,-6.0781,-6.0781,-6.0781,-6.0816,-6.1128,-6.0933,-6.0289,-6.0371,-5.9648,-5.8437,-5.8047,-5.75,-5.6875,-5.668,-5.6601,-5.6601,-5.6601,-5.6601,-5.6601,-5.6601,-5.6601,-5.6601,-5.6601,-5.6445,-5.6172,-5.5508,-5.4531,-5.3555,-5.2851,-5.2031,-5.1406,-5.1406,-5.1406,-5.1406,-5.1406,-5.1406,-5.1406,-5.1406,-5.1406,-5.1484,-5.168,-5.2266,-5.2773,-5.2969,-5.3398,-5.3672,-5.3672,-5.293,-5.2383,-5.2383,-5.1797,-5.1406,-5.1406,-5.1406,-5.1406,-5.1406,-5.1406,-5.1406,-5.1406,-5.1406,-5.1406,-5.1406,-5.1406,-5.1406,-5.1406,-5.207,-5.2383,-5.2422,-5.3086,-5.3398,-4.6317,-4.7548,-4.8471,-4.7086,-4.6817,-4.6778,-4.6317,0.0,0.0,0.0,0.0,-4.5748,-4.6201,-4.624,-4.6817,-4.8663,-5.0317,-5.2049,-5.3972,-5.578,-5.7857,-6.0473,-6.0781,-6.0781,-6.0781,-6.0781,-6.0781,-6.0781,-6.0781,-6.0781,-6.0781,-6.0781,-6.0781,-6.0781,-6.0781,-6.0781,-6.0781,-6.0781,-6.0781,-6.0781,-6.0781,-6.0781,-6.0781,-6.0781,-6.0823,-6.0895,-6.0777,-6.0461,-6.0066,-5.9481,-5.8711,-5.7851,-5.7461,-5.7031,-5.6601,-5.6601,-5.6601,-5.6601,-5.6601,-5.6601,-5.6601,-5.6601,-5.6601,-5.6601,-5.6601,-5.6328,-5.582,-5.4961,-5.4062,-5.3203,-5.2344,-5.1758,-5.1406,-5.1406,-5.1406,-5.1406,-5.1406,-5.1406,-5.1406,-5.1406,-5.1406,-5.1523,-5.1914,-5.2383,-5.2969,-5.3789,-5.3945,-5.4141,-5.4531,-5.3828,-5.3281,-5.3281,-5.2851,-5.2422,-5.2031,-5.1992,-5.1836,-5.1445,-5.1406,-5.1406,-5.1406,-5.1406,-5.1406,-5.1406,-5.1406,-5.1406,-5.1406,-5.2266,-5.2695,-5.2734,-5.3594,-5.3984,-4.5902,-4.7124,-4.8202,-4.7817,-4.7317,-4.6885,-4.674,0.0,0.0,0.0,0.0,0.0,-4.5941,-4.6586,-4.7192,-4.7615,-4.9702,-5.2713,-5.683,-5.7896,-5.8934,-6.0589,-6.0781,-6.0781,-6.0781,-6.0781,-6.0781,-6.0781,-6.0781,-6.0781,-6.0781,-6.0781,-6.0781,-6.0781,-6.0781,-6.0781,-6.0781,-6.0781,-6.0781,-6.0781,-6.0781,-6.0781,-6.0781,-6.0673,-6.0671,-6.0782,-6.0106,-5.9819,-5.9711,-5.8432,-5.7812,-5.7617,-5.6875,-5.6601,-5.6601,-5.6601,-5.6601,-5.6601,-5.6601,-5.6601,-5.6601,-5.6601,-5.6601,-5.6601,-5.6601,-5.6094,-5.5312,-5.4453,-5.3476,-5.2539,-5.1797,-5.1484,-5.1406,-5.1406,-5.1406,-5.1406,-5.1406,-5.1406,-5.1406,-5.1406,-5.1406,-5.1641,-5.2383,-5.25,-5.3047,-5.4648,-5.4375,-5.4297,-5.5195,-5.4648,-5.4219,-5.4219,-5.4062,-5.3711,-5.2969,-5.2773,-5.2383,-5.1641,-5.1484,-5.1406,-5.1406,-5.1406,-5.1406,-5.1406,-5.1406,-5.1484,-5.1601,-5.2461,-5.2969,-5.3125,-5.3984,-5.4414,-4.7317,-4.8432,-4.8663,-4.6518,-4.6432,-4.6701,-4.597,0.0,0.0,0.0,0.0,0.0,0.0,-4.7817,-4.8625,-5.0769,-5.2702,-5.5126,-5.8627,-5.8665,-5.8934,-6.0589,-6.0781,-6.0781,-6.0781,-6.0781,-6.0781,-6.0781,-6.0781,-6.0781,-6.0781,-6.0781,-6.0781,-6.0781,-6.0781,-6.0781,-6.0781,-6.0781,-6.0781,-6.0781,-6.0781,-6.0781,-6.0793,-6.0132,-5.986,-5.9882,-5.9319,-5.8676,-5.7991,-5.7925,-5.7461,-5.6797,-5.664,-5.6601,-5.6601,-5.6601,-5.6601,-5.6601,-5.6601,-5.6601,-5.6601,-5.6601,-5.6601,-5.6601,-5.6601,-5.6523,-5.6211,-5.5351,-5.3945,-5.2656,-5.2539,-5.1953,-5.1406,-5.1406,-5.1406,-5.1406,-5.1406,-5.1406,-5.1406,-5.1406,-5.1406,-5.1445,-5.1562,-5.1601,-5.1953,-5.2969,-5.3594,-5.4297,-5.5195,-5.5195,-5.5117,-5.5117,-5.4453,-5.3945,-5.3828,-5.3125,-5.2656,-5.25,-5.1797,-5.1406,-5.1406,-5.1406,-5.1406,-5.1406,-5.1406,-5.1758,-5.25,-5.3398,-5.418,-5.4922,-5.5781,-5.6211,-4.6547,-4.7394,-4.7855,-4.7124,-4.7971,-4.874,-4.7855,-4.7278,0.0,0.0,0.0,0.0,0.0,0.0,-5.1,-5.3549,-5.5011,-5.6549,-5.8588,-5.8896,-5.9396,-6.0666,-6.0781,-6.0781,-6.0781,-6.0781,-6.0781,-6.0781,-6.0781,-6.0781,-6.0781,-6.0781,-6.0781,-6.0781,-6.0781,-6.0781,-6.0781,-6.0871,-6.0871,-6.0781,-6.0871,-6.086,-6.0766,-6.0154,-5.9869,-5.9813,-5.8663,-5.8046,-5.7722,-5.7343,-5.6953,-5.6601,-5.6601,-5.6601,-5.6601,-5.6601,-5.6601,-5.6601,-5.6601,-5.6601,-5.6601,-5.6601,-5.6601,-5.6601,-5.6601,-5.6289,-5.582,-5.539,-5.4375,-5.3281,-5.2812,-5.2031,-5.1406,-5.1406,-5.1406,-5.1406,-5.1406,-5.1406,-5.1406,-5.1406,-5.1406,-5.1406,-5.1406,-5.1406,-5.1719,-5.2578,-5.3047,-5.3789,-5.5117,-5.5312,-5.5469,-5.5937,-5.5625,-5.5195,-5.4726,-5.3906,-5.3008,-5.207,-5.1601,-5.1406,-5.1406,-5.1406,-5.1601,-5.2109,-5.2109,-5.2539,-5.3398,-5.4297,-5.4922,-5.5312,-5.6172,-5.6601,-4.6095,-4.6663,-4.7432,-4.8432,-4.9394,-5.0048,-5.001,-4.9317,-4.8817,0.0,0.0,0.0,0.0,-5.1231,-5.3808,-5.5972,-5.7368,-5.8369,-5.8819,-5.9435,-6.005,-6.0704,-6.0781,-6.0781,-6.0781,-6.0781,-6.0781,-6.0781,-6.0781,-6.0781,-6.0781,-6.0781,-6.0781,-6.0781,-6.0811,-6.0856,-6.0856,-6.0944,-6.0944,-6.0856,-6.1009,-6.1027,-6.0884,-6.0112,-5.9732,-5.9659,-5.8055,-5.7447,-5.7539,-5.6875,-5.6601,-5.6601,-5.6601,-5.6601,-5.6601,-5.6601,-5.6601,-5.6601,-5.6601,-5.6601,-5.6601,-5.6601,-5.6601,-5.6601,-5.6601,-5.6133,-5.5586,-5.5586,-5.4961,-5.4101,-5.3242,-5.25,-5.1953,-5.1758,-5.1719,-5.1641,-5.1445,-5.1406,-5.1406,-5.1406,-5.1406,-5.1406,-5.1406,-5.1406,-5.1641,-5.2305,-5.2578,-5.3164,-5.4531,-5.4883,-5.5234,-5.5937,-5.6172,-5.6015,-5.5351,-5.4492,-5.3437,-5.2109,-5.1836,-5.1719,-5.1719,-5.1914,-5.2305,-5.3008,-5.3008,-5.3437,-5.4297,-5.4961,-5.539,-5.5625,-5.6289,-5.6484,-4.7509,-4.7971,-4.8432,-5.0087,-4.9394,-4.8894,-5.1192,-5.1087,-5.0933,-5.251,0.0,0.0,-5.15,-5.4385,-5.6962,-5.7973,-6.0165,-6.1485,-6.0742,-6.0666,-6.0742,-6.0781,-6.0781,-6.0781,-6.0781,-6.0781,-6.0781,-6.0781,-6.0781,-6.0781,-6.0781,-6.0781,-6.0781,-6.0781,-6.0935,-6.0979,-6.0979,-6.0988,-6.0988,-6.0979,-6.1186,-6.1265,-6.122,-5.9685,-5.8991,-5.888,-5.7335,-5.6679,-5.668,-5.664,-5.6601,-5.6601,-5.6601,-5.6601,-5.6601,-5.6601,-5.6601,-5.6601,-5.6601,-5.6601,-5.6601,-5.6601,-5.6601,-5.6601,-5.6601,-5.6562,-5.6523,-5.6523,-5.5898,-5.5,-5.4141,-5.3867,-5.3594,-5.2812,-5.2617,-5.2383,-5.1562,-5.1406,-5.1406,-5.1406,-5.1406,-5.1406,-5.1406,-5.1406,-5.1406,-5.1484,-5.2187,-5.2734,-5.2851,-5.3594,-5.4101,-5.418,-5.4922,-5.5351,-5.5312,-5.4492,-5.3945,-5.3828,-5.3047,-5.2617,-5.2617,-5.3398,-5.3828,-5.3906,-5.3906,-5.4336,-5.5195,-5.5273,-5.5703,-5.6523,-5.6562,-5.6172,-4.6355,-4.7317,-4.8509,-5.025,-5.0587,0.0,0.0,-5.328,-5.3972,-5.4626,-5.4664,-5.4713,-5.5011,-5.6126,-5.7434,-5.8819,-6.0319,-6.1166,-6.0858,-6.0781,-6.0781,-6.0781,-6.0781,-6.0781,-6.0781,-6.0781,-6.0781,-6.0781,-6.0781,-6.0781,-6.0781,-6.0781,-6.0834,-6.0935,-6.0952,-6.1065,-6.1193,-6.1256,-6.1027,-6.0521,-6.1028,-6.1011,-6.0472,-5.9524,-5.8726,-5.8028,-5.7025,-5.6601,-5.6601,-5.6601,-5.6601,-5.6601,-5.6601,-5.6601,-5.6601,-5.6601,-5.6601,-5.6601,-5.6601,-5.6601,-5.6601,-5.6601,-5.6601,-5.6601,-5.6601,-5.6601,-5.6601,-5.6601,-5.6367,-5.5898,-5.5039,-5.4414,-5.3906,-5.3594,-5.3516,-5.3281,-5.2383,-5.2226,-5.2031,-5.1523,-5.1406,-5.1406,-5.1406,-5.1406,-5.1406,-5.1406,-5.168,-5.2109,-5.2617,-5.3008,-5.3398,-5.3945,-5.4297,-5.4492,-5.4492,-5.3672,-5.3203,-5.3203,-5.2891,-5.293,-5.3476,-5.3828,-5.4258,-5.4805,-5.4805,-5.5234,-5.6094,-5.6094,-5.6289,-5.6601,-5.6601,-5.6133,-4.5594,-4.6432,-4.7702,-4.9433,0.0,0.0,-5.3664,-5.5318,-5.6665,-5.7203,-5.7357,-5.7319,-5.706,-5.7445,-5.8165,-5.9319,-6.0473,-6.1089,-6.0819,-6.0781,-6.0781,-6.0781,-6.0781,-6.0781,-6.0781,-6.0781,-6.0781,-6.0781,-6.0781,-6.0781,-6.0781,-6.0834,-6.0895,-6.0997,-6.0856,-6.0825,-6.0965,-6.0769,-6.0419,-5.9892,-6.0317,-6.0239,-5.9736,-5.909,-5.8394,-5.7668,-5.6911,-5.6601,-5.6601,-5.6601,-5.6601,-5.6601,-5.6601,-5.6601,-5.6601,-5.6601,-5.6601,-5.6601,-5.6601,-5.6601,-5.6601,-5.6601,-5.6601,-5.6601,-5.6601,-5.6601,-5.6601,-5.6601,-5.6601,-5.6445,-5.5859,-5.5273,-5.4765,-5.4492,-5.4414,-5.418,-5.3281,-5.3125,-5.2851,-5.1992,-5.1797,-5.1719,-5.1445,-5.1406,-5.1406,-5.1406,-5.1406,-5.1601,-5.2226,-5.2305,-5.2617,-5.3516,-5.3594,-5.3711,-5.3984,-5.3203,-5.2812,-5.3086,-5.3125,-5.3398,-5.3984,-5.4531,-5.5117,-5.5703,-5.5703,-5.6015,-5.6601,-5.6601,-5.6601,-5.6601,-5.6328,-5.5859,-4.5594,-4.5633,-4.6056,-4.774,0.0,0.0,-5.5164,-5.7088,-5.8819,-6.0473,-5.9473,-5.805,-5.7176,-5.8396,-5.9511,-5.9511,-6.0973,-6.1793,-6.0935,-6.0781,-6.0781,-6.0781,-6.0781,-6.0781,-6.0781,-6.0781,-6.0781,-6.0781,-6.0781,-6.0781,-6.0793,-6.0945,-6.1006,-6.1006,-6.0492,-6.0213,-6.0174,-5.9315,-5.8996,-5.918,-5.8996,-5.8998,-5.914,-5.8281,-5.789,-5.7851,-5.6953,-5.6601,-5.6601,-5.6601,-5.6601,-5.6601,-5.6601,-5.6601,-5.6601,-5.6601,-5.6601,-5.6601,-5.6601,-5.6601,-5.6601,-5.6601,-5.6601,-5.6601,-5.6601,-5.6601,-5.6601,-5.6601,-5.6601,-5.6601,-5.6601,-5.6601,-5.6367,-5.5508,-5.5312,-5.5078,-5.4219,-5.4023,-5.375,-5.2891,-5.2695,-5.2422,-5.1562,-5.1406,-5.1406,-5.1406,-5.1406,-5.1406,-5.1406,-5.1406,-5.1719,-5.2617,-5.2695,-5.3047,-5.3906,-5.3203,-5.3047,-5.3945,-5.3984,-5.3984,-5.4023,-5.5664,-5.6601,-5.6601,-5.6601,-5.6601,-5.6601,-5.6601,-5.6601,-5.6562,-5.5703,-5.5273,-4.5787,-4.6903,-4.8663,-5.0346,0.0,0.0,0.0,-5.9704,0.0,0.0,-6.1166,-5.9242,-5.9588,-5.9588,-5.9511,-5.9511,-6.0435,-6.1089,-6.0819,-6.0781,-6.0781,-6.0781,-6.0781,-6.0781,-6.0781,-6.0781,-6.0781,-6.0781,-6.0781,-6.0845,-6.0925,-6.0961,-6.0825,-6.0468,-6.0265,-5.9963,-5.9486,-5.9253,-5.8826,-5.8281,-5.8239,-5.824,-5.8281,-5.8008,-5.7578,-5.6953,-5.6719,-5.6601,-5.6601,-5.6601,-5.6601,-5.6601,-5.6601,-5.6601,-5.6601,-5.6601,-5.6601,-5.6601,-5.6601,-5.6601,-5.6601,-5.6601,-5.6601,-5.6601,-5.6601,-5.6601,-5.6601,-5.6601,-5.6601,-5.6601,-5.6601,-5.6601,-5.6523,-5.6289,-5.6211,-5.5976,-5.5117,-5.4922,-5.4648,-5.3789,-5.3594,-5.3516,-5.3281,-5.2734,-5.2539,-5.3125,-5.2187,-5.1406,-5.1406,-5.1406,-5.1484,-5.1758,-5.1797,-5.2148,-5.3008,-5.2305,-5.2148,-5.3047,-5.3672,-5.4258,-5.4883,-5.6015,-5.6601,-5.6601,-5.6601,-5.6601,-5.6601,-5.5976,-5.5703,-5.5664,-5.4805,-5.4062,-4.7086,-4.8471,0.0,-5.201,-5.4318,-5.6973,-5.9858,0.0,0.0,-6.4243,-6.2704,-6.1089,-6.1281,-6.0896,-6.0435,-6.0089,-6.0473,-6.0781,-6.0781,-6.0781,-6.0781,-6.0781,-6.0781,-6.0781,-6.0781,-6.0781,-6.0781,-6.0781,-6.0856,-6.076,-6.0485,-6.0614,-6.0389,-5.9703,-5.9419,-5.9091,-5.8672,-5.8359,-5.789,-5.7383,-5.7383,-5.7383,-5.7383,-5.7383,-5.7109,-5.6601,-5.6601,-5.6601,-5.6601,-5.6601,-5.6601,-5.6601,-5.6601,-5.6601,-5.6601,-5.6601,-5.6601,-5.6601,-5.6601,-5.6601,-5.6601,-5.6601,-5.6601,-5.6601,-5.6601,-5.6601,-5.6601,-5.6601,-5.6601,-5.6601,-5.6601,-5.6601,-5.6601,-5.6601,-5.6601,-5.6445,-5.5937,-5.582,-5.5547,-5.4687,-5.4531,-5.4414,-5.4062,-5.3555,-5.3398,-5.3906,-5.3125,-5.2422,-5.2422,-5.2422,-5.2422,-5.2422,-5.2109,-5.2148,-5.2656,-5.1914,-5.1601,-5.2148,-5.3008,-5.3711,-5.4258,-5.543,-5.6094,-5.6094,-5.5742,-5.5586,-5.5586,-5.5039,-5.4765,-5.4765,-5.3906,-5.3398,-4.8971,-5.0164,-5.1356,-5.3203,-5.5588,0.0,-6.1485,-6.2216,-6.2666,-6.4282,-6.3858,-6.2974,-6.232,-6.2101,-6.1716,-6.0935,-6.0781,-6.0781,-6.0781,-6.0781,-6.0781,-6.0781,-6.0781,-6.0781,-6.0781,-6.0781,-6.0781,-6.0781,-6.0935,-6.0657,-5.9891,-6.0064,-5.9826,-5.8934,-5.8274,-5.7851,-5.7773,-5.6992,-5.6601,-5.6601,-5.6601,-5.6601,-5.6601,-5.6601,-5.6601,-5.6601,-5.6601,-5.6601,-5.6601,-5.6601,-5.6601,-5.6601,-5.6601,-5.6601,-5.6601,-5.6601,-5.6601,-5.6601,-5.6601,-5.6601,-5.6601,-5.6601,-5.6601,-5.6601,-5.6601,-5.6601,-5.6601,-5.6601,-5.6601,-5.6601,-5.6601,-5.6601,-5.6601,-5.6601,-5.6601,-5.6601,-5.6601,-5.6601,-5.6367,-5.5586,-5.543,-5.5156,-5.4375,-5.418,-5.4101,-5.4023,-5.4062,-5.4101,-5.4023,-5.3984,-5.3984,-5.3984,-5.3281,-5.2812,-5.2812,-5.2109,-5.1641,-5.1641,-5.2461,-5.2891,-5.2812,-5.4336,-5.5195,-5.5195,-5.4414,-5.3984,-5.3984,-5.3906,-5.3867,-5.3867,-5.3008,-5.3047,-4.9317,-5.101,0.0,0.0,-5.9127,-6.137,-6.2743,-6.3051,-6.3358,-6.4397,-6.3397,-6.2512,-6.2974,-6.1973,-6.1012,-6.0819,-6.0781,-6.0781,-6.0781,-6.0781,-6.0781,-6.0781,-6.0781,-6.0781,-6.0781,-6.0781,-6.0781,-6.0781,-6.0935,-6.0995,-6.0955,-6.046,-5.9887,-5.9176,-5.832,-5.7578,-5.6875,-5.668,-5.6601,-5.6601,-5.6601,-5.6601,-5.6601,-5.6601,-5.6601,-5.6601,-5.6601,-5.6601,-5.6601,-5.6601,-5.6601,-5.6601,-5.6601,-5.6601,-5.6601,-5.6601,-5.6601,-5.6601,-5.6601,-5.6601,-5.6601,-5.6601,-5.6601,-5.6601,-5.6601,-5.6601,-5.6601,-5.6601,-5.6601,-5.6601,-5.6601,-5.6601,-5.6601,-5.6601,-5.6601,-5.6601,-5.6601,-5.6601,-5.6523,-5.6367,-5.6328,-5.625,-5.6055,-5.5469,-5.4805,-5.4101,-5.457,-5.4765,-5.4101,-5.3984,-5.3984,-5.3984,-5.3828,-5.3711,-5.3711,-5.3555,-5.3437,-5.3437,-5.4258,-5.4414,-5.375,-5.4062,-5.4297,-5.4297,-5.4101,-5.3984,-5.3984,-5.332,-5.2969,-5.2969,-5.2109,-5.2148,-5.0664,0.0,0.0,-5.905,0.0,-6.2781,-6.3192,-6.3628,-6.4051,-6.4512,-6.3897,-6.3281,-6.332,-6.2281,-6.1293,-6.0858,-6.0781,-6.0781,-6.0781,-6.0781,-6.0781,-6.0781,-6.0781,-6.0781,-6.0781,-6.0781,-6.085,-6.0913,-6.1031,-6.1033,-6.0794,-6.011,-5.9367,-5.8594,-5.7734,-5.707,-5.6601,-5.6601,-5.6601,-5.6601,-5.6601,-5.6601,-5.6601,-5.6601,-5.6601,-5.6601,-5.6601,-5.6601,-5.6601,-5.6601,-5.6601,-5.6601,-5.6601,-5.6601,-5.6601,-5.6601,-5.6601,-5.6601,-5.6601,-5.6601,-5.6601,-5.6601,-5.6601,-5.6601,-5.6601,-5.6601,-5.6601,-5.6601,-5.6601,-5.6601,-5.6601,-5.6601,-5.6601,-5.6601,-5.6601,-5.6601,-5.6601,-5.6601,-5.6601,-5.6601,-5.6601,-5.6601,-5.6601,-5.6211,-5.5781,-5.5312,-5.5625,-5.5742,-5.5312,-5.5234,-5.5234,-5.5234,-5.4883,-5.4609,-5.4609,-5.4258,-5.3984,-5.3984,-5.4414,-5.4453,-5.4023,-5.3984,-5.3789,-5.3398,-5.2969,-5.2773,-5.2734,-5.2305,-5.207,-5.207,-5.2031,-5.2266,-5.1548,0.0,-5.6472,-6.1127,-6.2935,0.0,-6.3512,-6.4089,-6.4589,-6.4589,-6.4589,-6.432,-6.3474,-6.2627,-6.1831,-6.0935,-6.0781,-6.0781,-6.0781,-6.0781,-6.0781,-6.0781,-6.0781,-6.0781,-6.0781,-6.0781,-6.0867,-6.0979,-6.1193,-6.1037,-6.0444,-5.964,-5.8867,-5.8164,-5.7148,-5.6601,-5.6601,-5.6601,-5.6601,-5.6601,-5.6601,-5.6601,-5.6601,-5.6601,-5.6601,-5.6601,-5.6601,-5.6601,-5.6601,-5.6601,-5.6601,-5.6601,-5.6601,-5.6601,-5.6601,-5.6601,-5.6601,-5.6601,-5.6601,-5.6601,-5.6601,-5.6601,-5.6601,-5.6601,-5.6601,-5.6601,-5.6601,-5.6601,-5.6601,-5.6601,-5.6601,-5.6601,-5.6601,-5.6601,-5.6601,-5.6601,-5.6601,-5.6601,-5.6601,-5.6601,-5.6601,-5.6601,-5.6601,-5.6601,-5.6601,-5.6601,-5.6601,-5.6601,-5.6601,-5.6601,-5.6601,-5.6601,-5.5937,-5.5508,-5.5508,-5.4844,-5.4453,-5.4453,-5.4453,-5.4375,-5.4219,-5.4219,-5.3828,-5.293,-5.2226,-5.1836,-5.1836,-5.1836,-5.1836,-5.1875,-5.2578,-5.3008,-4.9548,0.0,-5.955,0.0,-6.3782,-6.4436,0.0,0.0,-6.4589,-6.4589,-6.4589,-6.432,-6.3474,-6.2627,-6.1831,-6.0935,-6.0781,-6.0781,-6.0781,-6.0781,-6.0781,-6.0781,-6.0781,-6.0781,-6.0781,-6.0781,-6.0867,-6.0979,-6.1193,-6.131,-6.1342,-5.9953,-5.914,-5.9023,-5.7461,-5.6601,-5.6601,-5.6601,-5.6601,-5.6601,-5.6601,-5.6601,-5.6601,-5.6601,-5.6601,-5.6601,-5.6601,-5.6601,-5.6601,-5.6601,-5.6601,-5.6601,-5.6601,-5.6601,-5.6601,-5.6601,-5.6601,-5.6601,-5.6601,-5.6601,-5.6601,-5.6601,-5.6601,-5.6601,-5.6601,-5.6601,-5.6601,-5.6601,-5.6601,-5.6601,-5.6601,-5.6601,-5.6601,-5.6601,-5.6601,-5.6601,-5.6601,-5.6601,-5.6601,-5.6601,-5.6601,-5.6601,-5.6601,-5.6601,-5.6601,-5.6601,-5.6601,-5.6601,-5.6601,-5.6601,-5.6601,-5.6601,-5.6484,-5.6445,-5.6445,-5.6328,-5.625,-5.625,-5.625,-5.5898,-5.5156,-5.5117,-5.4726,-5.3828,-5.3711,-5.3633,-5.3633,-5.3633,-5.3633,-5.3672,-5.3789,-5.4219,-5.0664,-5.5434,-6.0127,0.0,-6.3974,-6.4743,-6.5205,-6.532,-6.532,-6.532,-6.532,-6.4897,-6.3551,-6.2627,-6.1831,-6.0935,-6.0781,-6.0781,-6.0781,-6.0781,-6.0781,-6.0781,-6.0781,-6.0781,-6.0781,-6.0781,-6.0892,-6.115,-6.1246,-6.1383,-6.1587,-6.0506,-5.9687,-5.9219,-5.8476,-5.7578,-5.6601,-5.707,-5.707,-5.6601,-5.6601,-5.6601,-5.6601,-5.6601,-5.6601,-5.6601,-5.6601,-5.6601,-5.6601,-5.6601,-5.6601,-5.6601,-5.6601,-5.6601,-5.6601,-5.6601,-5.6601,-5.6601,-5.6601,-5.6601,-5.6601,-5.6601,-5.6601,-5.6601,-5.6601,-5.6601,-5.6601,-5.6601,-5.6601,-5.6601,-5.6601,-5.6601,-5.6601,-5.6601,-5.6601,-5.6601,-5.6601,-5.6601,-5.6601,-5.6601,-5.6601,-5.6601,-5.6601,-5.6601,-5.6601,-5.6601,-5.6601,-5.6601,-5.6601,-5.6601,-5.6601,-5.6601,-5.6601,-5.6601,-5.6601,-5.6601,-5.6601,-5.6601,-5.6601,-5.6445,-5.6055,-5.6015,-5.5859,-5.5469,-5.4492,-5.3984,-5.3984,-5.3984,-5.3984,-5.4023,-5.4492,-5.4922,-5.1048,-5.4857,-5.8242,-6.1012,-6.2858,-6.4205,0.0,-6.559,-6.5897,-6.5897,-6.5897,-6.5359,-6.3628,-6.282,-6.205,-6.0973,-6.0781,-6.0781,-6.0781,-6.0781,-6.0858,-6.1089,-6.0935,-6.0896,-6.1089,-6.0935,-6.0943,-6.1259,-6.1283,-6.1404,-6.1679,-6.0859,-6.0117,-5.9531,-5.9101,-5.8242,-5.6953,-5.7344,-5.7226,-5.6601,-5.6601,-5.6601,-5.6601,-5.6601,-5.6601,-5.6601,-5.6601,-5.6601,-5.6601,-5.6601,-5.6601,-5.6601,-5.6601,-5.6601,-5.6601,-5.6601,-5.6601,-5.6601,-5.6601,-5.6601,-5.6601,-5.6601,-5.6601,-5.6601,-5.6601,-5.6601,-5.6601,-5.6601,-5.6601,-5.6601,-5.6601,-5.6601,-5.6601,-5.6601,-5.6601,-5.6601,-5.6601,-5.6601,-5.6601,-5.6601,-5.6601,-5.6601,-5.6601,-5.6601,-5.6601,-5.6601,-5.6601,-5.6601,-5.6601,-5.6601,-5.6601,-5.6601,-5.6601,-5.6601,-5.6601,-5.6601,-5.6601,-5.6601,-5.6601,-5.6601,-5.6601,-5.6601,-5.6601,-5.6601,-5.5312,-5.4648,-5.4648,-5.4648,-5.4648,-5.4687,-5.5312,-5.5625,-4.8856,-5.0933,-5.3115,-5.6472,-5.9792,0.0,0.0,-6.4705,-6.5897,-6.5897,-6.5897,-6.5359,-6.3628,-6.3281,-6.2704,-6.105,-6.0781,-6.0781,-6.0781,-6.0781,-6.1089,-6.1947,-6.1281,-6.1127,-6.1947,-6.1293,-6.0943,-6.1259,-6.1283,-6.1404,-6.1679,-6.0859,-6.039,-6.0351,-5.8789,-5.793,-5.7812,-5.707,-5.664,-5.6601,-5.6601,-5.6601,-5.6601,-5.6601,-5.6601,-5.6601,-5.6601,-5.6601,-5.6601,-5.6601,-5.6601,-5.6601,-5.6601,-5.6601,-5.6601,-5.6601,-5.6601,-5.6601,-5.6601,-5.6601,-5.6601,-5.6601,-5.6601,-5.6601,-5.6601,-5.6601,-5.6601,-5.6601,-5.6601,-5.6601,-5.6601,-5.6601,-5.6601,-5.6601,-5.6601,-5.6601,-5.6601,-5.6601,-5.6601,-5.6601,-5.6601,-5.6601,-5.6601,-5.6601,-5.6601,-5.6601,-5.6601,-5.6601,-5.6601,-5.6601,-5.6601,-5.6601,-5.6601,-5.6601,-5.6601,-5.6601,-5.6601,-5.6601,-5.6601,-5.6601,-5.6601,-5.6601,-5.6601,-5.6601,-5.6523,-5.6445,-5.6445,-5.6445,-5.6445,-5.6484,-5.6523,-5.6523,-4.8856,-5.024,0.0,-5.5318,-5.7522,-5.9331,-6.1243,-6.2589,-6.3589,-6.4128,-6.4243,-6.3897,-6.2743,-6.2935,-6.2743,-6.105,-6.0781,-6.0781,-6.0781,-6.0781,-6.0935,-6.1243,-6.0973,-6.0935,-6.1243,-6.0973,-6.0943,-6.1259,-6.1283,-6.1404,-6.1679,-6.1406,-6.0976,-6.043,-5.9805,-5.8984,-5.789,-5.7031,-5.6601,-5.6601,-5.6601,-5.6601,-5.6601,-5.6601,-5.6601,-5.6601,-5.6601,-5.6601,-5.6601,-5.6601,-5.6601,-5.6601,-5.6601,-5.6601,-5.6601,-5.6601,-5.6601,-5.6601,-5.6601,-5.6601,-5.6601,-5.6601,-5.6601,-5.6601,-5.6601,-5.6601,-5.6601,-5.6601,-5.6601,-5.6601,-5.6601,-5.6601,-5.6758,-5.7305,-5.6992,-5.6758,-5.7305,-5.6992,-5.6601,-5.6601,-5.6601,-5.6601,-5.6601,-5.6601,-5.6601,-5.6601,-5.6601,-5.6601,-5.6601,-5.6601,-5.6601,-5.6601,-5.6601,-5.6601,-5.6601,-5.6601,-5.6601,-5.6601,-5.6601,-5.6601,-5.6601,-5.6601,-5.6601,-5.6601,-5.6601,-5.6601,-5.6601,-5.6601,-5.6601,-5.6601,-5.6601,-5.6601,-4.774,-4.874,0.0,0.0,-5.4664,-5.6165,-5.9588,-6.0819,-6.1627,-6.3012,-6.3308,-6.3051,-6.2255,-6.2551,-6.2435,-6.1012,-6.0781,-6.0781,-6.0781,-6.0781,-6.0896,-6.1204,-6.0973,-6.0896,-6.1204,-6.0973,-6.0943,-6.1259,-6.1283,-6.1404,-6.1679,-6.1406,-6.0742,-5.9609,-5.957,-5.8906,-5.7461,-5.6875,-5.6601,-5.6601,-5.6601,-5.6601,-5.6601,-5.6601,-5.6601,-5.6601,-5.6601,-5.6601,-5.6601,-5.6601,-5.6601,-5.6601,-5.6601,-5.6601,-5.6601,-5.6601,-5.6601,-5.6601,-5.6601,-5.6601,-5.6601,-5.6601,-5.6601,-5.6601,-5.6601,-5.6601,-5.6601,-5.6601,-5.6797,-5.7031,-5.7031,-5.7265,-5.7617,-5.8203,-5.789,-5.7617,-5.8203,-5.7422,-5.6601,-5.6601,-5.6601,-5.6601,-5.6601,-5.6601,-5.6601,-5.6601,-5.6601,-5.6601,-5.6601,-5.6601,-5.6601,-5.6601,-5.6601,-5.6601,-5.6601,-5.6601,-5.6601,-5.6601,-5.6601,-5.6601,-5.6601,-5.6601,-5.6601,-5.6601,-5.6601,-5.6601,-5.6601,-5.6601,-5.6601,-5.6601,-5.6601,-5.6601,0.0,0.0,0.0,0.0,0.0,0.0,-5.8088,-5.9281,-6.005,-6.2589,-6.3115,-6.2935,-6.2216,-6.2062,-6.1793,-6.0935,-6.0781,-6.0781,-6.0781,-6.0781,-6.1089,-6.1947,-6.132,-6.1127,-6.1985,-6.1281,-6.0943,-6.1259,-6.1283,-6.1404,-6.1679,-6.0859,-5.9648,-5.7969,-5.789,-5.7461,-5.6601,-5.6601,-5.6601,-5.6601,-5.6601,-5.6601,-5.6601,-5.6601,-5.6601,-5.6601,-5.6601,-5.6601,-5.6601,-5.6601,-5.6601,-5.6601,-5.6601,-5.6601,-5.6601,-5.6601,-5.6601,-5.6601,-5.6601,-5.6601,-5.6601,-5.6601,-5.6601,-5.6601,-5.6601,-5.6601,-5.664,-5.664,-5.7265,-5.793,-5.793,-5.8555,-5.9219,-5.9219,-5.9219,-5.9219,-5.9219,-5.789,-5.668,-5.668,-5.668,-5.668,-5.664,-5.664,-5.664,-5.6601,-5.6601,-5.6601,-5.6601,-5.6601,-5.6601,-5.6601,-5.6601,-5.6601,-5.6601,-5.6601,-5.6601,-5.6601,-5.6601,-5.6601,-5.6601,-5.6601,-5.6601,-5.6601,-5.6601,-5.6601,-5.6601,-5.6601,-5.6601,-5.6601,-5.6601,-5.6601,-4.5518,0.0,0.0,0.0,0.0,0.0,-5.251,-5.4087,-5.5665,-5.8204,-5.9242,-5.9973,-6.0973,-6.1166,-6.1089,-6.0819,-6.0781,-6.0781,-6.0781,-6.0781,-6.0896,-6.1127,-6.0935,-6.0896,-6.1127,-6.0935,-6.0943,-6.1259,-6.1283,-6.1404,-6.1679,-6.0859,-5.9648,-5.7969,-5.789,-5.7461,-5.6601,-5.6601,-5.6601,-5.6601,-5.6601,-5.6601,-5.6601,-5.6601,-5.6601,-5.6601,-5.6601,-5.6601,-5.6601,-5.6601,-5.6601,-5.6601,-5.6601,-5.6601,-5.6601,-5.6601,-5.6601,-5.6601,-5.6601,-5.6601,-5.6601,-5.6601,-5.6601,-5.6601,-5.6601,-5.7031,-5.7539,-5.7539,-5.8164,-5.8828,-5.8828,-5.9023,-5.9336,-5.9922,-5.9609,-5.9375,-5.9922,-5.9219,-5.8476,-5.8476,-5.8476,-5.8281,-5.7656,-5.7539,-5.7344,-5.668,-5.6601,-5.6601,-5.6601,-5.6601,-5.6601,-5.6601,-5.6601,-5.6601,-5.6601,-5.6601,-5.6601,-5.6601,-5.6601,-5.6601,-5.6601,-5.6601,-5.6601,-5.6601,-5.6601,-5.6601,-5.6601,-5.6601,-5.6601,-5.6601,-5.6601,-5.6601,-4.5518,-4.5594,-4.5902,-4.7086,0.0,0.0,-5.101,-5.2202,-5.3472,-5.6406,-5.7396,-5.828,-5.9935,-5.9973,-5.9973,-6.0704,-6.0781,-6.0781,-6.0781,-6.0781,-6.0781,-6.0781,-6.0781,-6.0781,-6.0781,-6.0781,-6.0943,-6.1259,-6.1283,-6.1093,-6.0664,-6.0195,-5.9101,-5.7422,-5.7344,-5.7109,-5.6601,-5.6601,-5.6601,-5.6601,-5.6601,-5.6601,-5.6601,-5.6601,-5.6601,-5.6601,-5.6601,-5.6601,-5.6601,-5.6601,-5.6601,-5.6601,-5.6601,-5.6601,-5.6601,-5.6601,-5.6601,-5.6601,-5.6601,-5.6601,-5.6601,-5.6601,-5.6601,-5.668,-5.7031,-5.75,-5.7969,-5.8359,-5.9062,-5.9765,-6.0156,-6.0234,-6.0351,-6.082,-6.0586,-6.0351,-6.0859,-6.0586,-6.0039,-5.9336,-5.9219,-5.9023,-5.8515,-5.8437,-5.8281,-5.7773,-5.7383,-5.7148,-5.7148,-5.6836,-5.6601,-5.6601,-5.6601,-5.6601,-5.6601,-5.6601,-5.6601,-5.6601,-5.6601,-5.6601,-5.6601,-5.6601,-5.6601,-5.6601,-5.6601,-5.6601,-5.6601,-5.6601,-5.6601,-5.6601,-5.6601,-5.6601,-4.5441,-4.5594,-4.5979,-4.7432,-4.6778,0.0,-5.1356,-5.1885,-5.2356,-5.5521,-5.6242,-5.6808,-5.8511,-5.828,-5.8319,-5.9742,-6.0281,-6.0589,-6.0781,-6.0781,-6.0781,-6.0781,-6.0781,-6.0781,-6.0781,-6.0781,-6.0943,-6.1259,-6.1318,-6.0726,-5.9296,-5.9219,-5.8398,-5.664,-5.6601,-5.6601,-5.6601,-5.6601,-5.6601,-5.6601,-5.6601,-5.6601,-5.6601,-5.6601,-5.6601,-5.6601,-5.6601,-5.6601,-5.6601,-5.6601,-5.6601,-5.6601,-5.6601,-5.6601,-5.6601,-5.6601,-5.6601,-5.6601,-5.6601,-5.6601,-5.6601,-5.6601,-5.6601,-5.6758,-5.7656,-5.7969,-5.8242,-5.9219,-6.0,-6.0703,-6.1484,-6.1719,-6.1719,-6.1719,-6.1719,-6.1719,-6.1719,-6.1719,-6.125,-5.9765,-5.9492,-5.9453,-5.9336,-5.9336,-5.9297,-5.9219,-5.8555,-5.8008,-5.789,-5.7226,-5.6719,-5.6601,-5.6601,-5.6601,-5.6601,-5.6601,-5.6601,-5.6601,-5.6601,-5.6601,-5.6601,-5.6601,-5.6601,-5.6601,-5.6601,-5.6601,-5.6601,-5.6601,-5.6601,-5.6601,-5.6601,-5.6601,-4.5748,-4.5594,-4.5671,-4.6018,-4.6355,0.0,-4.7009,-4.7971,-4.924,-5.0587,-5.1433,-5.2433,-5.4126,-5.4857,-5.5126,-5.4741,-5.7011,-5.9242,-6.0589,-6.0781,-6.0781,-6.0781,-6.0781,-6.0781,-6.0781,-6.0781,-6.0943,-6.1259,-6.1504,-6.0894,-5.9297,-5.9219,-5.8398,-5.664,-5.6601,-5.6601,-5.6601,-5.6601,-5.6601,-5.6601,-5.6601,-5.6601,-5.6601,-5.6601,-5.6601,-5.6601,-5.6601,-5.6601,-5.6601,-5.6601,-5.6601,-5.6601,-5.6601,-5.6601,-5.6601,-5.6601,-5.6601,-5.6601,-5.6601,-5.6601,-5.6601,-5.6601,-5.6601,-5.6758,-5.7656,-5.8398,-5.9258,-6.0781,-6.1328,-6.1484,-6.164,-6.1719,-6.1719,-6.1719,-6.1719,-6.1719,-6.1719,-6.1719,-6.1601,-6.1289,-6.1211,-6.0976,-6.0273,-6.0156,-5.9961,-5.9297,-5.9062,-5.8672,-5.8008,-5.7734,-5.7383,-5.668,-5.6601,-5.6601,-5.6601,-5.6601,-5.6601,-5.6601,-5.6601,-5.6601,-5.6601,-5.6601,-5.6601,-5.6601,-5.6601,-5.6601,-5.6601,-5.6601,-5.6601,-5.6601,-5.6601,-5.6601,-4.5941,-4.5594,-4.571,-4.6124,-4.624,0.0,0.0,-4.7509,-4.8355,-4.9202,-4.974,-5.0548,-5.2241,-5.2587,-5.2895,-5.3703,-5.5626,-5.728,-5.8127,-5.9704,-6.0781,-6.0781,-6.0781,-6.0781,-6.0781,-6.0839,-6.1053,-6.1373,-6.1582,-6.0976,-5.9297,-5.9219,-5.8398,-5.664,-5.6601,-5.6601,-5.6601,-5.6601,-5.6601,-5.6601,-5.7031,-5.7265,-5.7265,-5.7695,-5.7656,-5.7265,-5.7265,-5.6992,-5.6601,-5.6601,-5.6601,-5.6601,-5.6601,-5.6601,-5.6601,-5.6601,-5.6601,-5.6601,-5.6601,-5.6601,-5.6601,-5.6601,-5.6875,-5.7422,-5.8281,-5.9453,-6.0625,-6.1445,-6.1719,-6.1719,-6.1719,-6.1719,-6.1719,-6.1719,-6.1719,-6.1719,-6.1719,-6.1719,-6.1719,-6.1719,-6.1719,-6.1562,-6.1133,-6.1055,-6.0898,-6.0508,-6.0078,-5.9492,-5.8672,-5.8164,-5.7578,-5.668,-5.6601,-5.6601,-5.6601,-5.6601,-5.6601,-5.6601,-5.6601,-5.6601,-5.6601,-5.6601,-5.6601,-5.6601,-5.6601,-5.6601,-5.6601,-5.6601,-5.6601,-5.6601,-5.6601,-5.6601,-4.698,-4.6595,-4.6672,-4.7048,-4.674,-4.6556,0.0,0.0,0.0,-4.8548,-4.8663,-4.9086,-5.0433,-5.0279,-5.0587,-5.2472,-5.3895,-5.4664,-5.4511,-5.728,-5.9511,-6.0012,-6.0204,-6.0358,-6.0512,-6.0548,-6.0805,-6.1428,-6.1316,-6.0703,-5.9492,-5.9297,-5.8476,-5.6914,-5.668,-5.6601,-5.6601,-5.6758,-5.6836,-5.6875,-5.7734,-5.8164,-5.8164,-5.8867,-5.8711,-5.789,-5.789,-5.7422,-5.6601,-5.6601,-5.6601,-5.6601,-5.6601,-5.6601,-5.6601,-5.6601,-5.6601,-5.6601,-5.6601,-5.6601,-5.664,-5.6797,-5.7539,-5.8515,-5.9219,-6.0508,-6.1719,-6.1719,-6.1719,-6.1719,-6.1719,-6.1719,-6.1719,-6.1719,-6.1719,-6.1719,-6.1719,-6.1719,-6.1719,-6.1719,-6.1719,-6.1719,-6.1719,-6.1719,-6.1719,-6.1719,-6.1094,-6.0351,-5.9531,-5.8828,-5.8008,-5.6953,-5.6836,-5.6797,-5.6601,-5.6601,-5.668,-5.6836,-5.668,-5.668,-5.6836,-5.6836,-5.6836,-5.6836,-5.6836,-5.6836,-5.6836,-5.668,-5.6601,-5.6601,-5.6601,-5.6601,-5.0356,-5.0135,-4.9788,-4.8317,-4.8471,-4.8432,-4.6364,0.0,-4.6855,-4.6172,0.0,-4.6095,-4.6287,0.0,0.0,-4.671,-4.925,-5.102,-5.0202,-5.2395,-5.4895,-5.7176,-5.8127,-5.8858,-5.9588,-5.9241,-5.9625,-6.119,-6.0165,-5.9726,-6.0234,-5.9609,-5.875,-5.7773,-5.6992,-5.6601,-5.6601,-5.7383,-5.7734,-5.7773,-5.8633,-5.9062,-5.9062,-5.914,-5.8711,-5.789,-5.789,-5.7422,-5.6601,-5.6601,-5.6601,-5.6601,-5.6601,-5.6601,-5.6601,-5.6601,-5.6601,-5.6601,-5.6601,-5.6601,-5.6719,-5.75,-5.8828,-6.0117,-6.0234,-6.0937,-6.1719,-6.1719,-6.1719,-6.1719,-6.1719,-6.1719,-6.1719,-6.1719,-6.1719,-6.1719,-6.1719,-6.1719,-6.1719,-6.1719,-6.1719,-6.1719,-6.1719,-6.1719,-6.1719,-6.1719,-6.1601,-6.125,-6.0351,-6.0195,-5.9492,-5.793,-5.7734,-5.7422,-5.668,-5.6601,-5.6914,-5.7695,-5.7031,-5.6953,-5.7734,-5.7734,-5.7734,-5.7734,-5.7734,-5.7734,-5.7734,-5.6992,-5.6601,-5.6601,-5.6601,-5.6601,-4.9937,-4.9789,-4.9866,-4.8651,-4.8619,-4.8464,-4.6907,-4.6435,-4.6203,-4.586,0.0,0.0,0.0,0.0,0.0,0.0,-4.7932,-4.9048,-4.8702,-5.0433,-5.251,-5.4549,-5.5126,-5.575,-5.6722,-5.7075,-5.7848,-5.9209,-5.9252,-5.9336,-5.9687,-5.9844,-5.9297,-5.793,-5.7539,-5.7344,-5.7344,-5.7734,-5.8164,-5.8672,-5.9492,-5.9883,-5.9922,-6.043,-5.9922,-5.8633,-5.8633,-5.7851,-5.6601,-5.6601,-5.6601,-5.6601,-5.6601,-5.6601,-5.6601,-5.6601,-5.6601,-5.6601,-5.6601,-5.6601,-5.6836,-5.8203,-5.9453,-6.0508,-6.1015,-6.1406,-6.1719,-6.1719,-6.1719,-6.1719,-6.1719,-6.1719,-6.1719,-6.1719,-6.1719,-6.1719,-6.1719,-6.1719,-6.1719,-6.1719,-6.1719,-6.1719,-6.1719,-6.1719,-6.1719,-6.1719,-6.1719,-6.1406,-6.0508,-6.039,-5.9765,-5.8086,-5.8359,-5.8281,-5.7422,-5.7812,-5.8242,-5.8633,-5.832,-5.8281,-5.8633,-5.8633,-5.8633,-5.8633,-5.8633,-5.8633,-5.8633,-5.8281,-5.8125,-5.8086,-5.7578,-5.7617,-5.1108,-5.0918,-5.0879,-4.9542,-4.9036,-4.8496,-4.7163,-4.6735,-4.6545,-4.6312,-4.659,0.0,0.0,0.0,-4.6515,-4.6924,0.0,-4.775,-4.7499,-4.857,-5.0046,-5.1943,-5.2608,-5.3207,-5.405,-5.4562,-5.5564,-5.7336,-5.7656,-5.8281,-5.9453,-5.9883,-5.9609,-5.8633,-5.8359,-5.8242,-5.8242,-5.8476,-5.8906,-5.9531,-6.0351,-6.0742,-6.0781,-6.1406,-6.0898,-5.9531,-5.9297,-5.8359,-5.6953,-5.6719,-5.6601,-5.6601,-5.6601,-5.6601,-5.6601,-5.6601,-5.6758,-5.6953,-5.6953,-5.7265,-5.7851,-5.9101,-6.0078,-6.0859,-6.1523,-6.1719,-6.1719,-6.1719,-6.1719,-6.1719,-6.1719,-6.1719,-6.1719,-6.1719,-6.1719,-6.1719,-6.1719,-6.1719,-6.1719,-6.1719,-6.1719,-6.1719,-6.1719,-6.1719,-6.1719,-6.1719,-6.1719,-6.1484,-6.0859,-6.0742,-6.0195,-5.875,-5.914,-5.918,-5.832,-5.8828,-5.9219,-5.9219,-5.9414,-5.9414,-5.9219,-5.9414,-5.9531,-5.9531,-5.9531,-5.9531,-5.9531,-5.9297,-5.9297,-5.9492,-5.8633,-5.8594,-5.5997,-5.5374,-5.4124,-5.1634,-5.0388,-4.91,-4.6541,-4.7211,-4.8193,-4.7332,-4.8505,-4.9404,-4.8578,-4.8422,-4.8145,-4.7319,-4.7202,0.0,0.0,-4.5925,-4.6822,-4.923,-5.1087,-5.2129,-5.2183,-5.1682,-5.2782,-5.6188,-5.5031,-5.5976,-6.0156,-5.9648,-5.957,-6.0312,-5.957,-5.914,-5.914,-5.9922,-6.0312,-6.0351,-6.125,-6.164,-6.164,-6.168,-6.1211,-6.0312,-5.9531,-5.8672,-5.7773,-5.6953,-5.6601,-5.6601,-5.6601,-5.6601,-5.6601,-5.6601,-5.7148,-5.7851,-5.7851,-5.8906,-6.0273,-6.0351,-6.0937,-6.164,-6.168,-6.1719,-6.1719,-6.1719,-6.1719,-6.1719,-6.1719,-6.1719,-6.1719,-6.1719,-6.1719,-6.1719,-6.1719,-6.1719,-6.1719,-6.1719,-6.1719,-6.1719,-6.1719,-6.1719,-6.1719,-6.1719,-6.1719,-6.168,-6.164,-6.164,-6.1328,-6.043,-6.0351,-6.0039,-5.9219,-5.918,-5.9219,-5.9219,-5.9922,-6.0,-5.9219,-5.9961,-6.0351,-6.0351,-6.0351,-6.0351,-6.0351,-5.957,-5.9609,-6.0351,-5.9531,-5.918,-5.5601,-5.5406,-5.4664,-5.2672,-5.1501,-5.0173,-4.7596,-4.791,-4.8693,-4.8379,-4.9176,-4.985,-4.9538,-4.8943,-4.8193,-4.7332,-4.7211,-4.6887,0.0,-4.5857,-4.6185,-4.6983,-4.8043,-4.8794,-4.8985,-4.9328,-5.0547,-5.292,-5.3124,-5.4531,-5.7734,-5.8711,-5.9336,-5.9609,-5.9844,-6.0,-6.0,-6.0273,-6.0703,-6.125,-6.1562,-6.1719,-6.1719,-6.1719,-6.1211,-6.039,-6.0117,-5.9531,-5.8672,-5.7812,-5.7461,-5.7383,-5.6836,-5.6953,-5.7461,-5.7461,-5.7656,-5.7969,-5.8555,-5.9492,-6.039,-6.039,-6.0976,-6.1719,-6.1719,-6.1719,-6.1719,-6.1719,-6.1719,-6.1719,-6.1719,-6.1719,-6.1719,-6.1719,-6.1719,-6.1719,-6.1719,-6.1719,-6.1719,-6.1719,-6.1719,-6.1719,-6.1719,-6.1719,-6.1719,-6.1719,-6.1719,-6.1719,-6.1719,-6.1719,-6.1367,-6.0508,-6.0937,-6.0937,-6.0078,-6.0508,-6.0859,-6.0859,-6.1094,-6.1133,-6.0859,-6.1133,-6.125,-6.125,-6.125,-6.125,-6.125,-6.0976,-6.0976,-6.125,-6.0976,-6.0859,-5.6211,-5.6211,-5.5898,-5.4453,-5.3437,-5.2187,-4.9922,-5.0312,-5.1016,-5.0391,-5.0894,-5.1429,-5.1429,-5.0156,-4.8917,-4.8368,-4.7744,-4.7031,0.0,-4.5944,-4.5935,-4.5971,-4.6376,-4.6857,-4.7333,-4.7666,-4.8818,-5.1211,-5.1641,-5.3086,-5.5976,-5.7773,-5.8867,-5.918,-6.0273,-6.0859,-6.0859,-6.0859,-6.1133,-6.1719,-6.1719,-6.1719,-6.1719,-6.1719,-6.1406,-6.0859,-6.0547,-6.0117,-5.9531,-5.8398,-5.789,-5.7851,-5.7265,-5.7422,-5.789,-5.789,-5.8281,-5.8906,-5.9805,-6.043,-6.0859,-6.0859,-6.125,-6.1719,-6.1719,-6.1719,-6.1719,-6.1719,-6.1719,-6.1719,-6.1719,-6.1719,-6.1719,-6.1719,-6.1719,-6.1719,-6.1719,-6.1719,-6.1719,-6.1719,-6.1719,-6.1719,-6.1719,-6.1719,-6.1719,-6.1719,-6.1719,-6.1719,-6.1719,-6.1719,-6.1484,-6.0937,-6.1367,-6.1484,-6.0898,-6.1367,-6.1719,-6.1719,-6.1719,-6.1719,-6.1719,-6.1719,-6.1719,-6.1719,-6.1719,-6.1719,-6.1719,-6.1719,-6.1719,-6.1719,-6.1719,-6.1719]},{"header":{"parameterUnit":"m.s-1","parameterCategory":1,"la1":30.6,"la2":29.2853,"lo1":-89.7004,"lo2":-87.6739,"dy":0.0162,"dx":0.0183,"nx":112,"ny":82,"refTime":"2026-05-04T00:00:00:Z","depth":0,"parameterNumber":3,"parameterNumberName":"V-component_of_WINDS"},"data":[0.0,0.0,0.0,0.0,0.0,0.0,0.0,0.0,0.0,0.0,0.0,0.0,0.0,0.0,0.0,0.0,0.0,0.0,0.0,0.0,0.0,0.0,0.0,0.0,0.0,0.0,0.0,0.0,0.0,0.0,0.0,0.0,0.0,0.0,0.0,0.0,0.0,0.0,0.0,0.0,0.0,0.0,0.0,0.0,0.0,0.0,0.0,0.0,0.0,0.0,0.0,0.0,0.0,0.0,0.0,0.0,0.0,0.0,0.0,0.0,0.0,0.0,0.0,0.0,0.0,0.0,0.0,0.0,0.0,0.0,0.0,0.0,0.0,0.0,0.0,0.0,0.0,0.0,0.0,0.0,0.0,0.0,0.0,0.0,0.0,0.0,0.0,0.0,0.0,0.0,-0.9076,-0.8986,-0.951,-0.9774,-0.9652,-0.9578,-0.9313,-0.8777,0.0,0.0,0.0,0.0,0.0,0.0,0.0,0.0,0.0,0.0,0.0,0.0,0.0,0.0,0.0,0.0,0.0,0.0,0.0,0.0,0.0,0.0,0.0,0.0,0.0,0.0,0.0,0.0,0.0,0.0,0.0,0.0,0.0,0.0,0.0,0.0,0.0,0.0,0.0,0.0,0.0,0.0,0.0,0.0,0.0,0.0,0.0,0.0,0.0,0.0,0.0,0.0,0.0,0.0,0.0,0.0,0.0,0.0,0.0,0.0,0.0,0.0,0.0,0.0,0.0,0.0,0.0,0.0,0.0,0.0,0.0,0.0,0.0,0.0,0.0,0.0,0.0,0.0,0.0,0.0,0.0,0.0,0.0,0.0,0.0,0.0,0.0,0.0,0.0,0.0,0.0,0.0,0.0,0.0,0.0,0.0,0.0,0.0,0.0,0.0,0.0,0.0,0.0,0.0,-0.8967,-0.9456,-0.9693,-0.9815,-0.9788,-0.9442,-0.913,-0.8865,0.0,0.0,0.0,0.0,0.0,0.0,0.0,0.0,0.0,0.0,0.0,0.0,0.0,0.0,0.0,0.0,0.0,0.0,0.0,0.0,0.0,0.0,0.0,0.0,0.0,0.0,0.0,0.0,0.0,0.0,0.0,0.0,0.0,0.0,0.0,0.0,0.0,0.0,0.0,0.0,0.0,0.0,0.0,0.0,0.0,0.0,0.0,0.0,0.0,0.0,0.0,0.0,0.0,0.0,0.0,0.0,0.0,0.0,0.0,0.0,0.0,0.0,0.0,0.0,0.0,0.0,0.0,0.0,0.0,0.0,0.0,0.0,0.0,0.0,0.0,0.0,0.0,0.0,0.0,0.0,0.0,0.0,0.0,0.0,0.0,0.0,0.0,0.0,0.0,0.0,0.0,0.0,0.0,0.0,0.0,0.0,0.0,0.0,0.0,0.0,0.0,0.0,0.0,-0.8852,-0.9062,-0.9659,-0.9781,-0.9822,-0.9822,-0.949,-0.9178,-0.8898,-0.8716,0.0,0.0,0.0,0.0,0.0,0.0,0.0,0.0,0.0,0.0,0.0,0.0,0.0,0.0,0.0,0.0,0.0,0.0,0.0,0.0,0.0,0.0,0.0,0.0,0.0,0.0,0.0,0.0,0.0,0.0,0.0,0.0,0.0,0.0,0.0,0.0,0.0,0.0,0.0,0.0,0.0,0.0,0.0,0.0,0.0,0.0,0.0,0.0,0.0,0.0,0.0,0.0,0.0,0.0,0.0,0.0,0.0,0.0,0.0,0.0,0.0,0.0,0.0,0.0,0.0,0.0,0.0,0.0,0.0,0.0,0.0,0.0,0.0,0.0,0.0,0.0,0.0,0.0,0.0,0.0,0.0,0.0,0.0,0.0,0.0,0.0,0.0,0.0,0.0,0.0,0.0,0.0,0.0,0.0,0.0,0.0,0.0,0.0,0.0,0.0,0.0,0.0,-0.9171,-0.9286,-0.9768,-0.9822,-0.9822,-0.9822,-0.9517,-0.9218,-0.8898,-0.8621,0.0,0.0,0.0,0.0,0.0,0.0,0.0,0.0,0.0,0.0,0.0,0.0,0.0,0.0,0.0,0.0,0.0,0.0,0.0,0.0,0.0,0.0,0.0,0.0,0.0,0.0,0.0,0.0,0.0,0.0,0.0,0.0,0.0,0.0,0.0,0.0,0.0,0.0,0.0,0.0,0.0,0.0,0.0,0.0,0.0,0.0,0.0,0.0,0.0,0.0,0.0,0.0,0.0,0.0,0.0,0.0,0.0,0.0,0.0,0.0,0.0,0.0,0.0,0.0,0.0,0.0,0.0,0.0,0.0,0.0,0.0,0.0,0.0,0.0,0.0,0.0,0.0,0.0,0.0,0.0,0.0,0.0,0.0,0.0,0.0,0.0,0.0,0.0,0.0,0.0,0.0,0.0,0.0,0.0,0.0,0.0,0.0,0.0,0.0,0.0,0.0,0.0,-0.9313,-0.9632,-0.9802,-0.9822,-0.9822,-0.9822,-0.9422,-0.9103,-0.8892,-0.8526,0.0,0.0,0.0,0.0,0.0,0.0,0.0,0.0,0.0,0.0,0.0,0.0,0.0,0.0,0.0,0.0,0.0,0.0,0.0,0.0,0.0,0.0,0.0,0.0,0.0,0.0,0.0,0.0,0.0,0.0,0.0,0.0,0.0,0.0,0.0,0.0,0.0,0.0,0.0,0.0,0.0,0.0,0.0,0.0,0.0,0.0,0.0,0.0,0.0,0.0,0.0,0.0,0.0,0.0,0.0,0.0,0.0,0.0,0.0,0.0,0.0,0.0,0.0,0.0,0.0,0.0,0.0,0.0,0.0,0.0,0.0,0.0,0.0,0.0,0.0,0.0,0.0,0.0,0.0,0.0,0.0,0.0,0.0,0.0,0.0,0.0,0.0,0.0,0.0,0.0,0.0,0.0,0.0,0.0,0.0,0.0,0.0,0.0,0.0,0.0,0.0,0.0,-0.9245,-0.9557,-0.9795,-0.9822,-0.9788,-0.9693,-0.9449,-0.915,-0.8818,0.0,0.0,0.0,0.0,0.0,0.0,0.0,0.0,0.0,0.0,0.0,0.0,0.0,0.0,0.0,0.0,0.0,0.0,0.0,0.0,0.0,0.0,0.0,0.0,0.0,0.0,0.0,0.0,0.0,0.0,0.0,0.0,0.0,0.0,0.0,0.0,0.0,0.0,0.0,0.0,0.0,0.0,0.0,0.0,0.0,0.0,0.0,0.0,0.0,0.0,0.0,0.0,0.0,0.0,0.0,0.0,0.0,0.0,0.0,0.0,0.0,0.0,0.0,0.0,0.0,0.0,0.0,0.0,0.0,0.0,0.0,0.0,0.0,0.0,0.0,0.0,0.0,0.0,0.0,0.0,0.0,0.0,0.0,0.0,0.0,0.0,0.0,0.0,0.0,0.0,0.0,0.0,0.0,0.0,0.0,0.0,0.0,0.0,0.0,0.0,0.0,0.0,-0.8831,-0.9239,-0.9564,-0.9863,-0.9849,-0.9802,-0.9754,-0.9476,-0.9137,-0.8737,0.0,0.0,0.0,0.0,0.0,0.0,0.0,0.0,0.0,0.0,0.0,0.0,0.0,0.0,0.0,0.0,0.0,0.0,0.0,0.0,0.0,0.0,0.0,0.0,0.0,0.0,0.0,0.0,0.0,0.0,0.0,0.0,0.0,0.0,0.0,0.0,0.0,0.0,0.0,0.0,0.0,0.0,0.0,0.0,0.0,0.0,0.0,0.0,0.0,0.0,0.0,0.0,0.0,0.0,0.0,0.0,0.0,0.0,0.0,0.0,0.0,0.0,0.0,0.0,0.0,0.0,0.0,0.0,0.0,0.0,0.0,0.0,0.0,0.0,0.0,0.0,0.0,0.0,0.0,0.0,0.0,0.0,0.0,0.0,0.0,0.0,0.0,0.0,0.0,0.0,0.0,0.0,0.0,0.0,0.0,0.0,0.0,0.0,0.0,0.0,0.0,0.0,-0.8844,-0.9334,-0.9727,-0.9957,-0.9856,-0.9883,-0.997,-0.9496,-0.9084,0.0,0.0,0.0,0.0,0.0,0.0,0.0,0.0,0.0,0.0,0.0,0.0,0.0,0.0,0.0,0.0,0.0,0.0,0.0,0.0,0.0,0.0,0.0,0.0,0.0,0.0,0.0,0.0,0.0,0.0,0.0,0.0,0.0,0.0,0.0,0.0,0.0,0.0,0.0,0.0,0.0,0.0,0.0,0.0,0.0,0.0,0.0,0.0,0.0,0.0,0.0,0.0,0.0,0.0,0.0,0.0,0.0,0.0,0.0,0.0,0.0,0.0,0.0,0.0,0.0,0.0,0.0,0.0,0.0,0.0,0.0,0.0,0.0,0.0,0.0,0.0,0.0,0.0,0.0,0.0,0.0,0.0,0.0,0.0,0.0,0.0,0.0,0.0,0.0,0.0,0.0,0.0,0.0,0.0,0.0,0.0,0.0,0.0,0.0,0.0,0.0,0.0,0.0,-0.9028,-0.9578,-0.9889,-0.9977,-0.995,-0.9856,-0.9754,-0.9476,-0.9049,-0.8438,0.0,0.0,0.0,0.0,0.0,0.0,0.0,0.0,0.0,0.0,0.0,0.0,0.0,0.0,0.0,0.0,0.0,0.0,0.0,0.0,0.0,0.0,0.0,0.0,0.0,0.0,0.0,0.0,0.0,0.0,0.0,0.0,0.0,0.0,0.0,0.0,0.0,0.0,0.0,0.0,0.0,0.0,0.0,0.0,0.0,0.0,0.0,0.0,0.0,0.0,0.0,0.0,0.0,0.0,0.0,0.0,0.0,0.0,0.0,0.0,0.0,0.0,0.0,0.0,0.0,0.0,0.0,0.0,0.0,0.0,0.0,0.0,0.0,0.0,0.0,0.0,0.0,0.0,0.0,0.0,0.0,0.0,0.0,0.0,0.0,0.0,0.0,0.0,0.0,0.0,0.0,0.0,0.0,0.0,0.0,0.0,0.0,0.0,0.0,0.0,0.0,0.0,-0.8994,-0.9537,-0.9944,-1.012,-0.997,-0.9849,-0.9795,-0.9537,-0.9089,-0.8397,0.0,0.0,0.0,0.0,0.0,0.0,0.0,0.0,0.0,0.0,0.0,0.0,0.0,0.0,0.0,0.0,0.0,0.0,0.0,0.0,0.0,0.0,0.0,0.0,0.0,0.0,0.0,0.0,0.0,0.0,0.0,0.0,0.0,0.0,0.0,0.0,0.0,0.0,0.0,0.0,0.0,0.0,0.0,0.0,0.0,0.0,0.0,0.0,0.0,0.0,0.0,0.0,0.0,0.0,0.0,0.0,0.0,0.0,0.0,0.0,0.0,0.0,0.0,0.0,0.0,0.0,0.0,0.0,0.0,0.0,0.0,0.0,0.0,0.0,0.0,0.0,0.0,0.0,0.0,0.0,0.0,0.0,0.0,0.0,0.0,0.0,0.0,0.0,0.0,0.0,0.0,0.0,0.0,0.0,0.0,0.0,0.0,0.0,0.0,0.0,0.0,0.0,-0.8659,-0.9129,-0.9498,-0.9766,-0.9565,-0.9455,-0.9682,-0.938,-0.8947,-0.8499,0.0,0.0,0.0,0.0,0.0,0.0,0.0,0.0,0.0,0.0,0.0,0.0,0.0,0.0,0.0,0.0,0.0,0.0,0.0,0.0,0.0,0.0,0.0,0.0,0.0,0.0,0.0,0.0,0.0,0.0,0.0,0.0,0.0,0.0,0.0,0.0,0.0,0.0,0.0,0.0,0.0,0.0,0.0,0.0,0.0,0.0,0.0,0.0,0.0,0.0,0.0,0.0,0.0,0.0,0.0,0.0,0.0,0.0,0.0,0.0,-0.8905,-0.8567,0.0,0.0,0.0,0.0,0.0,0.0,0.0,0.0,0.0,0.0,0.0,0.0,0.0,0.0,0.0,0.0,0.0,0.0,0.0,0.0,0.0,0.0,0.0,0.0,0.0,0.0,0.0,0.0,0.0,0.0,0.0,0.0,0.0,0.0,0.0,0.0,0.0,0.0,0.0,0.0,-0.7276,-0.7676,-0.7552,-0.6361,-0.6143,-0.6566,-0.7648,-0.7536,-0.7708,-0.8305,-0.7896,0.0,0.0,0.0,0.0,0.0,0.0,0.0,0.0,0.0,0.0,0.0,0.0,0.0,0.0,0.0,0.0,0.0,0.0,0.0,0.0,0.0,0.0,0.0,0.0,0.0,0.0,0.0,0.0,0.0,0.0,0.0,0.0,0.0,0.0,0.0,0.0,0.0,0.0,0.0,0.0,0.0,0.0,0.0,0.0,0.0,0.0,0.0,0.0,0.0,0.0,0.0,0.0,0.0,0.0,0.0,0.0,0.0,0.0,0.0,-0.9395,-0.913,0.0,0.0,0.0,0.0,0.0,0.0,0.0,0.0,0.0,0.0,0.0,0.0,0.0,0.0,0.0,0.0,0.0,0.0,0.0,0.0,0.0,0.0,0.0,0.0,0.0,0.0,0.0,0.0,0.0,0.0,0.0,0.0,0.0,0.0,0.0,0.0,0.0,0.0,0.0,0.0,-0.5781,-0.6039,-0.5978,-0.5206,-0.5053,-0.5295,-0.6013,-0.5915,-0.5964,-0.6307,-0.6509,0.0,0.0,0.0,0.0,0.0,0.0,0.0,0.0,0.0,0.0,0.0,0.0,0.0,0.0,0.0,0.0,0.0,0.0,0.0,0.0,0.0,0.0,0.0,0.0,0.0,0.0,0.0,0.0,0.0,0.0,0.0,0.0,0.0,0.0,0.0,0.0,0.0,0.0,0.0,0.0,0.0,0.0,0.0,0.0,0.0,0.0,0.0,0.0,0.0,0.0,0.0,0.0,0.0,-0.9917,-0.9951,-0.97,-0.9944,-1.0005,-0.9917,-0.989,-0.9774,-0.9585,-0.9232,0.0,0.0,0.0,0.0,0.0,0.0,0.0,0.0,0.0,0.0,0.0,0.0,0.0,0.0,0.0,0.0,0.0,0.0,0.0,0.0,0.0,0.0,-0.8703,-0.8804,-0.8927,-0.8838,-0.8187,0.0,0.0,0.0,0.0,0.0,0.0,0.0,0.0,0.0,0.0,0.0,-0.4166,-0.431,-0.4429,-0.4232,-0.4133,-0.4134,-0.4416,-0.4353,-0.4268,-0.4226,-0.4859,-0.509,0.0,0.0,0.0,0.0,0.0,0.0,0.0,0.0,0.0,0.0,0.0,0.0,0.0,0.0,0.0,0.0,0.0,0.0,0.0,0.0,0.0,0.0,0.0,0.0,0.0,0.0,0.0,0.0,0.0,0.0,0.0,0.0,-0.8574,-0.8438,0.0,0.0,0.0,0.0,0.0,0.0,0.0,0.0,0.0,0.0,0.0,0.0,0.0,-0.9544,-0.9578,-1.0243,-1.0432,-1.0168,-1.086,-1.109,-1.0928,-1.0968,-1.105,-1.1151,-1.1016,0.0,-0.9612,-0.968,0.0,0.0,0.0,0.0,0.0,0.0,0.0,0.0,0.0,0.0,0.0,0.0,0.0,0.0,0.0,0.0,0.0,0.0,0.0,0.0,0.0,0.0,-0.9429,-0.932,-0.9306,-0.9259,-0.9084,-0.8654,-0.8126,-0.7638,-0.757,-0.7119,0.0,0.0,0.0,0.0,0.0,0.0,-0.2501,-0.2634,-0.2295,-0.0848,-0.0666,-0.1194,-0.2428,-0.2532,-0.2997,-0.4134,-0.4078,-0.3959,-0.3758,-0.4529,0.0,0.0,0.0,0.0,0.0,0.0,0.0,0.0,0.0,0.0,0.0,0.0,0.0,0.0,0.0,0.0,0.0,0.0,0.0,0.0,0.0,0.0,0.0,0.0,0.0,0.0,0.0,0.0,0.0,-0.8479,-0.8621,-0.8391,-0.8567,-0.856,0.0,0.0,0.0,0.0,0.0,0.0,0.0,0.0,0.0,-1.0086,-1.0025,-1.0148,-1.048,-1.0894,-1.0989,-1.0778,-1.1192,-1.1307,-1.1234,-1.1234,-1.1199,-1.1253,-1.1104,-1.0785,-1.0351,-1.0161,-0.9863,-0.9503,0.0,0.0,0.0,0.0,-0.9205,-0.9225,-0.9496,-0.9578,-0.9478,-0.9367,0.0,0.0,0.0,0.0,0.0,0.0,0.0,-0.875,-0.894,-0.9232,-0.9503,-0.9605,-0.9632,-0.9347,-0.8254,-0.7822,-0.7696,-0.8042,-0.7434,-0.6562,-0.5551,-0.4835,0.0,0.0,0.0,-0.2346,-0.1059,-0.0987,-0.0832,-0.006,0.0,-0.0236,-0.092,-0.0976,-0.1188,-0.1805,-0.2358,-0.2635,-0.2584,-0.346,-0.3959,0.0,0.0,0.0,0.0,0.0,0.0,0.0,0.0,0.0,0.0,0.0,0.0,0.0,0.0,0.0,0.0,0.0,0.0,0.0,0.0,0.0,0.0,0.0,0.0,0.0,0.0,0.0,0.0,-0.8682,-0.8818,-0.8479,-0.8804,-0.8859,0.0,0.0,0.0,0.0,0.0,0.0,-0.9815,-0.9768,-1.0032,-1.0704,-1.0616,-1.0778,-1.1219,-1.1375,-1.1375,-1.1219,-1.1375,-1.1389,-1.128,-1.128,-1.128,-1.1267,-1.1084,-1.1002,-1.0968,-1.0521,-1.0202,-0.9964,-0.9713,-0.9612,-0.9618,-0.9693,-0.9673,-0.9673,-1.008,-1.0175,-1.008,-0.9897,-0.9761,-0.9544,-0.8906,0.0,0.0,0.0,0.0,-0.896,-0.9293,-0.9137,-0.8953,-0.9156,-0.8836,-0.8199,-0.6839,-0.6478,-0.6627,-0.7283,-0.6531,-0.5521,-0.4818,-0.3843,0.0,-0.1415,-0.1281,-0.1024,-0.0112,0.0,0.0,0.0,0.0,0.0,0.0,0.0,0.0,0.0,-0.0849,-0.1345,-0.1319,-0.2408,-0.2959,-0.2886,0.0,0.0,0.0,0.0,0.0,0.0,0.0,0.0,0.0,0.0,0.0,0.0,0.0,0.0,0.0,0.0,0.0,0.0,0.0,0.0,0.0,0.0,0.0,0.0,0.0,0.0,0.0,0.0,0.0,-0.8905,-0.9485,0.0,0.0,0.0,0.0,-0.9544,-0.97,-0.9978,-1.0426,-1.0575,-1.0867,-1.1328,-1.1341,-1.1348,-1.1382,-1.1531,-1.1531,-1.1382,-1.1538,-1.1606,-1.1599,-1.1599,-1.1599,-1.1579,-1.128,-1.1151,-1.1118,-1.0663,-1.0473,-1.0439,-1.029,-1.0236,-1.0215,-1.008,-1.0114,-1.0215,-1.01,-1.0154,-1.029,-1.0412,-1.0161,-0.9747,-0.9435,-0.9137,0.0,0.0,-0.9123,-0.9354,-0.9374,-0.8444,-0.753,-0.754,-0.6324,-0.51,-0.5035,-0.4794,-0.4586,-0.4431,-0.4344,-0.3871,-0.2434,0.0,-0.1599,-0.0258,-0.0105,-0.0054,0.0,0.0,0.0,0.0,0.0,0.0,0.0,0.0,0.0,0.0,-0.0054,-0.0106,-0.0104,-0.1247,-0.1823,-0.1707,-0.2685,0.0,0.0,0.0,0.0,0.0,0.0,0.0,0.0,0.0,0.0,0.0,0.0,0.0,0.0,0.0,0.0,0.0,0.0,0.0,0.0,0.0,0.0,0.0,0.0,0.0,0.0,0.0,0.0,-0.9401,-0.9944,0.0,-0.9632,-0.9673,-0.9856,-1.0154,-1.0317,-1.0595,-1.105,-1.1029,-1.1172,-1.1525,-1.1443,-1.1436,-1.1538,-1.1592,-1.1592,-1.1538,-1.1592,-1.1619,-1.1619,-1.1619,-1.1619,-1.1599,-1.1294,-1.1234,-1.1138,-1.0785,-1.0636,-1.0636,-1.0582,-1.0561,-1.0555,-1.05,-1.0514,-1.0555,-1.05,-1.0521,-1.0541,-1.0399,-1.0181,-0.9849,-0.9618,-0.9456,-0.9136,-0.802,-0.7844,-0.7692,-0.675,-0.615,-0.5774,-0.5774,-0.5345,-0.461,-0.3566,-0.33,-0.2867,-0.1737,-0.2205,-0.2633,-0.2226,-0.133,-0.0535,-0.0053,0.0,0.0,0.0,0.0,0.0,0.0,0.0,0.0,0.0,0.0,0.0,0.0,0.0,0.0,0.0,-0.0405,-0.0638,-0.0566,-0.1592,-0.2048,0.0,0.0,0.0,0.0,0.0,0.0,0.0,0.0,0.0,0.0,0.0,0.0,0.0,0.0,0.0,0.0,0.0,0.0,0.0,0.0,0.0,0.0,0.0,0.0,0.0,-0.9612,-0.9992,-0.9856,-1.0358,-1.0561,-1.0161,-1.0199,-1.0408,-1.0772,-1.0839,-1.1043,-1.145,-1.1321,-1.1355,-1.1613,-1.1518,-1.1518,-1.1619,-1.1619,-1.1619,-1.1619,-1.1619,-1.1619,-1.1619,-1.1619,-1.1619,-1.1599,-1.1294,-1.1234,-1.1138,-1.0839,-1.0717,-1.0717,-1.0717,-1.0717,-1.0717,-1.0717,-1.0717,-1.0717,-1.0717,-1.0656,-1.0541,-1.0344,-1.0175,-0.9943,-0.9754,-0.968,-0.9313,-0.7676,-0.7195,-0.6849,-0.533,-0.4487,-0.4119,-0.4119,-0.3628,-0.2954,-0.191,-0.163,-0.1302,-0.0236,-0.0746,-0.1334,-0.1468,-0.0657,0.0,0.0,0.0,0.0,0.0,0.0,0.0,0.0,0.0,0.0,0.0,0.0,0.0,0.0,0.0,0.0,0.0,0.0,0.0,0.0,-0.0684,-0.0995,-0.0884,0.0,0.0,0.0,0.0,0.0,0.0,0.0,0.0,0.0,0.0,0.0,0.0,0.0,0.0,0.0,0.0,0.0,0.0,0.0,0.0,0.0,0.0,0.0,-0.9625,-1.0134,-1.046,-1.0324,-1.0819,-1.1063,-1.0778,-1.0813,-1.1084,-1.1375,-1.1253,-1.1301,-1.1606,-1.1477,-1.1463,-1.1613,-1.1619,-1.1619,-1.1619,-1.1619,-1.1619,-1.1619,-1.1619,-1.1619,-1.1619,-1.1619,-1.1619,-1.1592,-1.1294,-1.1227,-1.12,-1.0839,-1.0717,-1.0717,-1.0717,-1.0717,-1.0717,-1.0717,-1.0717,-1.0711,-1.0711,-1.0521,-1.0283,-1.0276,-1.0175,-0.9957,-0.9808,-0.97,-0.939,-0.7728,-0.724,-0.6869,-0.5161,-0.3566,-0.2401,-0.2401,-0.1171,0.0,0.0,0.0,0.0,0.0,0.0,0.0,0.0,0.0,0.0,0.0,0.0,0.0,0.0,0.0,0.0,0.0,0.0,0.0,0.0,0.0,0.0,0.0,0.0,0.0,0.0,0.0,0.0,0.0,0.0,0.0,0.0,0.0,0.0,0.0,0.0,0.0,0.0,0.0,0.0,0.0,0.0,0.0,0.0,0.0,0.0,0.0,0.0,0.0,0.0,0.0,0.0,0.0,-0.97,-1.0059,-0.9883,-1.0381,-1.0846,-1.0914,-1.126,-1.1463,-1.1382,-1.1307,-1.1348,-1.1545,-1.1416,-1.1416,-1.1606,-1.1579,-1.1572,-1.1619,-1.1619,-1.1619,-1.1619,-1.1619,-1.1619,-1.1619,-1.1619,-1.1619,-1.1619,-1.1619,-1.1558,-1.1443,-1.1246,-1.1104,-1.0995,-1.0799,-1.0717,-1.0717,-1.0717,-1.0717,-1.0717,-1.0717,-1.0649,-1.0541,-1.0439,-1.0351,-1.0263,-1.0148,-1.0024,-0.9771,-0.8445,-0.8039,-0.7484,-0.4668,-0.3873,-0.3444,-0.1787,-0.1048,-0.0679,-0.0679,-0.0308,0.0,0.0,0.0,0.0,0.0,0.0,0.0,0.0,0.0,0.0,0.0,0.0,0.0,0.0,0.0,0.0,0.0,0.0,0.0,0.0,0.0,0.0,0.0,0.0,0.0,0.0,0.0,0.0,0.0,0.0,0.0,0.0,0.0,0.0,0.0,0.0,0.0,0.0,0.0,0.0,0.0,0.0,0.0,0.0,0.0,0.0,0.0,0.0,0.0,0.0,0.0,0.0,0.0,-1.0209,-1.0575,-1.0609,-1.0914,-1.1192,-1.1335,-1.1511,-1.1619,-1.1619,-1.1538,-1.1525,-1.1613,-1.1538,-1.1525,-1.1613,-1.1619,-1.1619,-1.1619,-1.1619,-1.1619,-1.1619,-1.1619,-1.1619,-1.1619,-1.1619,-1.1619,-1.1619,-1.1619,-1.1538,-1.1382,-1.1226,-1.1084,-1.0867,-1.0785,-1.0717,-1.0717,0.0,0.0,0.0,0.0,-1.0527,-1.0392,-1.031,-1.0195,-1.0086,-0.9997,-0.9943,-0.9623,-0.7933,-0.7423,-0.6686,-0.3444,-0.2524,-0.2094,-0.0432,0.0,0.0,0.0,0.0,0.0,0.0,0.0,0.0,0.0,0.0,0.0,0.0,0.0,0.0,0.0,0.0,0.0,0.0,0.0,0.0,0.0,0.0,0.0,0.0,0.0,0.0,0.0,0.0,0.0,0.0,0.0,0.0,0.0,0.0,0.0,0.0,0.0,0.0,0.0,-0.1627,-0.2159,0.0,0.0,0.0,0.0,0.0,0.0,0.0,0.0,0.0,0.0,0.0,0.0,0.0,0.0,0.0,0.0,-1.0697,-1.1097,-1.1375,-1.1416,-1.1463,-1.1579,-1.1606,-1.1613,-1.1592,-1.1606,-1.1619,-1.1619,-1.1619,-1.1619,-1.1619,-1.1619,0.0,0.0,0.0,-1.1619,-1.1619,-1.1619,-1.1619,-1.1619,-1.1619,-1.1619,-1.1619,-1.1619,-1.1525,-1.1355,-1.1219,-1.107,-1.0847,-1.0778,-1.0717,-1.0717,-1.0717,-1.0717,-1.0697,-1.0527,-1.0385,-1.0276,-1.0243,0.0,0.0,-0.9731,-0.9617,-0.9201,-0.7423,-0.6869,-0.6198,-0.3075,-0.2216,-0.1848,-0.037,0.0,0.0,0.0,0.0,0.0,0.0,0.0,0.0,0.0,0.0,0.0,0.0,0.0,0.0,0.0,0.0,0.0,0.0,0.0,0.0,0.0,0.0,0.0,0.0,0.0,0.0,0.0,0.0,0.0,0.0,0.0,0.0,0.0,0.0,0.0,0.0,0.0,0.0,0.0,0.0,-0.064,0.0,0.0,0.0,0.0,0.0,0.0,0.0,0.0,0.0,0.0,0.0,0.0,0.0,0.0,0.0,-1.0405,-1.0934,-1.1369,-1.1552,-1.1572,-1.1538,-1.1443,-1.1545,-1.1572,-1.145,-1.1545,-1.1619,-1.1619,-1.1619,-1.1619,-1.1619,-1.1619,-1.1619,-1.1619,-1.1619,-1.1619,-1.1619,-1.1619,-1.1619,-1.1619,-1.1619,0.0,-1.1619,-1.1619,-1.147,-1.1275,-1.1241,-1.1009,-1.0765,-1.0731,-1.0717,-1.0717,-1.0717,-1.0717,-1.069,-1.0419,-1.0304,-1.0243,-0.9998,-0.9869,-0.9579,-0.8311,-0.7872,-0.7301,-0.4361,-0.3444,0.0,-0.1048,-0.0494,-0.0432,-0.0062,0.0,0.0,0.0,0.0,0.0,0.0,0.0,0.0,0.0,0.0,0.0,0.0,0.0,0.0,0.0,0.0,0.0,0.0,0.0,0.0,0.0,0.0,0.0,0.0,0.0,0.0,0.0,0.0,0.0,0.0,0.0,0.0,0.0,0.0,0.0,0.0,0.0,0.0,0.0,0.0,-0.015,0.0,0.0,0.0,0.0,0.0,0.0,0.0,0.0,0.0,0.0,0.0,-0.9252,-0.9557,0.0,-1.0507,-1.088,-1.1192,-1.1443,-1.1599,-1.1619,-1.1592,-1.1511,-1.1572,-1.1592,-1.1511,-1.1572,-1.1619,-1.1619,-1.1619,-1.1619,-1.1619,-1.1619,-1.1619,-1.1619,-1.1619,-1.1619,-1.1619,-1.1619,-1.1619,-1.1619,-1.1619,-1.1619,-1.1619,-1.1538,-1.1382,-1.1158,-1.1084,-1.0928,-1.0717,-1.0717,-1.0717,-1.0717,-1.0717,-1.0717,-1.0683,-1.0392,-1.0283,-1.0236,-0.9924,-0.9822,-0.9694,-0.8836,-0.8039,-0.693,-0.4426,-0.3139,-0.2156,-0.0494,0.0,0.0,0.0,0.0,0.0,0.0,0.0,0.0,0.0,0.0,0.0,0.0,0.0,0.0,0.0,0.0,0.0,0.0,0.0,0.0,0.0,0.0,0.0,0.0,0.0,0.0,0.0,0.0,0.0,0.0,0.0,0.0,0.0,0.0,0.0,0.0,0.0,0.0,0.0,0.0,0.0,0.0,0.0,0.0,0.0,0.0,0.0,0.0,0.0,0.0,0.0,0.0,-0.8798,-0.913,-0.9435,-0.9802,-1.0317,-1.0548,-1.0826,-1.1314,-1.1416,-1.1477,-1.1599,-1.1619,-1.1619,-1.1619,-1.1619,-1.1606,-1.1579,-1.1599,-1.1619,-1.1619,-1.1619,-1.1619,-1.1619,-1.1619,-1.1619,-1.1619,-1.1619,-1.1619,-1.1619,-1.1619,-1.1619,-1.1619,-1.1619,-1.1606,-1.1572,-1.145,-1.1294,-1.1111,-1.0968,-1.0766,-1.0717,-1.0717,-1.0717,-1.0717,-1.0717,-1.0704,-1.0643,-1.0378,-1.0283,-1.0236,-0.9924,-0.9822,-0.97,-0.9086,-0.7978,-0.6564,-0.4548,-0.3016,-0.1725,-0.037,0.0,0.0,0.0,0.0,0.0,0.0,0.0,0.0,0.0,0.0,0.0,0.0,0.0,0.0,0.0,0.0,0.0,0.0,0.0,0.0,0.0,0.0,0.0,0.0,0.0,0.0,0.0,0.0,0.0,0.0,0.0,0.0,0.0,0.0,0.0,0.0,0.0,0.0,0.0,0.0,0.0,0.0,0.0,0.0,-0.7902,-0.7889,-0.8008,-0.8336,-0.852,-0.8777,0.0,0.0,-0.9605,-1.0039,-1.0365,-1.0629,-1.0766,-1.1104,-1.1314,-1.1382,-1.1504,-1.1599,-1.1619,-1.1619,-1.1619,-1.1619,-1.1619,-1.1565,-1.143,-1.1538,-1.1619,-1.1619,-1.1619,-1.1619,-1.1619,-1.1619,-1.1619,-1.1619,-1.1619,-1.1619,-1.1619,-1.1619,-1.1619,-1.1619,-1.1619,-1.1545,-1.1416,-1.1396,-1.124,-1.0894,-1.0812,-1.0738,-1.0717,-1.0717,-1.0717,-1.0717,-1.0717,-1.0636,-1.05,-1.0337,-1.0283,-1.0236,-0.9924,-0.9822,-0.9329,-0.6385,-0.5345,-0.461,-0.1479,-0.0432,-0.0247,-0.0062,0.0,0.0,0.0,0.0,0.0,0.0,0.0,0.0,0.0,0.0,0.0,0.0,0.0,0.0,0.0,0.0,0.0,0.0,0.0,0.0,0.0,0.0,0.0,0.0,0.0,0.0,0.0,0.0,0.0,0.0,0.0,0.0,0.0,0.0,0.0,0.0,0.0,0.0,0.0,0.0,0.0,0.0,0.0,0.0,-0.8126,-0.8248,-0.8499,-0.8798,-0.9055,-0.9347,-0.9768,-0.9802,-0.9992,-1.0446,-1.0704,-1.086,-1.1165,-1.1382,-1.1525,-1.1525,-1.1579,-1.1619,-1.1619,-1.1619,-1.1619,-1.1619,-1.1619,-1.1592,-1.1531,-1.1586,-1.1619,-1.1619,-1.1619,-1.1619,-1.1619,-1.1619,-1.1619,-1.1619,-1.1619,-1.1619,-1.1619,-1.1619,-1.1619,-1.1619,-1.1531,-1.145,-1.1389,-1.1212,-1.1016,-1.0812,-1.0751,-1.0717,-1.0717,-1.0717,-1.0717,-1.0717,-1.0717,-1.0629,-1.0473,-1.0331,-1.0222,-1.0114,-0.9897,-0.9201,-0.816,-0.6813,-0.5039,-0.3262,-0.1848,-0.0802,0.0,0.0,0.0,0.0,0.0,0.0,0.0,0.0,0.0,0.0,0.0,0.0,0.0,0.0,0.0,0.0,0.0,0.0,0.0,0.0,0.0,0.0,0.0,0.0,0.0,0.0,0.0,0.0,0.0,0.0,0.0,0.0,0.0,0.0,0.0,0.0,0.0,0.0,0.0,0.0,0.0,0.0,0.0,0.0,0.0,0.0,-0.8381,-0.8574,-0.8906,-0.9205,-0.9503,-0.9808,-1.0044,-1.0139,-1.0351,-1.0758,-1.0962,-1.1151,-1.1409,-1.1545,-1.1619,-1.1619,-1.1619,-1.1619,-1.1619,-1.1586,-1.1558,-1.1558,-1.1518,-1.1491,-1.1491,-1.1572,-1.1619,-1.1619,-1.1619,-1.1619,-1.1619,-1.1619,-1.1619,-1.1619,-1.1619,-1.1619,-1.1619,-1.1619,-1.1619,-1.1619,-1.1463,-1.1369,-1.1314,-1.1023,-1.0759,-1.0717,-1.0717,-1.0717,-1.0717,-1.0717,-1.0717,-1.0717,-1.0717,-1.0602,-1.0419,-1.0317,-1.0181,-0.9963,-0.9876,-0.9019,-0.7911,-0.6996,-0.5096,-0.3016,-0.2094,-0.0986,0.0,0.0,0.0,0.0,0.0,0.0,0.0,0.0,0.0,0.0,0.0,0.0,0.0,0.0,0.0,0.0,0.0,0.0,0.0,0.0,0.0,0.0,0.0,0.0,0.0,0.0,0.0,0.0,0.0,0.0,0.0,0.0,0.0,0.0,0.0,0.0,0.0,0.0,0.0,0.0,0.0,0.0,0.0,0.0,0.0,0.0,-0.8472,-0.8852,-0.9268,-0.9517,-0.9815,-1.0051,-1.0412,-1.0595,-1.0785,-1.1084,-1.1274,-1.1423,-1.1586,-1.1613,-1.1619,-1.1619,-1.1619,-1.1619,-1.1619,-1.1491,-1.1396,-1.1396,-1.1267,-1.1179,-1.1179,-1.1443,-1.1619,-1.1619,-1.1619,-1.1619,-1.1619,-1.1619,-1.1619,-1.1619,-1.1619,-1.1619,-1.1619,-1.1619,-1.1619,-1.1619,-1.1463,-1.1314,-1.1158,-1.086,-1.0724,-1.0717,-1.0717,-1.0717,-1.0717,-1.0717,-1.0717,-1.0717,-1.0717,-1.0541,-1.0283,-1.0283,-1.0181,-0.9963,-0.9876,-0.9761,-0.9207,-0.6018,-0.4916,-0.4242,-0.1048,-0.0062,0.0,0.0,0.0,0.0,0.0,0.0,0.0,0.0,0.0,0.0,0.0,0.0,0.0,0.0,0.0,0.0,0.0,0.0,0.0,0.0,0.0,0.0,0.0,0.0,0.0,0.0,0.0,0.0,0.0,0.0,0.0,0.0,0.0,0.0,0.0,0.0,0.0,0.0,0.0,0.0,0.0,0.0,0.0,0.0,0.0,0.0,-0.8927,-0.9252,-0.9673,-0.9978,-1.0202,-1.0399,-1.0595,-1.0683,-1.0778,-1.0982,-1.0982,-1.0995,-1.1076,-1.1172,-1.1206,-1.1301,-1.1402,-1.1504,-1.1606,-1.1572,-1.1504,-1.1402,-1.1348,-1.1314,-1.1314,-1.1409,-1.1423,-1.1321,-1.1504,-1.1572,-1.147,-1.1565,-1.1619,-1.1619,-1.1619,-1.1619,-1.1619,-1.1619,-1.1565,-1.1463,-1.1212,-1.1016,-1.0867,-1.0765,-1.0717,-1.0717,-1.0717,-1.0717,-1.0717,-1.0717,-1.0717,-1.0711,-1.0609,-0.9793,-0.8655,-0.8569,-0.8398,-0.8401,-0.947,-0.8349,-0.6385,-0.5284,-0.3444,-0.1417,-0.0308,0.0,0.0,0.0,0.0,0.0,0.0,0.0,0.0,0.0,0.0,0.0,0.0,0.0,0.0,0.0,0.0,0.0,0.0,0.0,0.0,0.0,0.0,0.0,0.0,0.0,0.0,0.0,0.0,0.0,0.0,0.0,0.0,0.0,0.0,0.0,0.0,0.0,0.0,0.0,0.0,0.0,0.0,0.0,0.0,0.0,0.0,0.0,-0.9313,-0.968,-1.0046,-1.0297,-1.0466,-1.0602,-1.0697,-1.0765,-1.0745,-1.0793,-1.0785,-1.0731,-1.0778,-1.0744,-1.0792,-1.1043,-1.1172,-1.1321,-1.1586,-1.1572,-1.1484,-1.1328,-1.1267,-1.1212,-1.1158,-1.1199,-1.1233,-1.1246,-1.1423,-1.1497,-1.1396,-1.1538,-1.1619,-1.1619,-1.1619,-1.1619,-1.1619,-1.1565,-1.1436,-1.1233,-1.0968,-1.0799,-1.0717,-1.0717,-1.0717,-1.0717,-1.0717,-1.0717,-1.0717,-1.0717,-1.0717,-1.0704,-1.0555,-0.9426,-0.7752,-0.7634,-0.715,-0.6747,-0.8404,-0.7917,-0.6446,-0.5284,-0.3446,-0.154,-0.037,0.0,0.0,0.0,0.0,0.0,0.0,0.0,0.0,0.0,0.0,0.0,0.0,0.0,0.0,0.0,0.0,0.0,0.0,0.0,0.0,0.0,0.0,0.0,0.0,0.0,0.0,0.0,0.0,0.0,0.0,0.0,0.0,0.0,0.0,0.0,0.0,0.0,0.0,0.0,0.0,0.0,0.0,0.0,0.0,0.0,0.0,0.0,-0.9768,-1.0066,-1.0337,-1.0473,-1.0616,-1.0717,-1.0717,-1.0759,-1.0813,-1.0731,-1.0677,-1.0616,0.0,0.0,-1.0405,-1.0786,-1.088,-1.1049,-1.1558,-1.1491,-1.1335,-1.1248,-1.1036,-1.0826,-1.0744,-1.0786,-1.0988,-1.1348,-1.1375,-1.1382,-1.1382,-1.1525,-1.1613,-1.1619,-1.1619,-1.1613,-1.1606,-1.145,-1.1226,-1.088,-1.0873,-1.0793,-1.0717,-1.0717,-1.0717,-1.0717,-1.0717,-1.0717,-1.0717,-1.0717,-1.0717,-1.0704,-1.0541,-0.9355,-0.7689,-0.7504,-0.6341,-0.4977,-0.6625,-0.816,-0.8897,-0.5896,-0.4794,-0.4057,-0.0925,0.0,0.0,0.0,0.0,0.0,0.0,0.0,0.0,0.0,0.0,0.0,0.0,0.0,0.0,0.0,0.0,0.0,0.0,0.0,0.0,0.0,0.0,0.0,0.0,0.0,0.0,0.0,0.0,0.0,0.0,0.0,0.0,0.0,0.0,0.0,0.0,0.0,0.0,0.0,0.0,0.0,0.0,0.0,0.0,0.0,0.0,0.0,-1.008,-1.0378,-1.0616,-1.0656,-1.069,-1.0717,-1.0717,-1.0663,-1.0568,-1.0426,-1.0127,-0.9883,0.0,-0.989,-1.0086,-1.0534,-1.0887,0.0,-1.1572,-1.1491,0.0,-1.1248,0.0,-1.0867,-1.0826,-1.0819,-1.086,-1.0981,-1.1158,-1.1219,-1.1219,-1.1369,-1.1504,-1.1613,-1.1619,-1.1565,-1.145,-1.1192,-1.0954,-1.088,-1.0833,-1.0758,-1.0717,-1.0717,-1.0717,-1.0717,-1.0717,-1.0717,-1.0717,-1.0717,-1.0717,-1.0697,-1.0432,-0.8567,-0.5954,-0.5675,-0.4564,-0.32,-0.3628,-0.3996,-0.4426,-0.4794,-0.3262,-0.111,-0.0247,0.0,0.0,0.0,0.0,0.0,0.0,0.0,0.0,0.0,0.0,0.0,0.0,0.0,0.0,0.0,0.0,0.0,0.0,0.0,0.0,0.0,0.0,0.0,0.0,0.0,0.0,0.0,0.0,0.0,0.0,0.0,0.0,0.0,0.0,0.0,0.0,0.0,0.0,0.0,0.0,0.0,0.0,0.0,0.0,0.0,0.0,0.0,-1.0405,-1.0643,-1.0739,-1.0738,-1.0717,-1.067,-1.0473,-1.0358,-1.0202,-0.9856,-0.9537,-0.9293,-0.9225,-0.9388,-0.9693,0.0,0.0,0.0,-1.1558,-1.1491,-1.1335,0.0,-1.1036,0.0,-1.0786,-1.0772,-1.0758,-1.0839,-1.0982,-1.107,-1.107,-1.1274,-1.143,-1.1518,-1.1518,-1.1416,-1.1199,-1.0961,-1.0847,-1.0779,-1.0758,-1.0717,-1.0717,-1.0717,-1.0717,-1.0717,-1.0717,-1.0717,-1.0717,-1.0717,-1.0717,-1.0624,-0.9613,-0.764,-0.5248,-0.4226,-0.2831,-0.1479,-0.2216,-0.2033,-0.1663,-0.3323,-0.2585,-0.0986,-0.0247,0.0,0.0,0.0,0.0,0.0,0.0,0.0,0.0,0.0,0.0,0.0,0.0,0.0,0.0,0.0,0.0,0.0,0.0,0.0,0.0,0.0,0.0,0.0,0.0,0.0,0.0,0.0,0.0,0.0,0.0,0.0,0.0,0.0,0.0,0.0,0.0,0.0,0.0,0.0,0.0,0.0,0.0,0.0,0.0,0.0,0.0,0.0,-1.0738,-1.0873,-1.0941,-1.0785,-1.0738,-1.0602,-1.0092,-0.9957,-0.9829,-0.9245,0.0,-0.8845,-0.873,-0.8933,-0.9334,-0.9916,0.0,-1.0928,-1.1538,-1.147,-1.1314,-1.1179,-1.1016,-1.0799,-1.0731,-1.0717,-1.0717,-1.0717,-1.0846,-1.086,-1.088,-1.1192,-1.1341,-1.1362,-1.1341,-1.1206,-1.088,-1.086,-1.0853,-1.0717,-1.0717,-1.0717,-1.0717,-1.0717,-1.0717,-1.0717,-1.0717,-1.0717,-1.0717,-1.0717,-1.0717,-1.0492,-0.857,-0.6805,-0.5184,-0.3235,-0.1417,-0.0185,-0.1663,-0.1233,-0.0247,-0.1971,-0.2339,-0.191,-0.0432,0.0,0.0,0.0,0.0,0.0,0.0,0.0,0.0,0.0,0.0,0.0,0.0,0.0,0.0,0.0,0.0,0.0,0.0,0.0,0.0,0.0,0.0,0.0,0.0,0.0,0.0,0.0,0.0,0.0,0.0,0.0,0.0,0.0,0.0,0.0,0.0,0.0,0.0,0.0,0.0,0.0,0.0,0.0,0.0,0.0,0.0,0.0,-1.1043,-1.1104,-1.109,-1.088,-1.0812,-1.0602,-1.0092,-0.9802,0.0,0.0,-0.8757,-0.8587,-0.8696,-0.8859,-0.9252,-1.01,-1.0514,-1.0928,-1.1538,-1.1382,-1.1261,0.0,-1.0921,-1.0751,-1.0724,-1.0717,-1.0717,-1.0717,-1.0744,-1.0745,-1.0873,-1.0927,-1.1077,-1.1199,-1.1084,-1.0934,-1.088,-1.0759,-1.0744,-1.0717,-1.0717,-1.0717,-1.0717,-1.0717,-1.0717,-1.0717,-1.0717,-1.0717,-1.0717,-1.0717,-1.0717,-1.0492,-0.857,-0.6805,-0.5184,-0.3235,-0.1417,-0.0062,-0.0308,-0.0247,-0.0247,-0.1971,-0.154,-0.037,-0.0062,0.0,0.0,0.0,0.0,0.0,0.0,0.0,0.0,0.0,0.0,0.0,0.0,0.0,0.0,0.0,0.0,0.0,0.0,0.0,0.0,0.0,0.0,0.0,0.0,0.0,0.0,0.0,0.0,0.0,0.0,0.0,0.0,0.0,0.0,0.0,0.0,0.0,0.0,0.0,0.0,0.0,0.0,0.0,0.0,0.0,0.0,0.0,-1.1145,-1.1219,-1.1226,-1.1002,-1.0833,-1.0541,-0.9856,0.0,0.0,0.0,-0.8357,-0.8275,-0.835,-0.8615,0.0,-0.9496,-0.9897,-1.0378,-1.1056,-1.0955,-1.09,-1.12,-1.0968,-1.0806,-1.0724,-1.0717,-1.0717,-1.0717,-1.0717,-1.0751,-1.0759,-1.084,-1.0914,-1.105,-1.0914,-1.084,-1.0833,-1.0758,-1.0717,-1.0717,-1.0717,-1.0717,-1.0717,-1.0717,-1.0717,-1.0717,-1.0717,-1.0717,-1.0717,-1.0717,-1.0114,-0.9082,-0.7269,-0.5522,-0.3778,-0.1869,-0.0679,0.0,0.0,0.0,-0.0123,-0.0925,-0.0679,0.0,0.0,0.0,0.0,0.0,0.0,0.0,0.0,0.0,0.0,0.0,0.0,0.0,0.0,0.0,0.0,0.0,0.0,0.0,0.0,0.0,0.0,0.0,0.0,0.0,0.0,0.0,0.0,0.0,0.0,0.0,0.0,0.0,0.0,0.0,0.0,0.0,0.0,0.0,0.0,0.0,0.0,0.0,0.0,0.0,0.0,0.0,0.0,0.0,-1.1253,-1.1348,-1.1369,-1.107,-1.0853,-1.0487,-0.9585,-0.9239,0.0,0.0,-0.7988,-0.8002,-0.8029,0.0,-0.8696,0.0,-0.9306,-0.9829,-1.0609,-1.0588,-1.0656,0.0,-1.1009,0.0,-1.0731,-1.0717,-1.0717,-1.0717,-1.0717,-1.0717,-1.0717,-1.0766,-1.0833,-1.0833,-1.0833,-1.0839,-1.0724,-1.0717,-1.0717,-1.0717,-1.0717,-1.0717,-1.0717,-1.0717,-1.0717,-1.0717,-1.0717,-1.0717,-1.0651,-1.0246,-0.9305,-0.7806,-0.5649,-0.3984,-0.2499,-0.0686,0.0,0.0,0.0,0.0,0.0,0.0,0.0,0.0,0.0,0.0,0.0,0.0,0.0,0.0,0.0,0.0,0.0,0.0,0.0,0.0,0.0,0.0,0.0,0.0,0.0,0.0,0.0,0.0,0.0,0.0,0.0,0.0,0.0,0.0,0.0,0.0,0.0,0.0,0.0,0.0,0.0,0.0,0.0,0.0,0.0,0.0,0.0,0.0,0.0,0.0,0.0,0.0,0.0,0.0,0.0,0.0,-1.1538,-1.1586,-1.1525,-1.1219,-1.0928,-1.0487,-0.9585,0.0,-0.873,-0.8116,-0.7988,-0.8029,-0.8221,-0.8282,-0.8545,-0.9098,0.0,-0.9713,-1.0595,-1.0588,-1.0656,-1.1111,0.0,0.0,-1.0724,-1.0717,-1.0717,-1.0717,-1.0717,-1.0717,-1.0717,-1.0731,-1.0744,-1.0744,-1.0744,-1.0731,-1.0717,-1.0717,-1.0717,-1.0717,-1.0717,-1.0717,-1.0717,-1.0717,-1.0717,-1.0717,-1.0717,-1.0717,-1.0585,-0.89,-0.8163,-0.7673,-0.4288,-0.2828,-0.2499,-0.0686,0.0,0.0,0.0,0.0,0.0,0.0,0.0,0.0,0.0,0.0,0.0,0.0,0.0,0.0,0.0,0.0,0.0,0.0,0.0,0.0,0.0,0.0,0.0,0.0,0.0,0.0,0.0,0.0,0.0,0.0,0.0,0.0,0.0,0.0,0.0,0.0,0.0,0.0,0.0,0.0,0.0,0.0,0.0,0.0,0.0,0.0,0.0,0.0,0.0,0.0,0.0,0.0,0.0,0.0,0.0,0.0,-1.1504,-1.1619,-1.1545,-1.124,-1.0941,-1.0487,-0.9585,0.0,-0.8716,-0.811,-0.7988,-0.8008,-0.8119,-0.8133,-0.8208,-0.8445,-0.8533,-0.8852,-0.9666,-0.9883,-1.0161,-1.0697,-1.0819,-1.0819,-1.0731,-1.0717,-1.0717,-1.0717,-1.0717,-1.0717,-1.0717,-1.0717,-1.0717,-1.0717,-1.0717,-1.0717,-1.0717,-1.0717,-1.0717,-1.0717,-1.0717,-1.0717,-1.0717,-1.0717,-1.0717,-1.0717,-1.0717,-1.0717,-1.0585,-0.8767,-0.7365,-0.6211,-0.3704,-0.206,-0.0964,-0.025,0.0,0.0,0.0,0.0,0.0,0.0,0.0,0.0,0.0,0.0,0.0,0.0,0.0,0.0,0.0,0.0,0.0,0.0,0.0,0.0,0.0,0.0,0.0,0.0,0.0,0.0,0.0,0.0,0.0,0.0,0.0,0.0,0.0,0.0,0.0,0.0,0.0,0.0,0.0,0.0,0.0,0.0,0.0,0.0,0.0,0.0,0.0,0.0,0.0,0.0,0.0,0.0,0.0,0.0,0.0,0.0,-1.1402,-1.1586,-1.1545,-1.124,-1.0907,-1.0432,0.0,-0.9117,-0.8662,-0.8103,-0.7988,-0.7988,-0.7988,-0.7988,-0.7988,-0.7988,-0.8062,-0.8418,-0.918,-0.9408,-0.9761,-1.0358,0.0,-1.0711,-1.0602,-1.067,-1.0717,-1.0717,-1.0717,-1.0717,-1.0717,-1.0717,-1.0717,-1.0717,-1.0717,-1.0717,-1.0717,-1.0717,-1.0717,-1.0717,-1.0717,-1.0717,-1.0717,-1.0717,-1.0717,-1.0651,-1.0114,-0.9908,-0.9709,-0.7365,-0.5693,-0.4414,-0.2602,-0.1096,0.0,0.0,0.0,0.0,0.0,0.0,0.0,0.0,0.0,0.0,0.0,0.0,0.0,0.0,0.0,0.0,0.0,0.0,0.0,0.0,0.0,0.0,0.0,0.0,0.0,0.0,0.0,0.0,0.0,0.0,0.0,0.0,0.0,0.0,0.0,0.0,0.0,0.0,0.0,0.0,0.0,0.0,0.0,0.0,0.0,0.0,0.0,0.0,0.0,0.0,0.0,0.0,0.0,0.0,0.0,0.0,0.0,0.0,-1.1274,-1.1504,-1.1545,-1.124,-1.0826,-1.0297,-0.9551,-0.9035,-0.8587,-0.8083,-0.7988,-0.7988,-0.7988,-0.7988,-0.7988,-0.7988,-0.8282,-0.8689,-0.9293,-0.9381,-0.9605,0.0,-1.0283,-1.029,-1.0283,-1.0548,-1.0717,-1.0717,-1.0717,-1.0717,-1.0717,-1.0717,-1.0717,-1.0717,-1.0717,-1.0717,-1.0717,-1.0717,-1.0717,-1.0717,-1.0717,-1.0717,-1.0717,-1.0717,-1.0717,-1.0585,-0.8834,-0.803,-0.7764,-0.4225,-0.2752,-0.2545,-0.0718,0.0,0.0,0.0,0.0,0.0,0.0,0.0,0.0,0.0,0.0,0.0,0.0,0.0,0.0,0.0,0.0,0.0,0.0,0.0,0.0,0.0,0.0,0.0,0.0,0.0,0.0,0.0,0.0,0.0,0.0,0.0,0.0,0.0,0.0,0.0,0.0,0.0,0.0,0.0,0.0,0.0,0.0,0.0,0.0,0.0,0.0,0.0,0.0,0.0,0.0,0.0,0.0,0.0,0.0,0.0,0.0,0.0,0.0,0.0,-1.0385,-1.0656,-1.0731,-1.0229,-0.9992,-0.972,-0.9069,-0.873,-0.8459,-0.8062,-0.7988,-0.7988,-0.7988,-0.7988,-0.8089,-0.8445,-0.8574,-0.8777,-0.9228,0.0,0.0,-0.9958,-1.0331,-1.0582,-1.0582,-1.0663,-1.0717,-1.0717,-1.0717,-1.0717,-1.0717,-1.0717,-1.0717,-1.0717,-1.0717,-1.0717,-1.0717,-1.0717,-1.0717,-1.0717,-1.0717,-1.0717,-1.0717,-1.0717,-1.0717,-1.0585,-0.8767,-0.803,-0.7698,-0.4155,-0.267,-0.2511,-0.0715,0.0,0.0,0.0,0.0,0.0,0.0,0.0,0.0,0.0,0.0,0.0,0.0,0.0,0.0,0.0,0.0,0.0,0.0,0.0,0.0,0.0,0.0,0.0,0.0,0.0,0.0,0.0,0.0,0.0,0.0,0.0,0.0,0.0,0.0,0.0,0.0,0.0,0.0,0.0,0.0,0.0,0.0,0.0,0.0,0.0,0.0,0.0,0.0,0.0,0.0,0.0,0.0,0.0,0.0,0.0,0.0,0.0,0.0,0.0,0.0,-1.0141,-1.0222,-0.9795,-0.9564,-0.9313,-0.8818,-0.8554,-0.8336,-0.8042,-0.7988,-0.7988,-0.7988,-0.7988,-0.8083,-0.8411,-0.8601,-0.8798,-0.9035,0.0,0.0,-0.9985,-1.0324,-1.0602,-1.0711,-1.0717,-1.0717,-1.0717,-1.0717,-1.0717,-1.0717,-1.0717,-1.0717,-1.0717,-1.0717,-1.0717,-1.0717,-1.0717,-1.0717,-1.0717,-1.0717,-1.0717,-1.0717,-1.0717,-1.0717,-1.0585,-0.8102,-0.7031,0.0,-0.3135,-0.1657,-0.1576,-0.0452,0.0,0.0,0.0,0.0,0.0,0.0,0.0,0.0,0.0,0.0,0.0,0.0,0.0,0.0,0.0,0.0,0.0,0.0,0.0,0.0,0.0,0.0,0.0,0.0,0.0,0.0,0.0,0.0,0.0,0.0,0.0,0.0,0.0,0.0,0.0,0.0,0.0,0.0,0.0,0.0,0.0,0.0,0.0,0.0,0.0,0.0,0.0,0.0,0.0,0.0,0.0,0.0,0.0,0.0,0.0,0.0,0.0,0.0,0.0,0.0,-0.9768,-0.9849,-0.9741,-0.9388,-0.9071,-0.873,-0.8452,0.0,-0.8022,-0.7988,-0.7995,-0.8002,-0.7995,-0.8002,-0.8049,-0.8465,-0.8791,-0.8878,-0.934,-0.9795,-1.0256,-1.031,-1.0419,-1.0697,-1.0717,-1.0717,-1.0717,-1.0717,-1.0717,-1.0717,-1.0717,-1.0717,-1.0717,-1.0717,-1.0717,-1.0717,-1.0717,-1.0717,-1.0717,-1.0717,-1.0717,-1.0717,-1.0717,-1.0717,-1.0518,-0.6965,-0.5426,-0.5148,-0.1521,0.0,0.0,0.0,0.0,0.0,0.0,0.0,0.0,0.0,0.0,0.0,0.0,0.0,0.0,0.0,0.0,0.0,0.0,0.0,0.0,0.0,0.0,0.0,0.0,0.0,0.0,0.0,0.0,0.0,0.0,0.0,0.0,0.0,0.0,0.0,0.0,0.0,0.0,0.0,0.0,0.0,0.0,0.0,0.0,0.0,0.0,0.0,0.0,0.0,0.0,0.0,0.0,0.0,0.0,0.0,0.0,0.0,0.0,0.0,0.0,0.0,0.0,-0.8574,0.0,-0.8933,-0.8501,-0.8465,-0.8431,0.0,-0.8096,-0.8035,-0.7995,0.0,-0.8022,-0.8194,-0.8119,-0.8143,-0.8602,-0.8906,-0.9118,-0.9096,-0.949,-0.9978,-1.0548,-1.0616,-1.0643,-1.0711,-1.0717,-1.0717,-1.0717,-1.0717,-1.0717,-1.0717,-1.0717,-1.0717,-1.0717,-1.0717,-1.0717,-1.0717,-1.0717,-1.0717,-1.0717,-1.0717,-1.0717,-1.0717,-1.0717,-1.0717,-1.0518,-0.6965,-0.5398,-0.5142,-0.1515,0.0,0.0,0.0,0.0,0.0,0.0,0.0,0.0,0.0,0.0,0.0,0.0,0.0,0.0,0.0,0.0,0.0,0.0,0.0,0.0,0.0,0.0,0.0,0.0,0.0,0.0,0.0,0.0,0.0,0.0,0.0,0.0,0.0,0.0,0.0,0.0,0.0,0.0,0.0,0.0,0.0,0.0,0.0,0.0,0.0,0.0,0.0,0.0,0.0,0.0,0.0,0.0,0.0,0.0,0.0,0.0,0.0,0.0,0.0,0.0,0.0,0.0,-0.8167,-0.8384,-0.8547,-0.8303,-0.8255,-0.8248,-0.8167,0.0,0.0,0.0,0.0,-0.8015,-0.8147,-0.8153,-0.8255,-0.8581,-0.8872,-0.9178,-0.9517,-0.9836,-1.0202,-1.0663,-1.0717,-1.0717,-1.0717,-1.0717,-1.0717,-1.0717,-1.0717,-1.0717,-1.0717,-1.0717,-1.0717,-1.0717,-1.0717,-1.0717,-1.0717,-1.0717,-1.0717,-1.0717,-1.0717,-1.0717,-1.0717,-1.0717,-1.0246,-0.9305,-0.6589,-0.4958,-0.3937,-0.1168,0.0,0.0,0.0,0.0,0.0,0.0,0.0,0.0,0.0,0.0,0.0,0.0,0.0,0.0,0.0,0.0,0.0,0.0,0.0,0.0,0.0,0.0,0.0,0.0,0.0,0.0,0.0,0.0,0.0,0.0,0.0,0.0,0.0,0.0,0.0,0.0,0.0,0.0,0.0,0.0,0.0,0.0,0.0,0.0,0.0,0.0,0.0,0.0,0.0,0.0,0.0,0.0,0.0,0.0,0.0,0.0,0.0,0.0,0.0,0.0,0.0,0.0,-0.8042,-0.8309,-0.8499,-0.8431,-0.8343,-0.832,-0.8241,0.0,0.0,0.0,0.0,0.0,-0.8049,-0.8214,-0.8374,-0.8449,-0.8764,-0.9235,-0.9957,-1.0209,-1.0392,-1.0683,-1.0717,-1.0717,-1.0717,-1.0717,-1.0717,-1.0717,-1.0717,-1.0717,-1.0717,-1.0717,-1.0717,-1.0717,-1.0717,-1.0717,-1.0717,-1.0717,-1.0717,-1.0717,-1.0717,-1.0717,-1.0717,-1.0426,-0.9474,-0.7867,-0.5854,-0.4117,-0.2542,-0.0765,0.0,0.0,0.0,0.0,0.0,0.0,0.0,0.0,0.0,0.0,0.0,0.0,0.0,0.0,0.0,0.0,0.0,0.0,0.0,0.0,0.0,0.0,0.0,0.0,0.0,0.0,0.0,0.0,0.0,0.0,0.0,0.0,0.0,0.0,0.0,0.0,0.0,0.0,0.0,0.0,0.0,0.0,0.0,0.0,0.0,0.0,0.0,0.0,0.0,0.0,0.0,0.0,0.0,0.0,0.0,0.0,0.0,0.0,0.0,0.0,0.0,0.0,-0.8343,-0.854,-0.8581,-0.815,-0.8187,-0.8235,-0.8106,0.0,0.0,0.0,0.0,0.0,0.0,-0.8431,-0.8574,-0.9009,-0.9293,-0.972,-1.0337,-1.0344,-1.0392,-1.0683,-1.0717,-1.0717,-1.0717,-1.0717,-1.0717,-1.0717,-1.0717,-1.0717,-1.0717,-1.0717,-1.0717,-1.0717,-1.0717,-1.0717,-1.0717,-1.0717,-1.0717,-1.0717,-1.0717,-1.0717,-1.0651,-0.9121,-0.828,-0.7817,-0.4538,-0.2947,-0.2532,-0.0758,0.0,0.0,0.0,0.0,0.0,0.0,0.0,0.0,0.0,0.0,0.0,0.0,0.0,0.0,0.0,0.0,0.0,0.0,0.0,0.0,0.0,0.0,0.0,0.0,0.0,0.0,0.0,0.0,0.0,0.0,0.0,0.0,0.0,0.0,0.0,0.0,0.0,0.0,0.0,0.0,0.0,0.0,0.0,0.0,0.0,0.0,0.0,0.0,0.0,0.0,0.0,0.0,0.0,0.0,0.0,0.0,0.0,0.0,0.0,0.0,0.0,0.0,-0.8208,-0.8357,-0.8438,-0.8309,-0.8459,-0.8594,-0.8438,-0.8336,0.0,0.0,0.0,0.0,0.0,0.0,-0.905,-0.9442,-0.97,-0.9971,-1.0331,-1.0385,-1.0473,-1.0697,-1.0717,-1.0717,-1.0717,-1.0717,-1.0717,-1.0717,-1.0717,-1.0717,-1.0717,-1.0717,-1.0717,-1.0717,-1.0717,-1.0717,-1.0717,-0.9709,-0.9709,-1.0717,-0.9709,-0.9775,-1.0578,-0.7853,-0.6623,-0.6419,-0.3845,-0.2154,-0.1197,-0.0313,0.0,0.0,0.0,0.0,0.0,0.0,0.0,0.0,0.0,0.0,0.0,0.0,0.0,0.0,0.0,0.0,0.0,0.0,0.0,0.0,0.0,0.0,0.0,0.0,0.0,0.0,0.0,0.0,0.0,0.0,0.0,0.0,0.0,0.0,0.0,0.0,0.0,0.0,0.0,0.0,0.0,0.0,0.0,0.0,0.0,0.0,0.0,0.0,0.0,0.0,0.0,0.0,0.0,0.0,0.0,0.0,0.0,0.0,0.0,0.0,0.0,0.0,-0.8076,-0.8228,-0.8364,-0.854,-0.871,-0.8825,-0.8818,-0.8696,-0.8608,0.0,0.0,0.0,0.0,-0.9091,-0.9548,-0.9869,-1.0051,-1.0226,-1.0371,-1.048,-1.0588,-1.0704,-1.0717,-1.0717,-1.0717,-1.0717,-1.0717,-1.0717,-1.0717,-1.0717,-1.0717,-1.0717,-1.0717,-1.0717,-1.0313,-1.0047,-1.0047,-0.8701,-0.8701,-1.0047,-0.8235,-0.8102,-0.9371,-0.6185,-0.4767,-0.4695,-0.2852,-0.1254,0.0,0.0,0.0,0.0,0.0,0.0,0.0,0.0,0.0,0.0,0.0,0.0,0.0,0.0,0.0,0.0,0.0,0.0,0.0,0.0,0.0,0.0,0.0,0.0,0.0,0.0,0.0,0.0,0.0,0.0,0.0,0.0,0.0,0.0,0.0,0.0,0.0,0.0,0.0,0.0,0.0,0.0,0.0,0.0,0.0,0.0,0.0,0.0,0.0,0.0,0.0,0.0,0.0,0.0,0.0,0.0,0.0,0.0,0.0,0.0,0.0,0.0,0.0,0.0,-0.8377,-0.8459,-0.854,-0.8832,-0.871,-0.8621,-0.9084,-0.9008,-0.8981,-0.9259,0.0,0.0,-0.9139,-0.9651,-1.0108,-1.0222,-1.0609,-1.0772,-1.0711,-1.0697,-1.0711,-1.0717,-1.0717,-1.0717,-1.0717,-1.0717,-1.0717,-1.0717,-1.0717,-1.0717,-1.0717,-1.0717,-1.0717,-1.0717,-0.9039,-0.8163,-0.8163,-0.8097,-0.8097,-0.8163,-0.6431,-0.5629,-0.5693,-0.3781,-0.2898,-0.2764,-0.1001,-0.0124,0.0,0.0,0.0,0.0,0.0,0.0,0.0,0.0,0.0,0.0,0.0,0.0,0.0,0.0,0.0,0.0,0.0,0.0,0.0,0.0,0.0,0.0,0.0,0.0,0.0,0.0,0.0,0.0,0.0,0.0,0.0,0.0,0.0,0.0,0.0,0.0,0.0,0.0,0.0,0.0,0.0,0.0,0.0,0.0,0.0,0.0,0.0,0.0,0.0,0.0,0.0,0.0,0.0,0.0,0.0,0.0,0.0,0.0,0.0,0.0,0.0,0.0,0.0,0.0,-0.8174,-0.8343,-0.8554,-0.8804,-0.892,0.0,0.0,-0.9395,-0.9517,-0.9632,-0.9639,-0.9586,-0.97,-0.9897,-1.0127,-1.0371,-1.0636,-1.0785,-1.0731,-1.0717,-1.0717,-1.0717,-1.0717,-1.0717,-1.0717,-1.0717,-1.0717,-1.0717,-1.0717,-1.0717,-1.0717,-1.0717,-1.018,-0.9039,-0.8363,-0.7498,-0.6364,-0.5292,-0.4736,-0.4697,-0.5205,-0.5405,-0.5291,-0.2339,-0.1666,-0.2597,-0.0809,0.0,0.0,0.0,0.0,0.0,0.0,0.0,0.0,0.0,0.0,0.0,0.0,0.0,0.0,0.0,0.0,0.0,0.0,0.0,0.0,0.0,0.0,0.0,0.0,0.0,0.0,0.0,0.0,0.0,0.0,0.0,0.0,0.0,0.0,0.0,0.0,0.0,0.0,0.0,0.0,0.0,0.0,0.0,0.0,0.0,0.0,0.0,0.0,0.0,0.0,0.0,0.0,0.0,0.0,0.0,0.0,0.0,0.0,0.0,0.0,0.0,0.0,0.0,0.0,0.0,-0.7988,-0.8187,-0.8411,-0.8716,0.0,0.0,-0.9462,-0.9754,-0.9992,-1.0086,-1.0114,-1.0107,-0.9997,-1.0065,-1.0256,-1.046,-1.0663,-1.0772,-1.0724,-1.0717,-1.0717,-1.0717,-1.0717,-1.0717,-1.0717,-1.0717,-1.0717,-1.0717,-1.0717,-1.0717,-1.0717,-1.018,-0.9305,-0.803,-0.6934,-0.5723,-0.453,-0.3318,-0.244,-0.1895,-0.3689,-0.4278,-0.3588,-0.116,-0.0701,-0.1762,-0.0559,0.0,0.0,0.0,0.0,0.0,0.0,0.0,0.0,0.0,0.0,0.0,0.0,0.0,0.0,0.0,0.0,0.0,0.0,0.0,0.0,0.0,0.0,0.0,0.0,0.0,0.0,0.0,0.0,0.0,0.0,0.0,0.0,0.0,0.0,0.0,0.0,0.0,0.0,0.0,0.0,0.0,0.0,0.0,0.0,0.0,0.0,0.0,0.0,0.0,0.0,0.0,0.0,0.0,0.0,0.0,0.0,0.0,0.0,0.0,0.0,0.0,0.0,0.0,0.0,0.0,-0.7988,-0.7995,-0.8069,-0.8418,0.0,0.0,-0.9727,-1.0066,-1.0371,-1.0663,-1.0487,-1.0236,-1.0017,-1.0297,-1.0493,-1.0493,-1.0751,-1.0826,-1.0744,-1.0717,-1.0717,-1.0717,-1.0717,-1.0717,-1.0717,-1.0717,-1.0717,-1.0717,-1.0717,-1.0717,-1.0651,-0.8972,-0.7964,-0.7964,-0.4562,-0.2695,-0.2693,-0.2655,-0.1802,0.0,-0.1802,-0.1738,0.0,0.0,0.0,0.0,0.0,0.0,0.0,0.0,0.0,0.0,0.0,0.0,0.0,0.0,0.0,0.0,0.0,0.0,0.0,0.0,0.0,0.0,0.0,0.0,0.0,0.0,0.0,0.0,0.0,0.0,0.0,0.0,0.0,0.0,0.0,0.0,0.0,0.0,0.0,0.0,0.0,0.0,0.0,0.0,0.0,0.0,0.0,0.0,0.0,0.0,0.0,0.0,0.0,0.0,0.0,0.0,0.0,0.0,0.0,0.0,0.0,0.0,0.0,0.0,0.0,0.0,0.0,0.0,0.0,0.0,-0.8022,-0.8217,-0.8581,-0.8934,0.0,0.0,0.0,-1.0527,0.0,0.0,-1.0785,-1.0446,-1.0507,-1.0507,-1.0493,-1.0493,-1.0656,-1.0772,-1.0724,-1.0717,-1.0717,-1.0717,-1.0717,-1.0717,-1.0717,-1.0717,-1.0717,-1.0717,-1.0717,-1.0114,-0.8834,-0.8296,-0.6863,-0.4361,-0.3224,-0.2094,-0.0844,-0.0776,-0.0513,0.0,-0.0572,-0.0508,0.0,0.0,0.0,0.0,0.0,0.0,0.0,0.0,0.0,0.0,0.0,0.0,0.0,0.0,0.0,0.0,0.0,0.0,0.0,0.0,0.0,0.0,0.0,0.0,0.0,0.0,0.0,0.0,0.0,0.0,0.0,0.0,0.0,0.0,0.0,0.0,0.0,0.0,0.0,0.0,0.0,0.0,0.0,0.0,0.0,0.0,0.0,0.0,0.0,0.0,0.0,0.0,0.0,0.0,0.0,0.0,0.0,0.0,0.0,0.0,0.0,0.0,0.0,0.0,0.0,0.0,0.0,0.0,0.0,0.0,-0.8303,-0.8547,0.0,-0.9171,-0.9578,-1.0046,-1.0555,0.0,0.0,-1.1328,-1.1056,-1.0772,-1.0806,-1.0738,-1.0656,-1.0595,-1.0663,-1.0717,-1.0717,-1.0717,-1.0717,-1.0717,-1.0717,-1.0717,-1.0717,-1.0717,-1.0717,-1.0717,-1.0047,-0.9148,-0.803,-0.6638,-0.4885,-0.2737,-0.201,-0.1096,0.0,0.0,0.0,0.0,0.0,0.0,0.0,0.0,0.0,0.0,0.0,0.0,0.0,0.0,0.0,0.0,0.0,0.0,0.0,0.0,0.0,0.0,0.0,0.0,0.0,0.0,0.0,0.0,0.0,0.0,0.0,0.0,0.0,0.0,0.0,0.0,0.0,0.0,0.0,0.0,0.0,0.0,0.0,0.0,0.0,0.0,0.0,0.0,0.0,0.0,0.0,0.0,0.0,0.0,0.0,0.0,0.0,0.0,0.0,0.0,0.0,0.0,0.0,0.0,0.0,0.0,0.0,0.0,0.0,0.0,0.0,0.0,0.0,0.0,0.0,0.0,-0.8635,-0.8845,-0.9055,-0.9381,-0.9802,0.0,-1.0772,-1.09,-1.105,-1.1335,-1.126,-1.1104,-1.0989,-1.088,-1.0813,-1.0744,-1.0717,-1.0717,-1.0717,-1.0717,-1.0717,-1.0717,-1.0717,-1.0717,-1.0717,-1.0717,-1.0717,-1.0717,-0.9039,-0.7918,-0.7752,-0.4529,-0.2612,-0.2444,-0.089,0.0,0.0,0.0,0.0,0.0,0.0,0.0,0.0,0.0,0.0,0.0,0.0,0.0,0.0,0.0,0.0,0.0,0.0,0.0,0.0,0.0,0.0,0.0,0.0,0.0,0.0,0.0,0.0,0.0,0.0,0.0,0.0,0.0,0.0,0.0,0.0,0.0,0.0,0.0,0.0,0.0,0.0,0.0,0.0,0.0,0.0,0.0,0.0,0.0,0.0,0.0,0.0,0.0,0.0,0.0,0.0,0.0,0.0,0.0,0.0,0.0,0.0,0.0,0.0,0.0,0.0,0.0,0.0,0.0,0.0,0.0,0.0,0.0,0.0,0.0,0.0,0.0,-0.8696,-0.8994,0.0,0.0,-1.0426,-1.0752,-1.1063,-1.1118,-1.1172,-1.1355,-1.1179,-1.1023,-1.1104,-1.0928,-1.0758,-1.0724,-1.0717,-1.0717,-1.0717,-1.0717,-1.0717,-1.0717,-1.0717,-1.0717,-1.0717,-1.0717,-1.0717,-1.0717,-0.9039,-0.7422,-0.6004,-0.3897,-0.2026,-0.0646,-0.0191,0.0,0.0,0.0,0.0,0.0,0.0,0.0,0.0,0.0,0.0,0.0,0.0,0.0,0.0,0.0,0.0,0.0,0.0,0.0,0.0,0.0,0.0,0.0,0.0,0.0,0.0,0.0,0.0,0.0,0.0,0.0,0.0,0.0,0.0,0.0,0.0,0.0,0.0,0.0,0.0,0.0,0.0,0.0,0.0,0.0,0.0,0.0,0.0,0.0,0.0,0.0,0.0,0.0,0.0,0.0,0.0,0.0,0.0,0.0,0.0,0.0,0.0,0.0,0.0,0.0,0.0,0.0,0.0,0.0,0.0,0.0,0.0,0.0,0.0,0.0,0.0,0.0,-0.8933,0.0,0.0,-1.0412,0.0,-1.107,-1.1214,-1.1219,-1.1294,-1.1375,-1.1267,-1.1158,-1.1165,-1.0982,-1.0739,-1.0731,-1.0717,-1.0717,-1.0717,-1.0717,-1.0717,-1.0717,-1.0717,-1.0717,-1.0717,-1.0717,-1.0319,-0.9443,-0.7764,-0.6011,-0.4184,-0.2362,-0.0971,0.0,0.0,0.0,0.0,0.0,0.0,0.0,0.0,0.0,0.0,0.0,0.0,0.0,0.0,0.0,0.0,0.0,0.0,0.0,0.0,0.0,0.0,0.0,0.0,0.0,0.0,0.0,0.0,0.0,0.0,0.0,0.0,0.0,0.0,0.0,0.0,0.0,0.0,0.0,0.0,0.0,0.0,0.0,0.0,0.0,0.0,0.0,0.0,0.0,0.0,0.0,0.0,0.0,0.0,0.0,0.0,0.0,0.0,0.0,0.0,0.0,0.0,0.0,0.0,0.0,0.0,0.0,0.0,0.0,0.0,0.0,0.0,0.0,0.0,0.0,0.0,0.0,0.0,0.0,-0.9089,0.0,-0.9958,-1.0778,-1.1097,0.0,-1.1199,-1.1301,-1.1389,-1.1389,-1.1389,-1.1341,-1.1192,-1.1043,-1.0833,-1.0744,-1.0717,-1.0717,-1.0717,-1.0717,-1.0717,-1.0717,-1.0717,-1.0717,-1.0717,-1.0717,-0.9981,-0.8163,-0.6364,-0.4603,-0.2771,-0.0976,0.0,0.0,0.0,0.0,0.0,0.0,0.0,0.0,0.0,0.0,0.0,0.0,0.0,0.0,0.0,0.0,0.0,0.0,0.0,0.0,0.0,0.0,0.0,0.0,0.0,0.0,0.0,0.0,0.0,0.0,0.0,0.0,0.0,0.0,0.0,0.0,0.0,0.0,0.0,0.0,0.0,0.0,0.0,0.0,0.0,0.0,0.0,0.0,0.0,0.0,0.0,0.0,0.0,0.0,0.0,0.0,0.0,0.0,0.0,0.0,0.0,0.0,0.0,0.0,0.0,0.0,0.0,0.0,0.0,0.0,0.0,0.0,0.0,0.0,0.0,0.0,0.0,0.0,0.0,0.0,-0.8737,0.0,-1.05,0.0,-1.1246,-1.1362,0.0,0.0,-1.1389,-1.1389,-1.1389,-1.1341,-1.1192,-1.1043,-1.0833,-1.0744,-1.0717,-1.0717,-1.0717,-1.0717,-1.0717,-1.0717,-1.0717,-1.0717,-1.0717,-1.0717,-0.9981,-0.8163,-0.6364,-0.4623,-0.2812,-0.0981,0.0,0.0,0.0,0.0,0.0,0.0,0.0,0.0,0.0,0.0,0.0,0.0,0.0,0.0,0.0,0.0,0.0,0.0,0.0,0.0,0.0,0.0,0.0,0.0,0.0,0.0,0.0,0.0,0.0,0.0,0.0,0.0,0.0,0.0,0.0,0.0,0.0,0.0,0.0,0.0,0.0,0.0,0.0,0.0,0.0,0.0,0.0,0.0,0.0,0.0,0.0,0.0,0.0,0.0,0.0,0.0,0.0,0.0,0.0,0.0,0.0,0.0,0.0,0.0,0.0,0.0,0.0,0.0,0.0,0.0,0.0,0.0,0.0,0.0,0.0,0.0,0.0,0.0,0.0,0.0,-0.8933,-0.9774,-1.0602,0.0,-1.128,-1.1416,-1.1497,-1.1518,-1.1518,-1.1518,-1.1518,-1.1443,-1.1206,-1.1043,-1.0833,-1.0744,-1.0717,-1.0717,-1.0717,-1.0717,-1.0717,-1.0717,-1.0717,-1.0717,-1.0717,-1.0717,-0.9576,-0.6765,-0.583,-0.4158,-0.1344,-0.0462,0.0,0.0,0.0,0.0,0.0,0.0,0.0,0.0,0.0,0.0,0.0,0.0,0.0,0.0,0.0,0.0,0.0,0.0,0.0,0.0,0.0,0.0,0.0,0.0,0.0,0.0,0.0,0.0,0.0,0.0,0.0,0.0,0.0,0.0,0.0,0.0,0.0,0.0,0.0,0.0,0.0,0.0,0.0,0.0,0.0,0.0,0.0,0.0,0.0,0.0,0.0,0.0,0.0,0.0,0.0,0.0,0.0,0.0,0.0,0.0,0.0,0.0,0.0,0.0,0.0,0.0,0.0,0.0,0.0,0.0,0.0,0.0,0.0,0.0,0.0,0.0,0.0,0.0,0.0,0.0,-0.9001,-0.9673,-1.027,-1.0758,-1.1084,-1.1321,0.0,-1.1565,-1.1619,-1.1619,-1.1619,-1.1525,-1.1219,-1.1077,-1.0941,-1.0751,-1.0717,-1.0717,-1.0717,-1.0717,-1.0731,-1.0772,-1.0744,-1.0738,-1.0772,-1.0744,-0.9244,-0.5696,-0.5429,-0.3823,-0.0202,0.0,0.0,0.0,0.0,0.0,0.0,0.0,0.0,0.0,0.0,0.0,0.0,0.0,0.0,0.0,0.0,0.0,0.0,0.0,0.0,0.0,0.0,0.0,0.0,0.0,0.0,0.0,0.0,0.0,0.0,0.0,0.0,0.0,0.0,0.0,0.0,0.0,0.0,0.0,0.0,0.0,0.0,0.0,0.0,0.0,0.0,0.0,0.0,0.0,0.0,0.0,0.0,0.0,0.0,0.0,0.0,0.0,0.0,0.0,0.0,0.0,0.0,0.0,0.0,0.0,0.0,0.0,0.0,0.0,0.0,0.0,0.0,0.0,0.0,0.0,0.0,0.0,0.0,0.0,0.0,0.0,-0.8615,-0.8981,-0.9425,-0.9958,-1.0476,0.0,0.0,-1.1409,-1.1619,-1.1619,-1.1619,-1.1525,-1.1219,-1.1158,-1.1056,-1.0765,-1.0717,-1.0717,-1.0717,-1.0717,-1.0772,-1.0853,-1.0806,-1.0778,-1.0853,-1.0739,-0.9244,-0.5696,-0.5429,-0.3823,-0.0202,0.0,0.0,0.0,0.0,0.0,0.0,0.0,0.0,0.0,0.0,0.0,0.0,0.0,0.0,0.0,0.0,0.0,0.0,0.0,0.0,0.0,0.0,0.0,0.0,0.0,0.0,0.0,0.0,0.0,0.0,0.0,0.0,0.0,0.0,0.0,0.0,0.0,0.0,0.0,0.0,0.0,0.0,0.0,0.0,0.0,0.0,0.0,0.0,0.0,0.0,0.0,0.0,0.0,0.0,0.0,0.0,0.0,0.0,0.0,0.0,0.0,0.0,0.0,0.0,0.0,0.0,0.0,0.0,0.0,0.0,0.0,0.0,0.0,0.0,0.0,0.0,0.0,0.0,0.0,0.0,0.0,-0.8615,-0.8859,0.0,-0.9754,-1.0078,-1.0395,-1.0799,-1.1036,-1.1212,-1.1307,-1.1328,-1.1267,-1.1063,-1.1097,-1.1063,-1.0765,-1.0717,-1.0717,-1.0717,-1.0717,-1.0744,-1.0799,-1.0751,-1.0744,-1.0799,-1.0751,-0.9244,-0.5696,-0.5429,-0.3823,-0.0202,0.0,0.0,0.0,0.0,0.0,0.0,0.0,0.0,0.0,0.0,0.0,0.0,0.0,0.0,0.0,0.0,0.0,0.0,0.0,0.0,0.0,0.0,0.0,0.0,0.0,0.0,0.0,0.0,0.0,0.0,0.0,0.0,0.0,0.0,0.0,0.0,0.0,0.0,0.0,0.0,0.0,0.0,0.0,0.0,0.0,0.0,0.0,0.0,0.0,0.0,0.0,0.0,0.0,0.0,0.0,0.0,0.0,0.0,0.0,0.0,0.0,0.0,0.0,0.0,0.0,0.0,0.0,0.0,0.0,0.0,0.0,0.0,0.0,0.0,0.0,0.0,0.0,0.0,0.0,0.0,0.0,-0.8418,-0.8594,0.0,0.0,-0.9639,-0.9903,-1.0507,-1.0724,-1.0867,-1.1111,-1.1234,-1.1118,-1.0907,-1.1029,-1.1009,-1.0758,-1.0717,-1.0717,-1.0717,-1.0717,-1.0738,-1.0792,-1.0751,-1.0738,-1.0792,-1.0751,-0.9244,-0.5696,-0.5429,-0.3823,-0.0202,0.0,0.0,0.0,0.0,0.0,0.0,0.0,0.0,0.0,0.0,0.0,0.0,0.0,0.0,0.0,0.0,0.0,0.0,0.0,0.0,0.0,0.0,0.0,0.0,0.0,0.0,0.0,0.0,0.0,0.0,0.0,0.0,0.0,0.0,0.0,0.0,0.0,0.0,0.0,0.0,0.0,0.0,0.0,0.0,0.0,0.0,0.0,0.0,0.0,0.0,0.0,0.0,0.0,0.0,0.0,0.0,0.0,0.0,0.0,0.0,0.0,0.0,0.0,0.0,0.0,0.0,0.0,0.0,0.0,0.0,0.0,0.0,0.0,0.0,0.0,0.0,0.0,0.0,0.0,0.0,0.0,0.0,0.0,0.0,0.0,0.0,0.0,-1.0243,-1.0453,-1.0588,-1.1036,-1.12,-1.1097,-1.09,-1.0873,-1.0826,-1.0744,-1.0717,-1.0717,-1.0717,-1.0717,-1.0772,-1.0853,-1.0812,-1.0778,-1.086,-1.0806,-0.9244,-0.5696,-0.5429,-0.3823,-0.0202,0.0,0.0,0.0,0.0,0.0,0.0,0.0,0.0,0.0,0.0,0.0,0.0,0.0,0.0,0.0,0.0,0.0,0.0,0.0,0.0,0.0,0.0,0.0,0.0,0.0,0.0,0.0,0.0,0.0,0.0,0.0,0.0,0.0,0.0,0.0,0.0,0.0,0.0,0.0,0.0,0.0,0.0,0.0,0.0,0.0,0.0,0.0,0.0,0.0,0.0,0.0,0.0,0.0,0.0,0.0,0.0,0.0,0.0,0.0,0.0,0.0,0.0,0.0,0.0,0.0,0.0,0.0,0.0,0.0,0.0,0.0,0.0,0.0,0.0,0.0,0.0,0.0,0.0,0.0,0.0,0.0,-0.7975,0.0,0.0,0.0,0.0,0.0,-0.9259,-0.9537,-0.9815,-1.0263,-1.0446,-1.0575,-1.0751,-1.0785,-1.0772,-1.0724,-1.0717,-1.0717,-1.0717,-1.0717,-1.0738,-1.0778,-1.0744,-1.0738,-1.0778,-1.0744,-0.9244,-0.5696,-0.5429,-0.3823,-0.0202,0.0,0.0,0.0,0.0,0.0,0.0,0.0,0.0,0.0,0.0,0.0,0.0,0.0,0.0,0.0,0.0,0.0,0.0,0.0,0.0,0.0,0.0,0.0,0.0,0.0,0.0,0.0,0.0,0.0,0.0,0.0,0.0,0.0,0.0,0.0,0.0,0.0,0.0,0.0,0.0,0.0,0.0,0.0,0.0,0.0,0.0,0.0,0.0,0.0,0.0,0.0,0.0,0.0,0.0,0.0,0.0,0.0,0.0,0.0,0.0,0.0,0.0,0.0,0.0,0.0,0.0,0.0,0.0,0.0,0.0,0.0,0.0,0.0,0.0,0.0,0.0,0.0,0.0,0.0,0.0,0.0,-0.7975,-0.7988,-0.8042,-0.8303,0.0,0.0,-0.8994,-0.9205,-0.9429,-0.9883,-1.012,-1.0276,-1.0568,-1.0575,-1.0575,-1.0704,-1.0717,-1.0717,-1.0717,-1.0717,-1.0717,-1.0717,-1.0717,-1.0717,-1.0717,-1.0717,-0.9244,-0.5696,-0.5429,-0.3803,-0.0199,0.0,0.0,0.0,0.0,0.0,0.0,0.0,0.0,0.0,0.0,0.0,0.0,0.0,0.0,0.0,0.0,0.0,0.0,0.0,0.0,0.0,0.0,0.0,0.0,0.0,0.0,0.0,0.0,0.0,0.0,0.0,0.0,0.0,0.0,0.0,0.0,0.0,0.0,0.0,0.0,0.0,0.0,0.0,0.0,0.0,0.0,0.0,0.0,0.0,0.0,0.0,0.0,0.0,0.0,0.0,0.0,0.0,0.0,0.0,0.0,0.0,0.0,0.0,0.0,0.0,0.0,0.0,0.0,0.0,0.0,0.0,0.0,0.0,0.0,0.0,0.0,0.0,0.0,0.0,0.0,0.0,-0.7961,-0.7988,-0.8056,-0.8364,-0.8248,0.0,-0.9055,-0.9207,-0.9232,-0.9727,-0.9917,-1.0081,-1.0317,-1.0276,-1.0283,-1.0534,-1.0629,-1.0683,-1.0717,-1.0717,-1.0717,-1.0717,-1.0717,-1.0717,-1.0717,-1.0717,-0.9244,-0.5696,-0.5028,-0.3382,-0.0194,0.0,0.0,0.0,0.0,0.0,0.0,0.0,0.0,0.0,0.0,0.0,0.0,0.0,0.0,0.0,0.0,0.0,0.0,0.0,0.0,0.0,0.0,0.0,0.0,0.0,0.0,0.0,0.0,0.0,0.0,0.0,0.0,0.0,0.0,0.0,0.0,0.0,0.0,0.0,0.0,0.0,0.0,0.0,0.0,0.0,0.0,0.0,0.0,0.0,0.0,0.0,0.0,0.0,0.0,0.0,0.0,0.0,0.0,0.0,0.0,0.0,0.0,0.0,0.0,0.0,0.0,0.0,0.0,0.0,0.0,0.0,0.0,0.0,0.0,0.0,0.0,0.0,0.0,0.0,0.0,0.0,-0.8015,-0.7988,-0.8002,-0.8062,-0.8174,0.0,-0.8289,-0.8459,-0.8682,-0.892,-0.9069,-0.9245,-0.9544,-0.9673,-0.972,-0.9652,-1.0053,-1.0446,-1.0683,-1.0717,-1.0717,-1.0717,-1.0717,-1.0717,-1.0717,-1.0717,-0.9244,-0.5696,-0.2685,-0.0731,-0.0065,0.0,0.0,0.0,0.0,0.0,0.0,0.0,0.0,0.0,0.0,0.0,0.0,0.0,0.0,0.0,0.0,0.0,0.0,0.0,0.0,0.0,0.0,0.0,0.0,0.0,0.0,0.0,0.0,0.0,0.0,0.0,0.0,0.0,0.0,0.0,0.0,0.0,0.0,0.0,0.0,0.0,0.0,0.0,0.0,0.0,0.0,0.0,0.0,0.0,0.0,0.0,0.0,0.0,0.0,0.0,0.0,0.0,0.0,0.0,0.0,0.0,0.0,0.0,0.0,0.0,0.0,0.0,0.0,0.0,0.0,0.0,0.0,0.0,0.0,0.0,0.0,0.0,0.0,0.0,0.0,0.0,-0.8049,-0.7988,-0.8008,-0.8133,-0.8153,0.0,0.0,-0.8377,-0.8526,-0.8676,-0.8771,-0.8913,-0.9211,-0.9273,-0.9327,-0.9469,-0.9808,-1.01,-1.0249,-1.0527,-1.0717,-1.0717,-1.0717,-1.0717,-1.0717,-0.9908,-0.7902,-0.4292,-0.1545,0.0,0.0,0.0,0.0,0.0,0.0,0.0,0.0,0.0,0.0,0.0,0.0,0.0,0.0,0.0,0.0,0.0,0.0,0.0,0.0,0.0,0.0,0.0,0.0,0.0,0.0,0.0,0.0,0.0,0.0,0.0,0.0,0.0,0.0,0.0,0.0,0.0,0.0,0.0,0.0,0.0,0.0,0.0,0.0,0.0,0.0,0.0,0.0,0.0,0.0,0.0,0.0,0.0,0.0,0.0,0.0,0.0,0.0,0.0,0.0,0.0,0.0,0.0,0.0,0.0,0.0,0.0,0.0,0.0,0.0,0.0,0.0,0.0,0.0,0.0,0.0,0.0,0.0,0.0,0.0,0.0,0.0,0.0,-0.8231,-0.8164,-0.8177,-0.8296,-0.8241,-0.8157,0.0,0.0,0.0,-0.856,-0.8581,-0.8655,-0.8893,-0.8866,-0.892,-0.9252,-0.9503,-0.9639,-0.9612,-1.01,-1.0493,-1.0582,-1.0616,-1.0643,-1.067,-0.8712,-0.6324,-0.3421,-0.1204,0.0,0.0,0.0,0.0,0.0,0.0,0.0,0.0,0.0,0.0,0.0,0.0,0.0,0.0,0.0,0.0,0.0,0.0,0.0,0.0,0.0,0.0,0.0,0.0,0.0,0.0,0.0,0.0,0.0,0.0,0.0,0.0,0.0,0.0,0.0,0.0,0.0,0.0,0.0,0.0,0.0,0.0,0.0,0.0,0.0,0.0,0.0,0.0,0.0,0.0,0.0,0.0,0.0,0.0,0.0,0.0,0.0,0.0,0.0,0.0,0.0,0.0,0.0,0.0,0.0,0.0,0.0,0.0,0.0,0.0,0.0,0.0,0.0,0.0,0.0,0.0,0.0,0.0,0.0,0.0,0.0,0.0,0.0,-0.8879,-0.8784,-0.8723,-0.852,-0.8547,-0.854,-0.8123,0.0,-0.8262,-0.8089,0.0,-0.8076,-0.811,0.0,0.0,-0.8184,-0.8629,-0.8939,-0.8852,-0.9239,-0.968,-1.0017,-1.0249,-1.0378,-1.0507,-0.7602,-0.5544,-0.5152,-0.1904,0.0,0.0,0.0,0.0,0.0,0.0,0.0,0.0,0.0,0.0,0.0,0.0,0.0,0.0,0.0,0.0,0.0,0.0,0.0,0.0,0.0,0.0,0.0,0.0,0.0,0.0,0.0,0.0,0.0,0.0,0.0,0.0,0.0,0.0,0.0,0.0,0.0,0.0,0.0,0.0,0.0,0.0,0.0,0.0,0.0,0.0,0.0,0.0,0.0,0.0,0.0,0.0,0.0,0.0,0.0,0.0,0.0,0.0,0.0,0.0,0.0,0.0,0.0,0.0,0.0,0.0,0.0,0.0,0.0,0.0,0.0,0.0,0.0,0.0,0.0,0.0,0.0,0.0,0.0,0.0,0.0,0.0,0.0,-0.6132,-0.6058,-0.6068,-0.6028,-0.597,-0.5951,-0.5811,-0.5804,-0.5775,-0.5682,0.0,0.0,0.0,0.0,0.0,0.0,-0.8452,-0.8648,-0.8587,-0.8893,-0.9259,-0.9618,-0.972,-0.9079,-0.7279,-0.5936,-0.4299,-0.2391,-0.084,0.0,0.0,0.0,0.0,0.0,0.0,0.0,0.0,0.0,0.0,0.0,0.0,0.0,0.0,0.0,0.0,0.0,0.0,0.0,0.0,0.0,0.0,0.0,0.0,0.0,0.0,0.0,0.0,0.0,0.0,0.0,0.0,0.0,0.0,0.0,0.0,0.0,0.0,0.0,0.0,0.0,0.0,0.0,0.0,0.0,0.0,0.0,0.0,0.0,0.0,0.0,0.0,0.0,0.0,0.0,0.0,0.0,0.0,0.0,0.0,0.0,0.0,0.0,0.0,0.0,0.0,0.0,0.0,0.0,0.0,0.0,0.0,0.0,0.0,0.0,0.0,0.0,0.0,0.0,0.0,0.0,0.0,0.0,-0.4303,-0.4231,-0.4228,-0.428,-0.4236,-0.4136,-0.4126,-0.4089,-0.4021,-0.4001,-0.4794,0.0,0.0,0.0,-0.6952,-0.7118,0.0,-0.7403,-0.7736,-0.7965,-0.8375,-0.9101,-0.8922,-0.7892,-0.5562,-0.4714,-0.3338,-0.0938,-0.0252,0.0,0.0,0.0,0.0,0.0,0.0,0.0,0.0,0.0,0.0,0.0,0.0,0.0,0.0,0.0,0.0,0.0,0.0,0.0,0.0,0.0,0.0,0.0,0.0,0.0,0.0,0.0,0.0,0.0,0.0,0.0,0.0,0.0,0.0,0.0,0.0,0.0,0.0,0.0,0.0,0.0,0.0,0.0,0.0,0.0,0.0,0.0,0.0,0.0,0.0,0.0,0.0,0.0,0.0,0.0,0.0,0.0,0.0,0.0,0.0,0.0,0.0,0.0,0.0,0.0,0.0,0.0,0.0,0.0,0.0,0.0,0.0,0.0,0.0,0.0,0.0,0.0,0.0,0.0,0.0,0.0,0.0,0.0,-0.4899,-0.4845,-0.4795,-0.4574,-0.4464,-0.4404,-0.4072,-0.4027,-0.4005,-0.3985,-0.403,-0.4051,-0.409,-0.4077,-0.4106,-0.414,-0.413,0.0,0.0,-0.6097,-0.6737,-0.8515,-0.7806,-0.7152,-0.7044,-0.4465,-0.2708,-0.2637,-0.0961,0.0,0.0,0.0,0.0,0.0,0.0,0.0,0.0,0.0,0.0,0.0,0.0,0.0,0.0,0.0,0.0,0.0,0.0,0.0,0.0,0.0,0.0,0.0,0.0,0.0,0.0,0.0,0.0,0.0,0.0,0.0,0.0,0.0,0.0,0.0,0.0,0.0,0.0,0.0,0.0,0.0,0.0,0.0,0.0,0.0,0.0,0.0,0.0,0.0,0.0,0.0,0.0,0.0,0.0,0.0,0.0,0.0,0.0,0.0,0.0,0.0,0.0,0.0,0.0,0.0,0.0,0.0,0.0,0.0,0.0,0.0,0.0,0.0,0.0,0.0,0.0,0.0,0.0,0.0,0.0,0.0,0.0,0.0,-0.1638,-0.1632,-0.161,-0.1552,-0.1517,-0.1478,-0.1402,-0.1359,-0.1328,-0.1372,-0.204,-0.2667,-0.265,-0.3422,-0.4005,-0.3985,-0.4027,-0.4154,0.0,-0.4668,-0.4905,-0.5509,-0.6165,-0.5829,-0.3909,-0.2909,-0.1986,-0.0981,-0.0348,0.0,0.0,0.0,0.0,0.0,0.0,0.0,0.0,0.0,0.0,0.0,0.0,0.0,0.0,0.0,0.0,0.0,0.0,0.0,0.0,0.0,0.0,0.0,0.0,0.0,0.0,0.0,0.0,0.0,0.0,0.0,0.0,0.0,0.0,0.0,0.0,0.0,0.0,0.0,0.0,0.0,0.0,0.0,0.0,0.0,0.0,0.0,0.0,0.0,0.0,0.0,0.0,0.0,0.0,0.0,0.0,0.0,0.0,0.0,0.0,0.0,0.0,0.0,0.0,0.0,0.0,0.0,0.0,0.0,0.0,0.0,0.0,0.0,0.0,0.0,0.0,0.0,0.0,0.0,0.0,0.0,0.0,0.0,0.0,0.0,0.0,0.0,0.0,0.0,0.0,0.0,0.0,0.0,-0.0666,-0.1291,-0.1291,-0.1971,-0.2564,-0.2588,-0.2554,-0.2722,0.0,-0.3717,-0.3817,-0.3366,-0.4159,-0.4048,-0.217,-0.1665,-0.1012,-0.0056,0.0,0.0,0.0,0.0,0.0,0.0,0.0,0.0,0.0,0.0,0.0,0.0,0.0,0.0,0.0,0.0,0.0,0.0,0.0,0.0,0.0,0.0,0.0,0.0,0.0,0.0,0.0,0.0,0.0,0.0,0.0,0.0,0.0,0.0,0.0,0.0,0.0,0.0,0.0,0.0,0.0,0.0,0.0,0.0,0.0,0.0,0.0,0.0,0.0,0.0,0.0,0.0,0.0,0.0,0.0,0.0,0.0,0.0,0.0,0.0,0.0,0.0,0.0,0.0,0.0,0.0,0.0,0.0,0.0,0.0,0.0,0.0,0.0,0.0,0.0,0.0,0.0,0.0,0.0,0.0,0.0,0.0,0.0,0.0]}]]